Wetterdaten: Freitag, 19.01.2018
Datum Zeit Temp. A. Pool Temp. Feuchte A. Luftdruck Regen Wind Richtung Richtung Sonnenschein ET UV Solar Taupunkt Windchill Windben Empfang
19.01.2018 00:00 3,4 C 3,9 C 95 % 1004,4 hPa 0,0 l/m 8,7 km/h (2 Bft) W 276 0 min 0,000 mm 0,0 UV-I 0 W/m 2,7 C 1,3 C 14,5 km/h (3 Bft) 94,74 %
19.01.2018 00:02 3,4 C 3,9 C 95 % 1004,5 hPa 0,0 l/m 11,3 km/h (2 Bft) W-NW 294 0 min 0,000 mm 0,0 UV-I 0 W/m 2,7 C -0,6 C 11,3 km/h (2 Bft) 95,12 %
19.01.2018 00:04 3,4 C 3,9 C 95 % 1004,4 hPa 0,2 l/m 8,0 km/h (2 Bft) W 271 0 min 0,000 mm 0,0 UV-I 0 W/m 2,7 C 1,9 C 11,3 km/h (2 Bft) 93,62 %
19.01.2018 00:06 3,4 C 3,9 C 95 % 1004,5 hPa 0,0 l/m 7,8 km/h (2 Bft) W-NW 296 0 min 0,000 mm 0,0 UV-I 0 W/m 2,7 C 2,1 C 11,3 km/h (2 Bft) 96,00 %
19.01.2018 00:08 3,4 C 3,9 C 95 % 1004,4 hPa 0,0 l/m 5,4 km/h (1 Bft) W-SW 257 0 min 0,000 mm 0,0 UV-I 0 W/m 2,7 C 3,4 C 9,7 km/h (2 Bft) 95,74 %
19.01.2018 00:10 3,4 C 3,9 C 95 % 1004,4 hPa 0,0 l/m 6,2 km/h (2 Bft) W 267 0 min 0,000 mm 0,0 UV-I 0 W/m 2,7 C 3,4 C 11,3 km/h (2 Bft) 93,62 %
19.01.2018 00:12 3,4 C 3,9 C 95 % 1004,4 hPa 0,2 l/m 6,5 km/h (2 Bft) W-SW 255 0 min 0,000 mm 0,0 UV-I 0 W/m 2,7 C 3,3 C 11,3 km/h (2 Bft) 95,74 %
19.01.2018 00:14 3,3 C 3,9 C 95 % 1004,4 hPa 0,0 l/m 8,5 km/h (2 Bft) W-SW 249 0 min 0,000 mm 0,0 UV-I 0 W/m 2,6 C 1,4 C 12,9 km/h (3 Bft) 94,44 %
19.01.2018 00:16 3,4 C 3,9 C 95 % 1004,5 hPa 0,0 l/m 7,6 km/h (2 Bft) W 261 0 min 0,000 mm 0,0 UV-I 0 W/m 2,7 C 2,3 C 11,3 km/h (2 Bft) 92,00 %
19.01.2018 00:18 3,4 C 3,9 C 95 % 1004,4 hPa 0,2 l/m 6,0 km/h (2 Bft) W 261 0 min 0,000 mm 0,0 UV-I 0 W/m 2,7 C 3,4 C 9,7 km/h (2 Bft) 91,49 %
19.01.2018 00:20 3,4 C 3,9 C 96 % 1004,4 hPa 0,0 l/m 7,2 km/h (2 Bft) SW 232 0 min 0,000 mm 0,0 UV-I 0 W/m 2,8 C 2,7 C 11,3 km/h (2 Bft) 96,00 %
19.01.2018 00:22 3,4 C 3,9 C 95 % 1004,4 hPa 0,0 l/m 5,0 km/h (1 Bft) W-SW 252 0 min 0,000 mm 0,0 UV-I 0 W/m 2,7 C 3,4 C 9,7 km/h (2 Bft) 94,00 %
19.01.2018 00:24 3,4 C 3,9 C 95 % 1004,6 hPa 0,0 l/m 5,6 km/h (1 Bft) W-SW 258 0 min 0,000 mm 0,0 UV-I 0 W/m 2,7 C 3,4 C 9,7 km/h (2 Bft) 91,49 %
19.01.2018 00:26 3,4 C 3,9 C 96 % 1004,6 hPa 0,0 l/m 7,0 km/h (2 Bft) W-SW 238 0 min 0,000 mm 0,0 UV-I 0 W/m 2,8 C 2,8 C 9,7 km/h (2 Bft) 97,14 %
19.01.2018 00:28 3,4 C 3,9 C 95 % 1004,6 hPa 0,0 l/m 7,4 km/h (2 Bft) W-NW 288 0 min 0,000 mm 0,0 UV-I 0 W/m 2,7 C 2,5 C 12,9 km/h (3 Bft) 96,30 %
19.01.2018 00:30 3,4 C 3,9 C 95 % 1004,6 hPa 0,0 l/m 4,3 km/h (1 Bft) W 262 0 min 0,000 mm 0,0 UV-I 0 W/m 2,7 C 3,4 C 6,4 km/h (2 Bft) 95,74 %
19.01.2018 00:32 3,4 C 3,9 C 96 % 1004,6 hPa 0,2 l/m 3,5 km/h (1 Bft) W 279 0 min 0,000 mm 0,0 UV-I 0 W/m 2,8 C 3,4 C 4,8 km/h (1 Bft) 95,74 %
19.01.2018 00:34 3,4 C 3,9 C 96 % 1004,4 hPa 0,0 l/m 1,6 km/h (1 Bft) W 279 0 min 0,000 mm 0,0 UV-I 0 W/m 2,8 C 3,4 C 3,2 km/h (1 Bft) 95,74 %
19.01.2018 00:36 3,4 C 3,9 C 96 % 1004,4 hPa 0,0 l/m 2,3 km/h (1 Bft) W 279 0 min 0,000 mm 0,0 UV-I 0 W/m 2,8 C 3,4 C 4,8 km/h (1 Bft) 93,62 %
19.01.2018 00:38 3,4 C 3,9 C 96 % 1004,4 hPa 0,2 l/m 2,2 km/h (1 Bft) W-NW 286 0 min 0,000 mm 0,0 UV-I 0 W/m 2,8 C 3,4 C 4,8 km/h (1 Bft) 98,00 %
19.01.2018 00:40 3,4 C 3,9 C 96 % 1004,3 hPa 0,0 l/m 1,6 km/h (1 Bft) W-NW 285 0 min 0,000 mm 0,0 UV-I 0 W/m 2,8 C 3,4 C 4,8 km/h (1 Bft) 95,74 %
19.01.2018 00:42 3,4 C 3,9 C 96 % 1004,3 hPa 0,2 l/m 2,4 km/h (1 Bft) W-NW 284 0 min 0,000 mm 0,0 UV-I 0 W/m 2,8 C 3,4 C 4,8 km/h (1 Bft) 100,00 %
19.01.2018 00:44 3,4 C 3,9 C 96 % 1004,3 hPa 0,0 l/m 1,6 km/h (1 Bft) W-NW 283 0 min 0,000 mm 0,0 UV-I 0 W/m 2,8 C 3,4 C 4,8 km/h (1 Bft) 100,00 %
19.01.2018 00:46 3,4 C 3,9 C 96 % 1004,1 hPa 0,2 l/m 0,2 km/h (0 Bft) W-NW 283 0 min 0,000 mm 0,0 UV-I 0 W/m 2,8 C 3,4 C 1,6 km/h (1 Bft) 100,00 %
19.01.2018 00:48 3,4 C 3,9 C 96 % 1004,3 hPa 0,0 l/m 2,5 km/h (1 Bft) W-NW 284 0 min 0,000 mm 0,0 UV-I 0 W/m 2,8 C 3,4 C 4,8 km/h (1 Bft) 97,14 %
19.01.2018 00:50 3,4 C 3,9 C 96 % 1004,2 hPa 0,2 l/m 1,8 km/h (1 Bft) W-NW 284 0 min 0,000 mm 0,0 UV-I 0 W/m 2,8 C 3,4 C 4,8 km/h (1 Bft) 97,87 %
19.01.2018 00:52 3,3 C 3,3 C 96 % 1004,3 hPa 0,2 l/m 1,6 km/h (1 Bft) W-NW 284 0 min 0,000 mm 0,0 UV-I 0 W/m 2,7 C 3,3 C 4,8 km/h (1 Bft) 100,00 %
19.01.2018 00:54 3,4 C 3,3 C 96 % 1004,4 hPa 0,0 l/m 1,6 km/h (1 Bft) W-NW 284 0 min 0,000 mm 0,0 UV-I 0 W/m 2,8 C 3,4 C 4,8 km/h (1 Bft) 100,00 %
19.01.2018 00:56 3,4 C 3,9 C 96 % 1004,4 hPa 0,0 l/m 1,5 km/h (1 Bft) W-NW 284 0 min 0,000 mm 0,0 UV-I 0 W/m 2,8 C 3,4 C 3,2 km/h (1 Bft) 100,00 %
19.01.2018 00:58 3,4 C 3,9 C 96 % 1004,7 hPa 0,2 l/m 1,7 km/h (1 Bft) N-NW 329 0 min 0,000 mm 0,0 UV-I 0 W/m 2,8 C 3,4 C 6,4 km/h (2 Bft) 97,87 %
19.01.2018 01:00 3,4 C 3,9 C 96 % 1004,7 hPa 0,0 l/m 2,5 km/h (1 Bft) NW 304 0 min 0,000 mm 0,0 UV-I 0 W/m 2,8 C 3,4 C 4,8 km/h (1 Bft) 100,00 %
19.01.2018 01:02 3,3 C 3,9 C 96 % 1004,7 hPa 0,0 l/m 4,1 km/h (1 Bft) W-NW 298 0 min 0,000 mm 0,0 UV-I 0 W/m 2,7 C 3,3 C 6,4 km/h (2 Bft) 100,00 %
19.01.2018 01:04 3,3 C 3,3 C 96 % 1004,8 hPa 0,0 l/m 2,4 km/h (1 Bft) W-NW 287 0 min 0,000 mm 0,0 UV-I 0 W/m 2,7 C 3,3 C 4,8 km/h (1 Bft) 95,74 %
19.01.2018 01:06 3,3 C 3,3 C 96 % 1004,7 hPa 0,2 l/m 1,1 km/h (1 Bft) S-SW 195 0 min 0,000 mm 0,0 UV-I 0 W/m 2,7 C 3,3 C 4,8 km/h (1 Bft) 97,87 %
19.01.2018 01:08 3,3 C 3,3 C 96 % 1004,7 hPa 0,0 l/m 4,5 km/h (1 Bft) W-SW 244 0 min 0,000 mm 0,0 UV-I 0 W/m 2,7 C 3,3 C 8,0 km/h (2 Bft) 100,00 %
19.01.2018 01:10 3,3 C 3,3 C 96 % 1004,6 hPa 0,2 l/m 12,7 km/h (3 Bft) SW 217 0 min 0,000 mm 0,0 UV-I 0 W/m 2,7 C -1,6 C 19,3 km/h (3 Bft) 100,00 %
19.01.2018 01:12 3,3 C 3,3 C 96 % 1004,4 hPa 0,0 l/m 6,0 km/h (2 Bft) W-SW 248 0 min 0,000 mm 0,0 UV-I 0 W/m 2,7 C 3,3 C 16,1 km/h (3 Bft) 97,14 %
19.01.2018 01:14 3,4 C 3,9 C 96 % 1004,5 hPa 0,0 l/m 7,1 km/h (2 Bft) S-SW 213 0 min 0,000 mm 0,0 UV-I 0 W/m 2,8 C 2,7 C 11,3 km/h (2 Bft) 100,00 %
19.01.2018 01:16 3,4 C 3,9 C 96 % 1004,8 hPa 0,0 l/m 6,3 km/h (2 Bft) SW 232 0 min 0,000 mm 0,0 UV-I 0 W/m 2,8 C 3,4 C 11,3 km/h (2 Bft) 100,00 %
19.01.2018 01:18 3,4 C 3,9 C 96 % 1005,0 hPa 0,2 l/m 10,8 km/h (2 Bft) W-SW 254 0 min 0,000 mm 0,0 UV-I 0 W/m 2,8 C -0,3 C 17,7 km/h (3 Bft) 97,87 %
19.01.2018 01:20 3,5 C 3,9 C 96 % 1005,1 hPa 0,0 l/m 12,5 km/h (3 Bft) S-SW 194 0 min 0,000 mm 0,0 UV-I 0 W/m 2,9 C -1,3 C 24,1 km/h (4 Bft) 97,87 %
19.01.2018 01:22 3,6 C 3,9 C 96 % 1005,2 hPa 0,0 l/m 15,5 km/h (3 Bft) SW 225 0 min 0,000 mm 0,0 UV-I 0 W/m 3,0 C -2,9 C 24,1 km/h (4 Bft) 98,00 %
19.01.2018 01:24 3,7 C 3,9 C 96 % 1005,2 hPa 0,2 l/m 10,2 km/h (2 Bft) W-SW 242 0 min 0,000 mm 0,0 UV-I 0 W/m 3,1 C 0,5 C 16,1 km/h (3 Bft) 100,00 %
19.01.2018 01:26 3,7 C 3,9 C 95 % 1005,3 hPa 0,2 l/m 12,4 km/h (3 Bft) SW 218 0 min 0,000 mm 0,0 UV-I 0 W/m 3,0 C -1,0 C 17,7 km/h (3 Bft) 97,87 %
19.01.2018 01:28 3,7 C 3,9 C 95 % 1005,3 hPa 0,2 l/m 4,6 km/h (1 Bft) W-SW 249 0 min 0,000 mm 0,0 UV-I 0 W/m 3,0 C 3,7 C 12,9 km/h (3 Bft) 100,00 %
19.01.2018 01:30 3,6 C 3,9 C 95 % 1005,3 hPa 0,2 l/m 4,2 km/h (1 Bft) W 263 0 min 0,000 mm 0,0 UV-I 0 W/m 2,9 C 3,6 C 6,4 km/h (2 Bft) 98,00 %
19.01.2018 01:32 3,6 C 3,9 C 95 % 1005,3 hPa 0,2 l/m 4,1 km/h (1 Bft) W-NW 302 0 min 0,000 mm 0,0 UV-I 0 W/m 2,9 C 3,6 C 9,7 km/h (2 Bft) 100,00 %
19.01.2018 01:34 3,5 C 3,9 C 95 % 1005,4 hPa 0,2 l/m 2,7 km/h (1 Bft) W 269 0 min 0,000 mm 0,0 UV-I 0 W/m 2,8 C 3,5 C 4,8 km/h (1 Bft) 97,87 %
19.01.2018 01:36 3,5 C 3,9 C 95 % 1005,3 hPa 0,0 l/m 5,6 km/h (1 Bft) W-NW 283 0 min 0,000 mm 0,0 UV-I 0 W/m 2,8 C 3,5 C 9,7 km/h (2 Bft) 100,00 %
19.01.2018 01:38 3,4 C 3,3 C 96 % 1005,3 hPa 0,2 l/m 5,8 km/h (2 Bft) W-SW 240 0 min 0,000 mm 0,0 UV-I 0 W/m 2,8 C 3,4 C 17,7 km/h (3 Bft) 97,22 %
19.01.2018 01:40 3,4 C 3,3 C 95 % 1005,3 hPa 0,2 l/m 11,6 km/h (2 Bft) W-SW 256 0 min 0,000 mm 0,0 UV-I 0 W/m 2,7 C -0,8 C 16,1 km/h (3 Bft) 100,00 %
19.01.2018 01:42 3,4 C 3,9 C 95 % 1005,3 hPa 0,2 l/m 13,0 km/h (3 Bft) W-SW 241 0 min 0,000 mm 0,0 UV-I 0 W/m 2,7 C -1,7 C 25,7 km/h (4 Bft) 97,92 %
19.01.2018 01:44 3,3 C 3,9 C 95 % 1005,3 hPa 0,0 l/m 17,8 km/h (3 Bft) SW 223 0 min 0,000 mm 0,0 UV-I 0 W/m 2,6 C -4,4 C 27,4 km/h (4 Bft) 100,00 %
19.01.2018 01:46 3,3 C 3,9 C 95 % 1005,2 hPa 0,2 l/m 16,3 km/h (3 Bft) W 276 0 min 0,000 mm 0,0 UV-I 0 W/m 2,6 C -3,7 C 25,7 km/h (4 Bft) 100,00 %
19.01.2018 01:48 3,2 C 3,9 C 95 % 1005,2 hPa 0,0 l/m 16,1 km/h (3 Bft) W-SW 257 0 min 0,000 mm 0,0 UV-I 0 W/m 2,5 C -3,7 C 24,1 km/h (4 Bft) 100,00 %
19.01.2018 01:50 3,1 C 3,9 C 95 % 1005,2 hPa 0,2 l/m 18,6 km/h (3 Bft) W 264 0 min 0,000 mm 0,0 UV-I 0 W/m 2,4 C -5,0 C 25,7 km/h (4 Bft) 100,00 %
19.01.2018 01:52 3,0 C 3,3 C 94 % 1005,3 hPa 0,0 l/m 14,7 km/h (3 Bft) W 276 0 min 0,000 mm 0,0 UV-I 0 W/m 2,1 C -3,2 C 25,7 km/h (4 Bft) 97,87 %
19.01.2018 01:54 2,9 C 3,3 C 94 % 1005,3 hPa 0,2 l/m 16,3 km/h (3 Bft) W-SW 238 0 min 0,000 mm 0,0 UV-I 0 W/m 2,0 C -4,2 C 29,0 km/h (5 Bft) 97,87 %
19.01.2018 01:56 2,8 C 3,9 C 94 % 1005,3 hPa 0,0 l/m 20,2 km/h (4 Bft) W-SW 247 0 min 0,000 mm 0,0 UV-I 0 W/m 1,9 C -6,1 C 27,4 km/h (4 Bft) 95,74 %
19.01.2018 01:58 2,7 C 3,9 C 94 % 1005,4 hPa 0,2 l/m 13,4 km/h (3 Bft) SW 227 0 min 0,000 mm 0,0 UV-I 0 W/m 1,8 C -2,8 C 16,1 km/h (3 Bft) 92,45 %
19.01.2018 02:00 2,6 C 3,9 C 94 % 1005,5 hPa 0,0 l/m 13,4 km/h (3 Bft) W-SW 238 0 min 0,000 mm 0,0 UV-I 0 W/m 1,7 C -2,9 C 19,3 km/h (3 Bft) 100,00 %
19.01.2018 02:02 2,4 C 3,9 C 94 % 1005,6 hPa 0,0 l/m 14,1 km/h (3 Bft) SW 221 0 min 0,000 mm 0,0 UV-I 0 W/m 1,5 C -3,6 C 20,9 km/h (4 Bft) 94,00 %
19.01.2018 02:04 2,3 C 3,9 C 94 % 1005,8 hPa 0,2 l/m 15,3 km/h (3 Bft) W-SW 241 0 min 0,000 mm 0,0 UV-I 0 W/m 1,4 C -4,4 C 22,5 km/h (4 Bft) 95,74 %
19.01.2018 02:06 2,2 C 3,9 C 94 % 1005,8 hPa 0,0 l/m 15,5 km/h (3 Bft) W 261 0 min 0,000 mm 0,0 UV-I 0 W/m 1,3 C -4,6 C 24,1 km/h (4 Bft) 97,87 %
19.01.2018 02:08 2,1 C 3,9 C 94 % 1005,7 hPa 0,0 l/m 15,5 km/h (3 Bft) W-SW 258 0 min 0,000 mm 0,0 UV-I 0 W/m 1,2 C -4,7 C 24,1 km/h (4 Bft) 98,00 %
19.01.2018 02:10 2,1 C 3,9 C 95 % 1005,6 hPa 0,2 l/m 12,8 km/h (3 Bft) W-SW 254 0 min 0,000 mm 0,0 UV-I 0 W/m 1,4 C -3,1 C 17,7 km/h (3 Bft) 97,87 %
19.01.2018 02:12 2,0 C 3,9 C 95 % 1005,6 hPa 0,0 l/m 14,6 km/h (3 Bft) W-SW 252 0 min 0,000 mm 0,0 UV-I 0 W/m 1,3 C -4,3 C 19,3 km/h (3 Bft) 97,87 %
19.01.2018 02:14 1,9 C 3,9 C 95 % 1005,5 hPa 0,2 l/m 11,9 km/h (2 Bft) W-SW 257 0 min 0,000 mm 0,0 UV-I 0 W/m 1,2 C -2,7 C 22,5 km/h (4 Bft) 95,24 %
19.01.2018 02:16 1,9 C 3,9 C 95 % 1005,6 hPa 0,0 l/m 11,4 km/h (2 Bft) W 277 0 min 0,000 mm 0,0 UV-I 0 W/m 1,2 C -2,4 C 16,1 km/h (3 Bft) 93,75 %
19.01.2018 02:18 1,9 C 3,9 C 95 % 1005,7 hPa 0,2 l/m 12,3 km/h (3 Bft) SW 236 0 min 0,000 mm 0,0 UV-I 0 W/m 1,2 C -3,0 C 17,7 km/h (3 Bft) 95,74 %
19.01.2018 02:20 1,9 C 3,9 C 95 % 1005,7 hPa 0,2 l/m 12,8 km/h (3 Bft) W-SW 243 0 min 0,000 mm 0,0 UV-I 0 W/m 1,2 C -3,3 C 19,3 km/h (3 Bft) 97,87 %
19.01.2018 02:22 1,9 C 3,9 C 95 % 1005,6 hPa 0,0 l/m 12,4 km/h (3 Bft) W-SW 252 0 min 0,000 mm 0,0 UV-I 0 W/m 1,2 C -3,1 C 16,1 km/h (3 Bft) 95,74 %
19.01.2018 02:24 1,8 C 3,9 C 95 % 1005,6 hPa 0,2 l/m 11,8 km/h (2 Bft) W-SW 247 0 min 0,000 mm 0,0 UV-I 0 W/m 1,1 C -2,8 C 19,3 km/h (3 Bft) 95,74 %
19.01.2018 02:26 1,8 C 3,9 C 95 % 1005,8 hPa 0,0 l/m 10,1 km/h (2 Bft) W-SW 244 0 min 0,000 mm 0,0 UV-I 0 W/m 1,1 C -1,5 C 16,1 km/h (3 Bft) 97,92 %
19.01.2018 02:28 1,8 C 3,9 C 95 % 1005,8 hPa 0,2 l/m 12,1 km/h (2 Bft) W 259 0 min 0,000 mm 0,0 UV-I 0 W/m 1,1 C -3,0 C 19,3 km/h (3 Bft) 95,74 %
19.01.2018 02:30 1,7 C 3,3 C 95 % 1005,9 hPa 0,0 l/m 12,0 km/h (2 Bft) W-SW 242 0 min 0,000 mm 0,0 UV-I 0 W/m 1,0 C -3,0 C 17,7 km/h (3 Bft) 98,00 %
19.01.2018 02:32 1,7 C 3,3 C 95 % 1005,9 hPa 0,2 l/m 13,7 km/h (3 Bft) SW 235 0 min 0,000 mm 0,0 UV-I 0 W/m 1,0 C -4,1 C 20,9 km/h (4 Bft) 100,00 %
19.01.2018 02:34 1,7 C 3,3 C 95 % 1006,0 hPa 0,0 l/m 13,2 km/h (3 Bft) W-SW 249 0 min 0,000 mm 0,0 UV-I 0 W/m 1,0 C -3,8 C 20,9 km/h (4 Bft) 100,00 %
19.01.2018 02:36 1,6 C 3,3 C 95 % 1006,0 hPa 0,2 l/m 12,9 km/h (3 Bft) SW 227 0 min 0,000 mm 0,0 UV-I 0 W/m 0,9 C -3,8 C 17,7 km/h (3 Bft) 100,00 %
19.01.2018 02:38 1,6 C 3,3 C 95 % 1005,9 hPa 0,0 l/m 12,8 km/h (3 Bft) SW 232 0 min 0,000 mm 0,0 UV-I 0 W/m 0,9 C -3,7 C 20,9 km/h (4 Bft) 100,00 %
19.01.2018 02:40 1,5 C 3,9 C 95 % 1005,9 hPa 0,2 l/m 10,1 km/h (2 Bft) S-SW 212 0 min 0,000 mm 0,0 UV-I 0 W/m 0,8 C -1,9 C 17,7 km/h (3 Bft) 100,00 %
19.01.2018 02:42 1,4 C 3,3 C 95 % 1005,8 hPa 0,0 l/m 10,5 km/h (2 Bft) SW 235 0 min 0,000 mm 0,0 UV-I 0 W/m 0,7 C -2,3 C 16,1 km/h (3 Bft) 100,00 %
19.01.2018 02:44 1,4 C 3,9 C 95 % 1005,6 hPa 0,2 l/m 11,1 km/h (2 Bft) SW 221 0 min 0,000 mm 0,0 UV-I 0 W/m 0,7 C -2,7 C 17,7 km/h (3 Bft) 97,87 %
19.01.2018 02:46 1,4 C 3,3 C 95 % 1005,5 hPa 0,0 l/m 10,2 km/h (2 Bft) SW 236 0 min 0,000 mm 0,0 UV-I 0 W/m 0,7 C -2,1 C 17,7 km/h (3 Bft) 97,87 %
19.01.2018 02:48 1,4 C 3,9 C 96 % 1005,3 hPa 0,0 l/m 9,4 km/h (2 Bft) W-SW 238 0 min 0,000 mm 0,0 UV-I 0 W/m 0,8 C -1,4 C 14,5 km/h (3 Bft) 100,00 %
19.01.2018 02:50 1,4 C 3,9 C 96 % 1005,2 hPa 0,0 l/m 11,9 km/h (2 Bft) W 266 0 min 0,000 mm 0,0 UV-I 0 W/m 0,8 C -3,3 C 16,1 km/h (3 Bft) 100,00 %
19.01.2018 02:52 1,4 C 3,3 C 96 % 1005,1 hPa 0,2 l/m 10,4 km/h (2 Bft) S-SW 213 0 min 0,000 mm 0,0 UV-I 0 W/m 0,8 C -2,2 C 17,7 km/h (3 Bft) 100,00 %
19.01.2018 02:54 1,3 C 3,3 C 96 % 1005,0 hPa 0,0 l/m 9,4 km/h (2 Bft) S 190 0 min 0,000 mm 0,0 UV-I 0 W/m 0,7 C -1,5 C 17,7 km/h (3 Bft) 100,00 %
19.01.2018 02:56 1,3 C 3,3 C 96 % 1005,1 hPa 0,2 l/m 8,6 km/h (2 Bft) SW 218 0 min 0,000 mm 0,0 UV-I 0 W/m 0,7 C -0,8 C 14,5 km/h (3 Bft) 100,00 %
19.01.2018 02:58 1,3 C 3,3 C 96 % 1005,1 hPa 0,0 l/m 7,8 km/h (2 Bft) SW 227 0 min 0,000 mm 0,0 UV-I 0 W/m 0,7 C -0,1 C 14,5 km/h (3 Bft) 100,00 %
19.01.2018 03:00 1,3 C 3,3 C 96 % 1005,2 hPa 0,0 l/m 8,2 km/h (2 Bft) W-SW 240 0 min 0,000 mm 0,0 UV-I 0 W/m 0,7 C -0,5 C 14,5 km/h (3 Bft) 100,00 %
19.01.2018 03:02 1,3 C 3,3 C 96 % 1005,2 hPa 0,0 l/m 9,7 km/h (2 Bft) W-SW 257 0 min 0,000 mm 0,0 UV-I 0 W/m 0,7 C -1,8 C 12,9 km/h (3 Bft) 100,00 %
19.01.2018 03:04 1,3 C 3,9 C 96 % 1005,4 hPa 0,2 l/m 10,7 km/h (2 Bft) SW 230 0 min 0,000 mm 0,0 UV-I 0 W/m 0,7 C -2,6 C 14,5 km/h (3 Bft) 100,00 %
19.01.2018 03:06 1,3 C 3,9 C 96 % 1005,4 hPa 0,0 l/m 10,0 km/h (2 Bft) W-SW 239 0 min 0,000 mm 0,0 UV-I 0 W/m 0,7 C -2,0 C 16,1 km/h (3 Bft) 100,00 %
19.01.2018 03:08 1,4 C 3,9 C 96 % 1005,5 hPa 0,2 l/m 14,3 km/h (3 Bft) W-SW 251 0 min 0,000 mm 0,0 UV-I 0 W/m 0,8 C -4,9 C 20,9 km/h (4 Bft) 97,87 %
19.01.2018 03:10 1,4 C 3,3 C 96 % 1005,6 hPa 0,0 l/m 12,4 km/h (3 Bft) W 268 0 min 0,000 mm 0,0 UV-I 0 W/m 0,8 C -3,7 C 17,7 km/h (3 Bft) 100,00 %
19.01.2018 03:12 1,5 C 3,3 C 96 % 1005,7 hPa 0,0 l/m 12,2 km/h (2 Bft) W-SW 242 0 min 0,000 mm 0,0 UV-I 0 W/m 0,9 C -3,4 C 17,7 km/h (3 Bft) 100,00 %
19.01.2018 03:14 1,6 C 3,3 C 96 % 1005,7 hPa 0,0 l/m 11,3 km/h (2 Bft) W-SW 254 0 min 0,000 mm 0,0 UV-I 0 W/m 1,0 C -2,7 C 16,1 km/h (3 Bft) 100,00 %
19.01.2018 03:16 1,6 C 3,3 C 96 % 1005,6 hPa 0,0 l/m 10,6 km/h (2 Bft) W 270 0 min 0,000 mm 0,0 UV-I 0 W/m 1,0 C -2,1 C 16,1 km/h (3 Bft) 98,00 %
19.01.2018 03:18 1,6 C 3,3 C 96 % 1005,5 hPa 0,0 l/m 8,8 km/h (2 Bft) W-SW 258 0 min 0,000 mm 0,0 UV-I 0 W/m 1,0 C -0,7 C 11,3 km/h (2 Bft) 100,00 %
19.01.2018 03:20 1,6 C 3,3 C 96 % 1005,5 hPa 0,0 l/m 6,2 km/h (2 Bft) W 263 0 min 0,000 mm 0,0 UV-I 0 W/m 1,0 C 1,6 C 9,7 km/h (2 Bft) 100,00 %
19.01.2018 03:22 1,6 C 3,3 C 96 % 1005,4 hPa 0,0 l/m 7,2 km/h (2 Bft) W 262 0 min 0,000 mm 0,0 UV-I 0 W/m 1,0 C 0,8 C 12,9 km/h (3 Bft) 100,00 %
19.01.2018 03:24 1,6 C 3,9 C 96 % 1005,3 hPa 0,0 l/m 7,4 km/h (2 Bft) W 262 0 min 0,000 mm 0,0 UV-I 0 W/m 1,0 C 0,6 C 12,9 km/h (3 Bft) 97,87 %
19.01.2018 03:26 1,7 C 3,9 C 96 % 1005,3 hPa 0,0 l/m 7,4 km/h (2 Bft) SW 225 0 min 0,000 mm 0,0 UV-I 0 W/m 1,1 C 0,7 C 12,9 km/h (3 Bft) 98,00 %
19.01.2018 03:28 1,7 C 3,9 C 96 % 1005,3 hPa 0,0 l/m 5,6 km/h (1 Bft) SW 236 0 min 0,000 mm 0,0 UV-I 0 W/m 1,1 C 1,7 C 8,0 km/h (2 Bft) 95,74 %
19.01.2018 03:30 1,7 C 3,9 C 96 % 1005,3 hPa 0,2 l/m 4,9 km/h (1 Bft) SW 222 0 min 0,000 mm 0,0 UV-I 0 W/m 1,1 C 1,7 C 6,4 km/h (2 Bft) 100,00 %
19.01.2018 03:32 1,7 C 3,9 C 96 % 1005,3 hPa 0,0 l/m 4,3 km/h (1 Bft) SW 217 0 min 0,000 mm 0,0 UV-I 0 W/m 1,1 C 1,7 C 8,0 km/h (2 Bft) 100,00 %
19.01.2018 03:35 1,7 C 3,9 C 96 % 1005,3 hPa 0,0 l/m 5,4 km/h (1 Bft) SW 229 0 min 0,000 mm 0,0 UV-I 0 W/m 1,1 C 1,7 C 8,0 km/h (2 Bft) 98,57 %
19.01.2018 03:36 1,7 C 3,9 C 96 % 1005,3 hPa 0,0 l/m 7,2 km/h (2 Bft) SW 226 0 min 0,000 mm 0,0 UV-I 0 W/m 1,1 C 0,9 C 9,7 km/h (2 Bft) 100,00 %
19.01.2018 03:38 1,8 C 3,9 C 96 % 1005,3 hPa 0,0 l/m 5,5 km/h (1 Bft) SW 222 0 min 0,000 mm 0,0 UV-I 0 W/m 1,2 C 1,8 C 8,0 km/h (2 Bft) 95,74 %
19.01.2018 03:40 1,8 C 3,9 C 96 % 1005,3 hPa 0,0 l/m 6,9 km/h (2 Bft) S-SW 213 0 min 0,000 mm 0,0 UV-I 0 W/m 1,2 C 1,3 C 9,7 km/h (2 Bft) 97,87 %
19.01.2018 03:42 1,8 C 3,9 C 96 % 1005,2 hPa 0,0 l/m 7,3 km/h (2 Bft) S-SW 198 0 min 0,000 mm 0,0 UV-I 0 W/m 1,2 C 0,9 C 9,7 km/h (2 Bft) 98,00 %
19.01.2018 03:44 1,8 C 3,9 C 96 % 1005,2 hPa 0,0 l/m 7,2 km/h (2 Bft) SW 214 0 min 0,000 mm 0,0 UV-I 0 W/m 1,2 C 1,0 C 9,7 km/h (2 Bft) 97,87 %
19.01.2018 03:46 1,8 C 3,9 C 96 % 1005,1 hPa 0,0 l/m 8,0 km/h (2 Bft) SW 234 0 min 0,000 mm 0,0 UV-I 0 W/m 1,2 C 0,2 C 14,5 km/h (3 Bft) 95,74 %
19.01.2018 03:48 1,8 C 3,9 C 96 % 1005,1 hPa 0,0 l/m 9,0 km/h (2 Bft) S-SW 213 0 min 0,000 mm 0,0 UV-I 0 W/m 1,2 C -0,6 C 14,5 km/h (3 Bft) 91,49 %
19.01.2018 03:50 1,9 C 3,9 C 96 % 1005,0 hPa 0,0 l/m 7,3 km/h (2 Bft) S-SW 200 0 min 0,000 mm 0,0 UV-I 0 W/m 1,3 C 1,0 C 11,3 km/h (2 Bft) 97,87 %
19.01.2018 03:52 1,9 C 3,9 C 96 % 1005,0 hPa 0,0 l/m 8,3 km/h (2 Bft) S-SW 210 0 min 0,000 mm 0,0 UV-I 0 W/m 1,3 C 0,1 C 12,9 km/h (3 Bft) 97,87 %
19.01.2018 03:54 2,0 C 3,9 C 96 % 1005,0 hPa 0,0 l/m 8,1 km/h (2 Bft) S-SW 211 0 min 0,000 mm 0,0 UV-I 0 W/m 1,4 C 0,4 C 14,5 km/h (3 Bft) 94,44 %
19.01.2018 03:56 2,2 C 3,9 C 96 % 1005,0 hPa 0,0 l/m 12,2 km/h (2 Bft) S 184 0 min 0,000 mm 0,0 UV-I 0 W/m 1,6 C -2,6 C 17,7 km/h (3 Bft) 97,37 %
19.01.2018 03:58 2,3 C 3,9 C 96 % 1005,0 hPa 0,0 l/m 11,6 km/h (2 Bft) W-SW 239 0 min 0,000 mm 0,0 UV-I 0 W/m 1,7 C -2,1 C 19,3 km/h (3 Bft) 98,39 %
19.01.2018 04:00 2,4 C 3,9 C 96 % 1005,1 hPa 0,0 l/m 13,5 km/h (3 Bft) SW 223 0 min 0,000 mm 0,0 UV-I 0 W/m 1,8 C -3,2 C 20,9 km/h (4 Bft) 93,62 %
19.01.2018 04:02 2,6 C 3,9 C 96 % 1005,1 hPa 0,2 l/m 13,7 km/h (3 Bft) SW 227 0 min 0,000 mm 0,0 UV-I 0 W/m 2,0 C -3,1 C 19,3 km/h (3 Bft) 96,00 %
19.01.2018 04:04 2,7 C 3,3 C 95 % 1005,0 hPa 0,0 l/m 17,8 km/h (3 Bft) S-SW 203 0 min 0,000 mm 0,0 UV-I 0 W/m 2,0 C -5,1 C 25,7 km/h (4 Bft) 96,00 %
19.01.2018 04:06 2,8 C 3,9 C 95 % 1004,9 hPa 0,0 l/m 17,2 km/h (3 Bft) S 170 0 min 0,000 mm 0,0 UV-I 0 W/m 2,1 C -4,7 C 27,4 km/h (4 Bft) 95,74 %
19.01.2018 04:08 2,8 C 3,3 C 95 % 1004,9 hPa 0,0 l/m 16,1 km/h (3 Bft) SW 223 0 min 0,000 mm 0,0 UV-I 0 W/m 2,1 C -4,2 C 27,4 km/h (4 Bft) 93,62 %
19.01.2018 04:10 2,9 C 3,3 C 95 % 1004,9 hPa 0,0 l/m 16,5 km/h (3 Bft) S-SW 200 0 min 0,000 mm 0,0 UV-I 0 W/m 2,2 C -4,3 C 30,6 km/h (5 Bft) 94,87 %
19.01.2018 04:12 2,9 C 3,3 C 95 % 1004,9 hPa 0,0 l/m 16,2 km/h (3 Bft) W-SW 250 0 min 0,000 mm 0,0 UV-I 0 W/m 2,2 C -4,1 C 24,1 km/h (4 Bft) 95,74 %
19.01.2018 04:14 2,9 C 3,3 C 94 % 1005,0 hPa 0,0 l/m 17,7 km/h (3 Bft) W 263 0 min 0,000 mm 0,0 UV-I 0 W/m 2,0 C -4,8 C 27,4 km/h (4 Bft) 93,62 %
19.01.2018 04:16 2,9 C 3,3 C 94 % 1005,1 hPa 0,0 l/m 16,8 km/h (3 Bft) W-SW 254 0 min 0,000 mm 0,0 UV-I 0 W/m 2,0 C -4,4 C 22,5 km/h (4 Bft) 91,49 %
19.01.2018 04:18 2,9 C 3,3 C 94 % 1005,1 hPa 0,0 l/m 15,4 km/h (3 Bft) SW 229 0 min 0,000 mm 0,0 UV-I 0 W/m 2,0 C -3,7 C 22,5 km/h (4 Bft) 93,62 %
19.01.2018 04:20 2,9 C 3,3 C 94 % 1005,0 hPa 0,0 l/m 14,2 km/h (3 Bft) SW 221 0 min 0,000 mm 0,0 UV-I 0 W/m 2,0 C -3,0 C 24,1 km/h (4 Bft) 94,00 %
19.01.2018 04:22 2,8 C 3,9 C 94 % 1004,9 hPa 0,0 l/m 19,4 km/h (3 Bft) SW 231 0 min 0,000 mm 0,0 UV-I 0 W/m 1,9 C -5,8 C 27,4 km/h (4 Bft) 93,88 %
19.01.2018 04:24 2,8 C 3,9 C 94 % 1004,9 hPa 0,0 l/m 14,8 km/h (3 Bft) S-SW 213 0 min 0,000 mm 0,0 UV-I 0 W/m 1,9 C -3,5 C 24,1 km/h (4 Bft) 96,00 %
19.01.2018 04:26 2,8 C 3,9 C 94 % 1004,9 hPa 0,0 l/m 17,2 km/h (3 Bft) W-SW 246 0 min 0,000 mm 0,0 UV-I 0 W/m 1,9 C -4,7 C 25,7 km/h (4 Bft) 95,74 %
19.01.2018 04:28 2,8 C 3,9 C 94 % 1004,8 hPa 0,2 l/m 20,4 km/h (4 Bft) SW 232 0 min 0,000 mm 0,0 UV-I 0 W/m 1,9 C -6,2 C 29,0 km/h (5 Bft) 95,74 %
19.01.2018 04:30 2,8 C 3,9 C 94 % 1004,8 hPa 0,0 l/m 14,7 km/h (3 Bft) SW 228 0 min 0,000 mm 0,0 UV-I 0 W/m 1,9 C -3,4 C 20,9 km/h (4 Bft) 95,74 %
19.01.2018 04:32 2,7 C 3,9 C 94 % 1004,7 hPa 0,0 l/m 17,3 km/h (3 Bft) W-SW 245 0 min 0,000 mm 0,0 UV-I 0 W/m 1,8 C -4,9 C 27,4 km/h (4 Bft) 95,74 %
19.01.2018 04:34 2,7 C 3,9 C 94 % 1004,9 hPa 0,0 l/m 17,1 km/h (3 Bft) SW 236 0 min 0,000 mm 0,0 UV-I 0 W/m 1,8 C -4,8 C 24,1 km/h (4 Bft) 94,74 %
19.01.2018 04:36 2,7 C 3,9 C 94 % 1004,9 hPa 0,2 l/m 17,0 km/h (3 Bft) SW 229 0 min 0,000 mm 0,0 UV-I 0 W/m 1,8 C -4,8 C 30,6 km/h (5 Bft) 95,74 %
19.01.2018 04:38 2,7 C 3,9 C 94 % 1004,9 hPa 0,0 l/m 14,7 km/h (3 Bft) S-SW 197 0 min 0,000 mm 0,0 UV-I 0 W/m 1,8 C -3,5 C 22,5 km/h (4 Bft) 95,74 %
19.01.2018 04:40 2,7 C 3,9 C 94 % 1004,7 hPa 0,0 l/m 17,1 km/h (3 Bft) SW 225 0 min 0,000 mm 0,0 UV-I 0 W/m 1,8 C -4,8 C 25,7 km/h (4 Bft) 95,74 %
19.01.2018 04:42 2,6 C 3,9 C 94 % 1004,7 hPa 0,0 l/m 15,1 km/h (3 Bft) SW 221 0 min 0,000 mm 0,0 UV-I 0 W/m 1,7 C -3,9 C 20,9 km/h (4 Bft) 96,30 %
19.01.2018 04:44 2,6 C 3,3 C 94 % 1004,7 hPa 0,0 l/m 14,6 km/h (3 Bft) SW 227 0 min 0,000 mm 0,0 UV-I 0 W/m 1,7 C -3,6 C 22,5 km/h (4 Bft) 97,87 %
19.01.2018 04:46 2,6 C 3,3 C 94 % 1004,7 hPa 0,0 l/m 14,2 km/h (3 Bft) S-SW 209 0 min 0,000 mm 0,0 UV-I 0 W/m 1,7 C -3,4 C 22,5 km/h (4 Bft) 100,00 %
19.01.2018 04:48 2,5 C 3,3 C 94 % 1004,7 hPa 0,0 l/m 13,3 km/h (3 Bft) W-SW 250 0 min 0,000 mm 0,0 UV-I 0 W/m 1,6 C -3,0 C 22,5 km/h (4 Bft) 100,00 %
19.01.2018 04:50 2,4 C 3,3 C 94 % 1004,6 hPa 0,2 l/m 19,5 km/h (3 Bft) SW 218 0 min 0,000 mm 0,0 UV-I 0 W/m 1,5 C -6,3 C 33,8 km/h (5 Bft) 100,00 %
19.01.2018 04:52 2,4 C 3,3 C 94 % 1004,6 hPa 0,0 l/m 16,3 km/h (3 Bft) SW 220 0 min 0,000 mm 0,0 UV-I 0 W/m 1,5 C -4,8 C 27,4 km/h (4 Bft) 100,00 %
19.01.2018 04:54 2,4 C 3,3 C 94 % 1004,6 hPa 0,0 l/m 11,1 km/h (2 Bft) W-SW 240 0 min 0,000 mm 0,0 UV-I 0 W/m 1,5 C -1,6 C 16,1 km/h (3 Bft) 100,00 %
19.01.2018 04:56 2,4 C 3,3 C 94 % 1004,6 hPa 0,0 l/m 12,6 km/h (3 Bft) SW 229 0 min 0,000 mm 0,0 UV-I 0 W/m 1,5 C -2,6 C 19,3 km/h (3 Bft) 98,00 %
19.01.2018 04:58 2,4 C 3,3 C 94 % 1004,6 hPa 0,0 l/m 12,3 km/h (3 Bft) W-SW 238 0 min 0,000 mm 0,0 UV-I 0 W/m 1,5 C -2,4 C 19,3 km/h (3 Bft) 100,00 %
19.01.2018 05:00 2,4 C 3,9 C 94 % 1004,4 hPa 0,0 l/m 14,8 km/h (3 Bft) S 189 0 min 0,000 mm 0,0 UV-I 0 W/m 1,5 C -4,0 C 22,5 km/h (4 Bft) 100,00 %
19.01.2018 05:02 2,4 C 3,9 C 94 % 1004,4 hPa 0,0 l/m 14,0 km/h (3 Bft) SW 236 0 min 0,000 mm 0,0 UV-I 0 W/m 1,5 C -3,5 C 22,5 km/h (4 Bft) 97,92 %
19.01.2018 05:04 2,4 C 3,9 C 94 % 1004,4 hPa 0,0 l/m 12,6 km/h (3 Bft) SW 215 0 min 0,000 mm 0,0 UV-I 0 W/m 1,5 C -2,6 C 16,1 km/h (3 Bft) 97,87 %
19.01.2018 05:06 2,3 C 3,3 C 94 % 1004,6 hPa 0,2 l/m 12,7 km/h (3 Bft) SW 219 0 min 0,000 mm 0,0 UV-I 0 W/m 1,4 C -2,8 C 19,3 km/h (3 Bft) 97,87 %
19.01.2018 05:08 2,3 C 3,9 C 94 % 1004,5 hPa 0,0 l/m 12,6 km/h (3 Bft) S-SW 207 0 min 0,000 mm 0,0 UV-I 0 W/m 1,4 C -2,7 C 24,1 km/h (4 Bft) 100,00 %
19.01.2018 05:10 2,4 C 3,3 C 95 % 1004,6 hPa 0,0 l/m 14,7 km/h (3 Bft) S-SW 209 0 min 0,000 mm 0,0 UV-I 0 W/m 1,7 C -3,9 C 22,5 km/h (4 Bft) 98,00 %
19.01.2018 05:12 2,3 C 3,3 C 94 % 1004,5 hPa 0,0 l/m 10,8 km/h (2 Bft) SW 234 0 min 0,000 mm 0,0 UV-I 0 W/m 1,4 C -1,5 C 19,3 km/h (3 Bft) 97,37 %
19.01.2018 05:14 2,3 C 3,9 C 95 % 1004,4 hPa 0,0 l/m 12,5 km/h (3 Bft) S 186 0 min 0,000 mm 0,0 UV-I 0 W/m 1,6 C -2,7 C 19,3 km/h (3 Bft) 100,00 %
19.01.2018 05:16 2,3 C 3,9 C 94 % 1004,4 hPa 0,0 l/m 10,7 km/h (2 Bft) S-SW 200 0 min 0,000 mm 0,0 UV-I 0 W/m 1,4 C -1,4 C 16,1 km/h (3 Bft) 100,00 %
19.01.2018 05:18 2,3 C 3,9 C 95 % 1004,5 hPa 0,0 l/m 12,9 km/h (3 Bft) S-SW 194 0 min 0,000 mm 0,0 UV-I 0 W/m 1,6 C -2,9 C 22,5 km/h (4 Bft) 100,00 %
19.01.2018 05:20 2,3 C 3,3 C 95 % 1004,4 hPa 0,0 l/m 12,5 km/h (3 Bft) S 185 0 min 0,000 mm 0,0 UV-I 0 W/m 1,6 C -2,7 C 19,3 km/h (3 Bft) 100,00 %
19.01.2018 05:22 2,3 C 3,3 C 95 % 1004,3 hPa 0,0 l/m 7,6 km/h (2 Bft) S-SW 201 0 min 0,000 mm 0,0 UV-I 0 W/m 1,6 C 1,1 C 12,9 km/h (3 Bft) 98,00 %
19.01.2018 05:24 2,3 C 3,3 C 95 % 1004,3 hPa 0,0 l/m 7,6 km/h (2 Bft) S-SW 209 0 min 0,000 mm 0,0 UV-I 0 W/m 1,6 C 1,1 C 14,5 km/h (3 Bft) 97,22 %
19.01.2018 05:26 2,3 C 3,3 C 95 % 1004,3 hPa 0,0 l/m 8,2 km/h (2 Bft) S-SW 207 0 min 0,000 mm 0,0 UV-I 0 W/m 1,6 C 0,6 C 14,5 km/h (3 Bft) 98,00 %
19.01.2018 05:28 2,3 C 3,3 C 95 % 1004,3 hPa 0,2 l/m 8,6 km/h (2 Bft) S-SW 202 0 min 0,000 mm 0,0 UV-I 0 W/m 1,6 C 0,2 C 12,9 km/h (3 Bft) 100,00 %
19.01.2018 05:30 2,2 C 3,9 C 95 % 1004,4 hPa 0,0 l/m 8,7 km/h (2 Bft) S-SW 204 0 min 0,000 mm 0,0 UV-I 0 W/m 1,5 C 0,0 C 14,5 km/h (3 Bft) 98,00 %
19.01.2018 05:32 2,2 C 3,9 C 95 % 1004,3 hPa 0,0 l/m 8,0 km/h (2 Bft) S-SW 212 0 min 0,000 mm 0,0 UV-I 0 W/m 1,5 C 0,7 C 14,5 km/h (3 Bft) 97,87 %
19.01.2018 05:34 2,2 C 3,3 C 95 % 1004,3 hPa 0,0 l/m 9,1 km/h (2 Bft) S-SW 202 0 min 0,000 mm 0,0 UV-I 0 W/m 1,5 C -0,3 C 16,1 km/h (3 Bft) 97,87 %
19.01.2018 05:36 2,2 C 3,3 C 95 % 1004,2 hPa 0,0 l/m 7,0 km/h (2 Bft) SW 221 0 min 0,000 mm 0,0 UV-I 0 W/m 1,5 C 1,6 C 14,5 km/h (3 Bft) 97,87 %
19.01.2018 05:38 2,2 C 3,3 C 95 % 1004,2 hPa 0,0 l/m 7,7 km/h (2 Bft) S-SW 202 0 min 0,000 mm 0,0 UV-I 0 W/m 1,5 C 0,9 C 11,3 km/h (2 Bft) 97,87 %
19.01.2018 05:40 2,2 C 3,3 C 95 % 1004,2 hPa 0,0 l/m 5,7 km/h (1 Bft) SW 227 0 min 0,000 mm 0,0 UV-I 0 W/m 1,5 C 2,2 C 9,7 km/h (2 Bft) 100,00 %
19.01.2018 05:42 2,2 C 3,3 C 95 % 1004,2 hPa 0,0 l/m 6,3 km/h (2 Bft) S-SW 197 0 min 0,000 mm 0,0 UV-I 0 W/m 1,5 C 2,2 C 9,7 km/h (2 Bft) 98,00 %
19.01.2018 05:44 2,2 C 3,3 C 95 % 1004,2 hPa 0,0 l/m 7,3 km/h (2 Bft) S-SW 212 0 min 0,000 mm 0,0 UV-I 0 W/m 1,5 C 1,3 C 11,3 km/h (2 Bft) 97,87 %
19.01.2018 05:46 2,2 C 3,3 C 95 % 1004,3 hPa 0,0 l/m 8,1 km/h (2 Bft) SW 225 0 min 0,000 mm 0,0 UV-I 0 W/m 1,5 C 0,6 C 11,3 km/h (2 Bft) 100,00 %
19.01.2018 05:48 2,2 C 3,3 C 95 % 1004,2 hPa 0,0 l/m 8,3 km/h (2 Bft) S-SW 211 0 min 0,000 mm 0,0 UV-I 0 W/m 1,5 C 0,4 C 11,3 km/h (2 Bft) 97,37 %
19.01.2018 05:50 2,2 C 3,9 C 95 % 1004,2 hPa 0,0 l/m 7,5 km/h (2 Bft) S-SW 211 0 min 0,000 mm 0,0 UV-I 0 W/m 1,5 C 1,1 C 9,7 km/h (2 Bft) 97,14 %
19.01.2018 05:52 2,2 C 3,3 C 95 % 1004,1 hPa 0,0 l/m 6,7 km/h (2 Bft) S-SW 211 0 min 0,000 mm 0,0 UV-I 0 W/m 1,5 C 1,9 C 11,3 km/h (2 Bft) 98,39 %
19.01.2018 05:54 2,2 C 3,3 C 95 % 1004,2 hPa 0,2 l/m 7,2 km/h (2 Bft) W-SW 248 0 min 0,000 mm 0,0 UV-I 0 W/m 1,5 C 1,4 C 12,9 km/h (3 Bft) 95,74 %
19.01.2018 05:56 2,2 C 3,9 C 95 % 1004,2 hPa 0,0 l/m 7,4 km/h (2 Bft) SW 225 0 min 0,000 mm 0,0 UV-I 0 W/m 1,5 C 1,2 C 11,3 km/h (2 Bft) 100,00 %
19.01.2018 05:58 2,2 C 3,9 C 95 % 1004,2 hPa 0,0 l/m 7,5 km/h (2 Bft) SW 214 0 min 0,000 mm 0,0 UV-I 0 W/m 1,5 C 1,1 C 11,3 km/h (2 Bft) 100,00 %
19.01.2018 06:00 2,2 C 3,9 C 95 % 1004,1 hPa 0,0 l/m 7,0 km/h (2 Bft) SW 217 0 min 0,000 mm 0,0 UV-I 0 W/m 1,5 C 1,6 C 11,3 km/h (2 Bft) 100,00 %
19.01.2018 06:02 2,2 C 3,9 C 95 % 1004,1 hPa 0,0 l/m 7,6 km/h (2 Bft) SW 220 0 min 0,000 mm 0,0 UV-I 0 W/m 1,5 C 1,0 C 11,3 km/h (2 Bft) 100,00 %
19.01.2018 06:04 2,3 C 3,9 C 96 % 1004,1 hPa 0,0 l/m 7,3 km/h (2 Bft) SW 221 0 min 0,000 mm 0,0 UV-I 0 W/m 1,7 C 1,4 C 14,5 km/h (3 Bft) 100,00 %
19.01.2018 06:06 2,3 C 3,9 C 96 % 1004,2 hPa 0,0 l/m 7,7 km/h (2 Bft) SW 221 0 min 0,000 mm 0,0 UV-I 0 W/m 1,7 C 1,0 C 11,3 km/h (2 Bft) 96,00 %
19.01.2018 06:08 2,3 C 3,9 C 95 % 1004,2 hPa 0,0 l/m 6,4 km/h (2 Bft) SW 223 0 min 0,000 mm 0,0 UV-I 0 W/m 1,6 C 2,3 C 11,3 km/h (2 Bft) 95,74 %
19.01.2018 06:10 2,3 C 3,9 C 96 % 1004,2 hPa 0,0 l/m 7,7 km/h (2 Bft) SW 218 0 min 0,000 mm 0,0 UV-I 0 W/m 1,7 C 1,0 C 14,5 km/h (3 Bft) 95,74 %
19.01.2018 06:12 2,3 C 3,9 C 96 % 1004,2 hPa 0,0 l/m 7,6 km/h (2 Bft) SW 220 0 min 0,000 mm 0,0 UV-I 0 W/m 1,7 C 1,1 C 12,9 km/h (3 Bft) 97,37 %
19.01.2018 06:14 2,3 C 3,9 C 96 % 1004,2 hPa 0,0 l/m 8,6 km/h (2 Bft) SW 217 0 min 0,000 mm 0,0 UV-I 0 W/m 1,7 C 0,2 C 14,5 km/h (3 Bft) 96,00 %
19.01.2018 06:16 2,4 C 3,9 C 96 % 1004,2 hPa 0,0 l/m 8,0 km/h (2 Bft) W-SW 238 0 min 0,000 mm 0,0 UV-I 0 W/m 1,8 C 0,9 C 11,3 km/h (2 Bft) 94,00 %
19.01.2018 06:18 2,4 C 3,9 C 96 % 1004,3 hPa 0,0 l/m 8,8 km/h (2 Bft) W-SW 238 0 min 0,000 mm 0,0 UV-I 0 W/m 1,8 C 0,2 C 12,9 km/h (3 Bft) 95,74 %
19.01.2018 06:20 2,5 C 3,3 C 96 % 1004,3 hPa 0,2 l/m 9,1 km/h (2 Bft) SW 231 0 min 0,000 mm 0,0 UV-I 0 W/m 1,9 C 0,0 C 19,3 km/h (3 Bft) 97,87 %
19.01.2018 06:22 2,6 C 3,9 C 96 % 1004,3 hPa 0,0 l/m 9,6 km/h (2 Bft) W-SW 245 0 min 0,000 mm 0,0 UV-I 0 W/m 2,0 C -0,3 C 14,5 km/h (3 Bft) 95,74 %
19.01.2018 06:24 2,6 C 3,9 C 96 % 1004,4 hPa 0,0 l/m 11,8 km/h (2 Bft) S-SW 212 0 min 0,000 mm 0,0 UV-I 0 W/m 2,0 C -1,9 C 19,3 km/h (3 Bft) 97,87 %
19.01.2018 06:26 2,7 C 3,9 C 95 % 1004,4 hPa 0,0 l/m 13,2 km/h (3 Bft) S-SW 211 0 min 0,000 mm 0,0 UV-I 0 W/m 2,0 C -2,7 C 17,7 km/h (3 Bft) 97,87 %
19.01.2018 06:28 2,8 C 3,3 C 95 % 1004,4 hPa 0,0 l/m 14,4 km/h (3 Bft) SW 217 0 min 0,000 mm 0,0 UV-I 0 W/m 2,1 C -3,3 C 24,1 km/h (4 Bft) 97,37 %
19.01.2018 06:30 2,9 C 3,3 C 95 % 1004,4 hPa 0,0 l/m 15,0 km/h (3 Bft) W 263 0 min 0,000 mm 0,0 UV-I 0 W/m 2,2 C -3,5 C 20,9 km/h (4 Bft) 98,00 %
19.01.2018 06:32 3,0 C 3,3 C 95 % 1004,4 hPa 0,0 l/m 16,1 km/h (3 Bft) SW 217 0 min 0,000 mm 0,0 UV-I 0 W/m 2,3 C -3,9 C 25,7 km/h (4 Bft) 97,87 %
19.01.2018 06:34 3,1 C 3,3 C 95 % 1004,3 hPa 0,0 l/m 15,1 km/h (3 Bft) SW 225 0 min 0,000 mm 0,0 UV-I 0 W/m 2,4 C -3,3 C 29,0 km/h (5 Bft) 97,87 %
19.01.2018 06:36 3,1 C 3,3 C 95 % 1004,4 hPa 0,0 l/m 18,0 km/h (3 Bft) W-SW 237 0 min 0,000 mm 0,0 UV-I 0 W/m 2,4 C -4,7 C 30,6 km/h (5 Bft) 94,44 %
19.01.2018 06:38 3,1 C 3,3 C 95 % 1004,4 hPa 0,0 l/m 19,3 km/h (3 Bft) S-SW 211 0 min 0,000 mm 0,0 UV-I 0 W/m 2,4 C -5,3 C 30,6 km/h (5 Bft) 96,72 %
19.01.2018 06:40 3,2 C 3,9 C 95 % 1004,5 hPa 0,0 l/m 22,4 km/h (4 Bft) SW 229 0 min 0,000 mm 0,0 UV-I 0 W/m 2,5 C -6,5 C 35,4 km/h (5 Bft) 97,87 %
19.01.2018 06:42 3,2 C 3,3 C 94 % 1004,5 hPa 0,0 l/m 18,6 km/h (3 Bft) W-SW 237 0 min 0,000 mm 0,0 UV-I 0 W/m 2,3 C -4,9 C 27,4 km/h (4 Bft) 96,00 %
19.01.2018 06:44 3,2 C 3,3 C 94 % 1004,5 hPa 0,0 l/m 18,3 km/h (3 Bft) S-SW 213 0 min 0,000 mm 0,0 UV-I 0 W/m 2,3 C -4,8 C 29,0 km/h (5 Bft) 94,44 %
19.01.2018 06:46 3,2 C 3,3 C 94 % 1004,5 hPa 0,2 l/m 20,1 km/h (4 Bft) W-SW 245 0 min 0,000 mm 0,0 UV-I 0 W/m 2,3 C -5,5 C 33,8 km/h (5 Bft) 95,74 %
19.01.2018 06:48 3,2 C 3,3 C 94 % 1004,5 hPa 0,0 l/m 19,6 km/h (3 Bft) SW 234 0 min 0,000 mm 0,0 UV-I 0 W/m 2,3 C -5,3 C 27,4 km/h (4 Bft) 100,00 %
19.01.2018 06:50 3,2 C 3,3 C 94 % 1004,5 hPa 0,0 l/m 20,7 km/h (4 Bft) SW 230 0 min 0,000 mm 0,0 UV-I 0 W/m 2,3 C -5,8 C 32,2 km/h (5 Bft) 97,87 %
19.01.2018 06:52 3,3 C 3,3 C 94 % 1004,5 hPa 0,0 l/m 21,1 km/h (4 Bft) SW 234 0 min 0,000 mm 0,0 UV-I 0 W/m 2,4 C -5,8 C 30,6 km/h (5 Bft) 97,87 %
19.01.2018 06:54 3,3 C 3,9 C 94 % 1004,5 hPa 0,0 l/m 21,6 km/h (4 Bft) W-SW 241 0 min 0,000 mm 0,0 UV-I 0 W/m 2,4 C -6,0 C 33,8 km/h (5 Bft) 100,00 %
19.01.2018 06:56 3,3 C 3,3 C 94 % 1004,5 hPa 0,0 l/m 24,2 km/h (4 Bft) W-SW 244 0 min 0,000 mm 0,0 UV-I 0 W/m 2,4 C -7,0 C 33,8 km/h (5 Bft) 100,00 %
19.01.2018 06:58 3,4 C 3,3 C 93 % 1004,4 hPa 0,0 l/m 21,8 km/h (4 Bft) W-SW 238 0 min 0,000 mm 0,0 UV-I 0 W/m 2,4 C -6,0 C 30,6 km/h (5 Bft) 100,00 %
19.01.2018 07:00 3,4 C 3,9 C 93 % 1004,5 hPa 0,0 l/m 26,2 km/h (4 Bft) SW 231 0 min 0,000 mm 0,0 UV-I 0 W/m 2,4 C -7,5 C 37,0 km/h (5 Bft) 100,00 %
19.01.2018 07:02 3,4 C 3,3 C 93 % 1004,5 hPa 0,0 l/m 19,8 km/h (3 Bft) W-SW 237 0 min 0,000 mm 0,0 UV-I 0 W/m 2,4 C -5,2 C 33,8 km/h (5 Bft) 100,00 %
19.01.2018 07:04 3,4 C 3,3 C 93 % 1004,5 hPa 0,0 l/m 22,4 km/h (4 Bft) W-SW 241 0 min 0,000 mm 0,0 UV-I 0 W/m 2,4 C -6,2 C 35,4 km/h (5 Bft) 93,62 %
19.01.2018 07:06 3,4 C 3,3 C 93 % 1004,6 hPa 0,0 l/m 22,5 km/h (4 Bft) W-SW 242 0 min 0,000 mm 0,0 UV-I 0 W/m 2,4 C -6,2 C 33,8 km/h (5 Bft) 100,00 %
19.01.2018 07:08 3,4 C 3,3 C 93 % 1004,7 hPa 0,0 l/m 20,7 km/h (4 Bft) SW 224 0 min 0,000 mm 0,0 UV-I 0 W/m 2,4 C -5,5 C 37,0 km/h (5 Bft) 97,87 %
19.01.2018 07:10 3,5 C 3,9 C 93 % 1004,7 hPa 0,0 l/m 26,3 km/h (4 Bft) W-SW 254 0 min 0,000 mm 0,0 UV-I 0 W/m 2,5 C -7,4 C 45,1 km/h (6 Bft) 100,00 %
19.01.2018 07:12 3,6 C 3,9 C 93 % 1004,8 hPa 0,0 l/m 23,3 km/h (4 Bft) W-SW 244 0 min 0,000 mm 0,0 UV-I 0 W/m 2,6 C -6,3 C 43,5 km/h (6 Bft) 97,37 %
19.01.2018 07:14 3,6 C 3,9 C 93 % 1004,9 hPa 0,0 l/m 23,3 km/h (4 Bft) W-SW 242 0 min 0,000 mm 0,0 UV-I 0 W/m 2,6 C -6,3 C 41,8 km/h (6 Bft) 97,87 %
19.01.2018 07:16 3,6 C 3,9 C 93 % 1005,0 hPa 0,0 l/m 21,3 km/h (4 Bft) W-SW 257 0 min 0,000 mm 0,0 UV-I 0 W/m 2,6 C -5,5 C 35,4 km/h (5 Bft) 100,00 %
19.01.2018 07:18 3,6 C 3,9 C 93 % 1004,9 hPa 0,0 l/m 21,9 km/h (4 Bft) SW 222 0 min 0,000 mm 0,0 UV-I 0 W/m 2,6 C -5,7 C 35,4 km/h (5 Bft) 100,00 %
19.01.2018 07:20 3,6 C 3,9 C 93 % 1005,1 hPa 0,2 l/m 25,6 km/h (4 Bft) SW 225 0 min 0,000 mm 0,0 UV-I 0 W/m 2,6 C -7,0 C 38,6 km/h (5 Bft) 100,00 %
19.01.2018 07:22 3,5 C 3,9 C 93 % 1005,1 hPa 0,0 l/m 20,6 km/h (4 Bft) W-SW 250 0 min 0,000 mm 0,0 UV-I 0 W/m 2,5 C -5,4 C 32,2 km/h (5 Bft) 100,00 %
19.01.2018 07:24 3,5 C 3,9 C 93 % 1005,2 hPa 0,0 l/m 22,2 km/h (4 Bft) SW 235 0 min 0,000 mm 0,0 UV-I 0 W/m 2,5 C -6,0 C 35,4 km/h (5 Bft) 97,87 %
19.01.2018 07:26 3,5 C 3,3 C 93 % 1005,4 hPa 0,0 l/m 24,3 km/h (4 Bft) W-SW 240 0 min 0,000 mm 0,0 UV-I 0 W/m 2,5 C -6,7 C 33,8 km/h (5 Bft) 100,00 %
19.01.2018 07:28 3,5 C 3,3 C 93 % 1005,4 hPa 0,0 l/m 22,3 km/h (4 Bft) W-SW 238 0 min 0,000 mm 0,0 UV-I 0 W/m 2,5 C -6,0 C 38,6 km/h (5 Bft) 100,00 %
19.01.2018 07:30 3,4 C 3,3 C 93 % 1005,5 hPa 0,0 l/m 18,8 km/h (3 Bft) W-SW 251 0 min 0,000 mm 0,0 UV-I 0 W/m 2,4 C -4,7 C 29,0 km/h (5 Bft) 93,62 %
19.01.2018 07:32 3,4 C 3,9 C 93 % 1005,6 hPa 0,0 l/m 21,0 km/h (4 Bft) W-SW 237 0 min 0,000 mm 0,0 UV-I 0 W/m 2,4 C -5,6 C 32,2 km/h (5 Bft) 100,00 %
19.01.2018 07:34 3,4 C 3,3 C 93 % 1005,6 hPa 0,2 l/m 17,0 km/h (3 Bft) W-SW 240 0 min 0,000 mm 0,0 UV-I 0 W/m 2,4 C -3,9 C 25,7 km/h (4 Bft) 100,00 %
19.01.2018 07:36 3,4 C 3,3 C 93 % 1005,7 hPa 0,0 l/m 21,1 km/h (4 Bft) SW 219 0 min 0,000 mm 0,0 UV-I 0 W/m 2,4 C -5,7 C 32,2 km/h (5 Bft) 100,00 %
19.01.2018 07:38 3,4 C 3,3 C 93 % 1005,8 hPa 0,0 l/m 15,4 km/h (3 Bft) W-SW 255 0 min 0,000 mm 0,0 UV-I 0 W/m 2,4 C -3,1 C 25,7 km/h (4 Bft) 100,00 %
19.01.2018 07:40 3,4 C 3,3 C 93 % 1005,9 hPa 0,0 l/m 21,2 km/h (4 Bft) W 265 0 min 0,000 mm 0,0 UV-I 0 W/m 2,4 C -5,7 C 30,6 km/h (5 Bft) 100,00 %
19.01.2018 07:42 3,3 C 3,9 C 93 % 1005,9 hPa 0,2 l/m 17,7 km/h (3 Bft) W-SW 240 0 min 0,000 mm 0,0 UV-I 0 W/m 2,3 C -4,3 C 25,7 km/h (4 Bft) 93,62 %
19.01.2018 07:44 3,3 C 3,9 C 94 % 1006,0 hPa 0,0 l/m 18,7 km/h (3 Bft) W-NW 290 0 min 0,000 mm 0,0 UV-I 0 W/m 2,4 C -4,8 C 25,7 km/h (4 Bft) 100,00 %
19.01.2018 07:46 3,3 C 3,9 C 94 % 1006,1 hPa 0,0 l/m 18,5 km/h (3 Bft) S-SW 207 0 min 0,000 mm 0,0 UV-I 2 W/m 2,4 C -4,7 C 27,4 km/h (4 Bft) 98,00 %
19.01.2018 07:48 3,3 C 3,3 C 94 % 1006,1 hPa 0,2 l/m 19,6 km/h (3 Bft) W-SW 258 0 min 0,000 mm 0,0 UV-I 5 W/m 2,4 C -5,2 C 29,0 km/h (5 Bft) 97,87 %
19.01.2018 07:50 3,3 C 3,3 C 94 % 1006,4 hPa 0,0 l/m 18,5 km/h (3 Bft) W-SW 252 0 min 0,000 mm 0,0 UV-I 5 W/m 2,4 C -4,7 C 29,0 km/h (5 Bft) 97,87 %
19.01.2018 07:52 3,3 C 3,3 C 94 % 1006,5 hPa 0,0 l/m 20,3 km/h (4 Bft) W-SW 254 0 min 0,000 mm 0,0 UV-I 5 W/m 2,4 C -5,5 C 29,0 km/h (5 Bft) 95,74 %
19.01.2018 07:54 3,3 C 3,3 C 94 % 1006,3 hPa 0,0 l/m 18,4 km/h (3 Bft) SW 227 0 min 0,000 mm 0,0 UV-I 5 W/m 2,4 C -4,7 C 29,0 km/h (5 Bft) 95,74 %
19.01.2018 07:56 3,3 C 3,9 C 94 % 1006,5 hPa 0,0 l/m 16,6 km/h (3 Bft) W-SW 257 0 min 0,000 mm 0,0 UV-I 5 W/m 2,4 C -3,8 C 22,5 km/h (4 Bft) 97,87 %
19.01.2018 07:58 3,2 C 3,3 C 94 % 1006,6 hPa 0,2 l/m 17,9 km/h (3 Bft) W-SW 245 0 min 0,000 mm 0,0 UV-I 5 W/m 2,3 C -4,6 C 25,7 km/h (4 Bft) 97,44 %
19.01.2018 08:00 3,2 C 3,3 C 94 % 1006,6 hPa 0,0 l/m 16,2 km/h (3 Bft) W-SW 243 0 min 0,025 mm 0,0 UV-I 5 W/m 2,3 C -3,7 C 27,4 km/h (4 Bft) 95,74 %
19.01.2018 08:02 3,2 C 3,3 C 94 % 1006,7 hPa 0,2 l/m 14,9 km/h (3 Bft) W 273 0 min 0,000 mm 0,0 UV-I 5 W/m 2,3 C -3,0 C 22,5 km/h (4 Bft) 98,00 %
19.01.2018 08:04 3,1 C 3,3 C 94 % 1006,7 hPa 0,0 l/m 13,1 km/h (3 Bft) W-SW 249 0 min 0,000 mm 0,0 UV-I 5 W/m 2,2 C -2,1 C 20,9 km/h (4 Bft) 97,87 %
19.01.2018 08:06 3,1 C 3,3 C 94 % 1006,7 hPa 0,0 l/m 15,9 km/h (3 Bft) W-SW 256 0 min 0,000 mm 0,0 UV-I 5 W/m 2,2 C -3,7 C 22,5 km/h (4 Bft) 98,00 %
19.01.2018 08:08 3,1 C 3,9 C 94 % 1006,8 hPa 0,2 l/m 15,5 km/h (3 Bft) W-SW 255 0 min 0,000 mm 0,0 UV-I 5 W/m 2,2 C -3,5 C 22,5 km/h (4 Bft) 97,14 %
19.01.2018 08:10 3,1 C 3,3 C 94 % 1006,8 hPa 0,0 l/m 14,8 km/h (3 Bft) W-SW 245 0 min 0,000 mm 0,0 UV-I 5 W/m 2,2 C -3,1 C 22,5 km/h (4 Bft) 98,00 %
19.01.2018 08:12 3,1 C 3,3 C 94 % 1006,9 hPa 0,0 l/m 14,4 km/h (3 Bft) W-SW 250 0 min 0,000 mm 0,0 UV-I 6 W/m 2,2 C -2,9 C 20,9 km/h (4 Bft) 97,87 %
19.01.2018 08:14 3,1 C 3,9 C 94 % 1006,9 hPa 0,0 l/m 14,4 km/h (3 Bft) W-SW 257 0 min 0,000 mm 0,0 UV-I 7 W/m 2,2 C -2,9 C 20,9 km/h (4 Bft) 98,00 %
19.01.2018 08:16 3,1 C 3,9 C 94 % 1007,0 hPa 0,2 l/m 15,7 km/h (3 Bft) W 265 0 min 0,000 mm 0,0 UV-I 7 W/m 2,2 C -3,6 C 22,5 km/h (4 Bft) 97,87 %
19.01.2018 08:18 3,0 C 3,3 C 95 % 1007,0 hPa 0,0 l/m 16,1 km/h (3 Bft) W-SW 255 0 min 0,000 mm 0,0 UV-I 7 W/m 2,3 C -3,9 C 24,1 km/h (4 Bft) 97,87 %
19.01.2018 08:20 3,0 C 3,3 C 95 % 1007,0 hPa 0,0 l/m 19,0 km/h (3 Bft) W 264 0 min 0,000 mm 0,0 UV-I 7 W/m 2,3 C -5,3 C 25,7 km/h (4 Bft) 91,49 %
19.01.2018 08:22 3,0 C 3,3 C 94 % 1007,1 hPa 0,0 l/m 15,1 km/h (3 Bft) W-SW 252 0 min 0,000 mm 0,0 UV-I 7 W/m 2,1 C -3,4 C 25,7 km/h (4 Bft) 93,62 %
19.01.2018 08:24 3,0 C 3,3 C 94 % 1007,1 hPa 0,0 l/m 19,3 km/h (3 Bft) W 265 0 min 0,000 mm 0,0 UV-I 9 W/m 2,1 C -5,5 C 29,0 km/h (5 Bft) 95,74 %
19.01.2018 08:26 3,0 C 3,3 C 94 % 1007,1 hPa 0,2 l/m 17,3 km/h (3 Bft) W 281 0 min 0,000 mm 0,0 UV-I 10 W/m 2,1 C -4,5 C 24,1 km/h (4 Bft) 94,00 %
19.01.2018 08:28 2,9 C 3,3 C 94 % 1007,3 hPa 0,0 l/m 16,3 km/h (3 Bft) W-SW 237 0 min 0,000 mm 0,0 UV-I 11 W/m 2,0 C -4,2 C 32,2 km/h (5 Bft) 95,74 %
19.01.2018 08:30 2,9 C 3,3 C 94 % 1007,4 hPa 0,0 l/m 17,3 km/h (3 Bft) W-SW 255 0 min 0,000 mm 0,0 UV-I 11 W/m 2,0 C -4,7 C 20,9 km/h (4 Bft) 93,62 %
19.01.2018 08:32 2,9 C 3,3 C 94 % 1007,3 hPa 0,2 l/m 20,3 km/h (4 Bft) W 260 0 min 0,000 mm 0,0 UV-I 11 W/m 2,0 C -6,0 C 29,0 km/h (5 Bft) 93,62 %
19.01.2018 08:34 2,8 C 3,3 C 94 % 1007,3 hPa 0,0 l/m 29,3 km/h (5 Bft) W-SW 238 0 min 0,000 mm 0,0 UV-I 12 W/m 1,9 C -9,3 C 43,5 km/h (6 Bft) 95,74 %
19.01.2018 08:36 2,8 C 3,9 C 94 % 1007,5 hPa 0,0 l/m 25,7 km/h (4 Bft) W 262 0 min 0,000 mm 0,0 UV-I 9 W/m 1,9 C -8,2 C 38,6 km/h (5 Bft) 91,67 %
19.01.2018 08:38 2,8 C 3,9 C 94 % 1007,5 hPa 0,0 l/m 17,7 km/h (3 Bft) W 265 0 min 0,000 mm 0,0 UV-I 11 W/m 1,9 C -5,0 C 38,6 km/h (5 Bft) 93,62 %
19.01.2018 08:40 2,7 C 3,9 C 94 % 1007,5 hPa 0,0 l/m 18,7 km/h (3 Bft) W-SW 252 0 min 0,000 mm 0,0 UV-I 12 W/m 1,8 C -5,6 C 27,4 km/h (4 Bft) 97,37 %
19.01.2018 08:42 2,7 C 3,3 C 94 % 1007,6 hPa 0,2 l/m 17,3 km/h (3 Bft) SW 221 0 min 0,000 mm 0,0 UV-I 12 W/m 1,8 C -4,9 C 27,4 km/h (4 Bft) 95,74 %
19.01.2018 08:44 2,7 C 3,3 C 94 % 1007,7 hPa 0,0 l/m 19,8 km/h (3 Bft) W-SW 250 0 min 0,000 mm 0,0 UV-I 13 W/m 1,8 C -6,1 C 29,0 km/h (5 Bft) 93,62 %
19.01.2018 08:46 2,6 C 3,3 C 94 % 1007,7 hPa 0,0 l/m 19,5 km/h (3 Bft) W 263 0 min 0,000 mm 0,0 UV-I 14 W/m 1,7 C -6,1 C 32,2 km/h (5 Bft) 95,74 %
19.01.2018 08:48 2,6 C 3,9 C 94 % 1007,7 hPa 0,2 l/m 18,3 km/h (3 Bft) W-SW 257 0 min 0,000 mm 0,0 UV-I 14 W/m 1,7 C -5,5 C 29,0 km/h (5 Bft) 96,00 %
19.01.2018 08:50 2,6 C 3,3 C 94 % 1007,8 hPa 0,0 l/m 18,0 km/h (3 Bft) SW 215 0 min 0,000 mm 0,0 UV-I 15 W/m 1,7 C -5,4 C 25,7 km/h (4 Bft) 95,74 %
19.01.2018 08:52 2,6 C 3,3 C 94 % 1007,8 hPa 0,0 l/m 15,7 km/h (3 Bft) W-SW 257 0 min 0,000 mm 0,0 UV-I 18 W/m 1,7 C -4,2 C 29,0 km/h (5 Bft) 96,00 %
19.01.2018 08:54 2,6 C 3,9 C 94 % 1007,8 hPa 0,0 l/m 18,4 km/h (3 Bft) W 259 0 min 0,000 mm 0,0 UV-I 22 W/m 1,7 C -5,6 C 33,8 km/h (5 Bft) 93,62 %
19.01.2018 08:56 2,6 C 3,9 C 94 % 1007,8 hPa 0,0 l/m 16,2 km/h (3 Bft) W-SW 254 0 min 0,000 mm 0,0 UV-I 22 W/m 1,7 C -4,5 C 22,5 km/h (4 Bft) 97,87 %
19.01.2018 08:58 2,6 C 3,9 C 94 % 1007,8 hPa 0,0 l/m 20,3 km/h (4 Bft) S-SW 207 0 min 0,000 mm 0,0 UV-I 19 W/m 1,7 C -6,4 C 27,4 km/h (4 Bft) 97,37 %
19.01.2018 09:00 2,6 C 3,3 C 94 % 1007,8 hPa 0,0 l/m 17,9 km/h (3 Bft) SW 228 0 min 0,000 mm 0,0 UV-I 19 W/m 1,7 C -5,3 C 32,2 km/h (5 Bft) 97,87 %
19.01.2018 09:02 2,6 C 3,3 C 94 % 1007,8 hPa 0,0 l/m 21,1 km/h (4 Bft) SW 235 0 min 0,000 mm 0,0 UV-I 20 W/m 1,7 C -6,7 C 33,8 km/h (5 Bft) 95,74 %
19.01.2018 09:04 2,6 C 3,3 C 94 % 1007,8 hPa 0,0 l/m 21,1 km/h (4 Bft) SW 216 0 min 0,000 mm 0,0 UV-I 23 W/m 1,7 C -6,7 C 33,8 km/h (5 Bft) 97,87 %
19.01.2018 09:06 2,5 C 3,3 C 94 % 1007,8 hPa 0,0 l/m 18,2 km/h (3 Bft) S-SW 192 0 min 0,000 mm 0,0 UV-I 25 W/m 1,6 C -5,6 C 27,4 km/h (4 Bft) 97,87 %
19.01.2018 09:08 2,4 C 3,3 C 94 % 1007,9 hPa 0,0 l/m 19,1 km/h (3 Bft) S-SW 207 0 min 0,000 mm 0,0 UV-I 28 W/m 1,5 C -6,1 C 32,2 km/h (5 Bft) 100,00 %
19.01.2018 09:10 2,3 C 3,3 C 94 % 1007,9 hPa 0,0 l/m 20,2 km/h (4 Bft) W-SW 244 0 min 0,000 mm 0,0 UV-I 31 W/m 1,4 C -6,7 C 33,8 km/h (5 Bft) 100,00 %
19.01.2018 09:12 2,3 C 3,3 C 94 % 1007,9 hPa 0,0 l/m 18,6 km/h (3 Bft) SW 229 0 min 0,000 mm 0,0 UV-I 33 W/m 1,4 C -6,0 C 27,4 km/h (4 Bft) 97,87 %
19.01.2018 09:14 2,3 C 3,3 C 94 % 1008,1 hPa 0,0 l/m 16,2 km/h (3 Bft) S-SW 199 0 min 0,000 mm 0,0 UV-I 33 W/m 1,4 C -4,8 C 25,7 km/h (4 Bft) 100,00 %
19.01.2018 09:16 2,3 C 3,3 C 94 % 1008,1 hPa 0,0 l/m 15,6 km/h (3 Bft) S-SW 194 0 min 0,000 mm 0,0 UV-I 31 W/m 1,4 C -4,5 C 24,1 km/h (4 Bft) 100,00 %
19.01.2018 09:18 2,3 C 3,3 C 94 % 1008,2 hPa 0,0 l/m 17,4 km/h (3 Bft) S-SW 204 0 min 0,000 mm 0,0 UV-I 30 W/m 1,4 C -5,5 C 25,7 km/h (4 Bft) 100,00 %
19.01.2018 09:20 2,3 C 3,3 C 94 % 1008,2 hPa 0,0 l/m 15,9 km/h (3 Bft) S-SW 212 0 min 0,000 mm 0,0 UV-I 31 W/m 1,4 C -4,7 C 22,5 km/h (4 Bft) 100,00 %
19.01.2018 09:22 2,3 C 3,3 C 94 % 1008,3 hPa 0,0 l/m 16,6 km/h (3 Bft) S-SW 208 0 min 0,000 mm 0,0 UV-I 33 W/m 1,4 C -5,1 C 27,4 km/h (4 Bft) 95,74 %
19.01.2018 09:24 2,3 C 3,9 C 94 % 1008,3 hPa 0,0 l/m 20,3 km/h (4 Bft) SW 220 0 min 0,000 mm 0,0 UV-I 34 W/m 1,4 C -6,8 C 29,0 km/h (5 Bft) 100,00 %
19.01.2018 09:26 2,4 C 3,3 C 94 % 1008,3 hPa 0,0 l/m 17,0 km/h (3 Bft) SW 230 0 min 0,000 mm 0,0 UV-I 36 W/m 1,5 C -5,1 C 22,5 km/h (4 Bft) 97,87 %
19.01.2018 09:28 2,4 C 3,3 C 94 % 1008,3 hPa 0,0 l/m 16,0 km/h (3 Bft) SW 230 0 min 0,000 mm 0,0 UV-I 41 W/m 1,5 C -4,6 C 25,7 km/h (4 Bft) 98,00 %
19.01.2018 09:30 2,4 C 3,3 C 94 % 1008,4 hPa 0,0 l/m 17,3 km/h (3 Bft) SW 234 0 min 0,000 mm 0,0 UV-I 43 W/m 1,5 C -5,3 C 27,4 km/h (4 Bft) 100,00 %
19.01.2018 09:32 2,4 C 3,3 C 94 % 1008,4 hPa 0,0 l/m 17,9 km/h (3 Bft) SW 221 0 min 0,000 mm 0,0 UV-I 41 W/m 1,5 C -5,6 C 29,0 km/h (5 Bft) 97,87 %
19.01.2018 09:34 2,5 C 3,3 C 94 % 1008,4 hPa 0,0 l/m 16,9 km/h (3 Bft) SW 225 0 min 0,000 mm 0,0 UV-I 37 W/m 1,6 C -5,0 C 25,7 km/h (4 Bft) 100,00 %
19.01.2018 09:36 2,6 C 3,3 C 94 % 1008,5 hPa 0,0 l/m 17,4 km/h (3 Bft) S-SW 204 0 min 0,000 mm 0,0 UV-I 35 W/m 1,7 C -5,1 C 27,4 km/h (4 Bft) 100,00 %
19.01.2018 09:38 2,6 C 3,3 C 94 % 1008,6 hPa 0,0 l/m 17,1 km/h (3 Bft) SW 236 0 min 0,000 mm 0,0 UV-I 37 W/m 1,7 C -4,9 C 27,4 km/h (4 Bft) 97,87 %
19.01.2018 09:40 2,6 C 3,3 C 94 % 1008,5 hPa 0,0 l/m 18,5 km/h (3 Bft) S-SW 200 0 min 0,000 mm 0,0 UV-I 42 W/m 1,7 C -5,6 C 32,2 km/h (5 Bft) 100,00 %
19.01.2018 09:42 2,5 C 3,3 C 94 % 1008,6 hPa 0,0 l/m 19,7 km/h (3 Bft) SW 223 0 min 0,000 mm 0,0 UV-I 33 W/m 1,6 C -6,3 C 30,6 km/h (5 Bft) 100,00 %
19.01.2018 09:44 2,5 C 3,3 C 94 % 1008,6 hPa 0,0 l/m 17,8 km/h (3 Bft) S-SW 212 0 min 0,000 mm 0,0 UV-I 30 W/m 1,6 C -5,4 C 27,4 km/h (4 Bft) 94,74 %
19.01.2018 09:46 2,6 C 3,3 C 94 % 1008,7 hPa 0,0 l/m 14,9 km/h (3 Bft) W-SW 242 0 min 0,000 mm 0,0 UV-I 33 W/m 1,7 C -3,8 C 24,1 km/h (4 Bft) 100,00 %
19.01.2018 09:48 2,6 C 3,3 C 94 % 1008,8 hPa 0,0 l/m 17,5 km/h (3 Bft) S-SW 209 0 min 0,000 mm 0,0 UV-I 33 W/m 1,7 C -5,1 C 27,4 km/h (4 Bft) 100,00 %
19.01.2018 09:50 2,6 C 3,3 C 94 % 1008,8 hPa 0,0 l/m 15,5 km/h (3 Bft) S-SW 202 0 min 0,000 mm 0,0 UV-I 29 W/m 1,7 C -4,1 C 24,1 km/h (4 Bft) 95,83 %
19.01.2018 09:52 2,6 C 3,3 C 94 % 1008,8 hPa 0,0 l/m 18,4 km/h (3 Bft) SW 236 0 min 0,000 mm 0,0 UV-I 28 W/m 1,7 C -5,6 C 30,6 km/h (5 Bft) 100,00 %
19.01.2018 09:54 2,6 C 3,3 C 94 % 1008,8 hPa 0,0 l/m 13,7 km/h (3 Bft) W-SW 245 0 min 0,000 mm 0,0 UV-I 30 W/m 1,7 C -3,1 C 24,1 km/h (4 Bft) 100,00 %
19.01.2018 09:56 2,7 C 3,3 C 94 % 1008,9 hPa 0,0 l/m 17,5 km/h (3 Bft) W-SW 238 0 min 0,000 mm 0,0 UV-I 30 W/m 1,8 C -5,0 C 24,1 km/h (4 Bft) 100,00 %
19.01.2018 09:58 2,7 C 3,3 C 94 % 1008,9 hPa 0,0 l/m 18,9 km/h (3 Bft) SW 229 0 min 0,000 mm 0,0 UV-I 30 W/m 1,8 C -5,7 C 32,2 km/h (5 Bft) 100,00 %
19.01.2018 10:00 2,7 C 3,3 C 94 % 1008,9 hPa 0,0 l/m 20,4 km/h (4 Bft) W-SW 239 0 min 0,026 mm 0,0 UV-I 27 W/m 1,8 C -6,3 C 32,2 km/h (5 Bft) 100,00 %
19.01.2018 10:02 2,8 C 3,3 C 94 % 1009,0 hPa 0,0 l/m 21,1 km/h (4 Bft) SW 234 0 min 0,000 mm 0,0 UV-I 22 W/m 1,9 C -6,5 C 27,4 km/h (4 Bft) 100,00 %
19.01.2018 10:04 2,8 C 3,3 C 93 % 1009,1 hPa 0,0 l/m 21,7 km/h (4 Bft) W-SW 248 0 min 0,000 mm 0,0 UV-I 21 W/m 1,8 C -6,7 C 35,4 km/h (5 Bft) 100,00 %
19.01.2018 10:06 2,8 C 3,3 C 93 % 1009,1 hPa 0,0 l/m 18,5 km/h (3 Bft) SW 223 0 min 0,000 mm 0,0 UV-I 21 W/m 1,8 C -5,4 C 25,7 km/h (4 Bft) 100,00 %
19.01.2018 10:08 2,8 C 3,3 C 93 % 1009,1 hPa 0,0 l/m 18,7 km/h (3 Bft) W-SW 242 0 min 0,000 mm 0,0 UV-I 27 W/m 1,8 C -5,4 C 32,2 km/h (5 Bft) 97,96 %
19.01.2018 10:10 2,8 C 3,9 C 93 % 1009,1 hPa 0,0 l/m 17,3 km/h (3 Bft) W-SW 245 0 min 0,000 mm 0,0 UV-I 32 W/m 1,8 C -4,8 C 24,1 km/h (4 Bft) 100,00 %
19.01.2018 10:12 2,8 C 3,3 C 93 % 1009,2 hPa 0,0 l/m 18,1 km/h (3 Bft) W-SW 244 0 min 0,000 mm 0,0 UV-I 30 W/m 1,8 C -5,2 C 25,7 km/h (4 Bft) 96,00 %
19.01.2018 10:14 2,8 C 3,3 C 93 % 1009,3 hPa 0,0 l/m 20,0 km/h (4 Bft) SW 222 0 min 0,000 mm 0,0 UV-I 25 W/m 1,8 C -6,0 C 30,6 km/h (5 Bft) 100,00 %
19.01.2018 10:16 2,8 C 3,3 C 93 % 1009,2 hPa 0,0 l/m 18,0 km/h (3 Bft) SW 215 0 min 0,000 mm 0,0 UV-I 25 W/m 1,8 C -5,1 C 27,4 km/h (4 Bft) 100,00 %
19.01.2018 10:18 2,8 C 3,3 C 93 % 1009,2 hPa 0,0 l/m 20,6 km/h (4 Bft) W-SW 242 0 min 0,000 mm 0,0 UV-I 37 W/m 1,8 C -6,3 C 32,2 km/h (5 Bft) 100,00 %
19.01.2018 10:20 2,8 C 3,3 C 93 % 1009,2 hPa 0,0 l/m 20,1 km/h (4 Bft) W-SW 244 0 min 0,000 mm 0,0 UV-I 68 W/m 1,8 C -6,1 C 32,2 km/h (5 Bft) 100,00 %
19.01.2018 10:22 2,8 C 3,3 C 93 % 1009,4 hPa 0,0 l/m 19,2 km/h (3 Bft) W-SW 256 0 min 0,000 mm 0,0 UV-I 89 W/m 1,8 C -5,7 C 27,4 km/h (4 Bft) 97,87 %
19.01.2018 10:24 2,8 C 3,3 C 93 % 1009,4 hPa 0,0 l/m 17,3 km/h (3 Bft) SW 232 0 min 0,000 mm 0,0 UV-I 90 W/m 1,8 C -4,8 C 25,7 km/h (4 Bft) 100,00 %
19.01.2018 10:26 2,9 C 3,3 C 93 % 1009,4 hPa 0,0 l/m 18,6 km/h (3 Bft) SW 233 0 min 0,000 mm 0,0 UV-I 90 W/m 1,9 C -5,3 C 27,4 km/h (4 Bft) 97,87 %
19.01.2018 10:28 2,9 C 3,3 C 93 % 1009,5 hPa 0,0 l/m 20,6 km/h (4 Bft) W-SW 240 0 min 0,000 mm 0,0 UV-I 93 W/m 1,9 C -6,1 C 27,4 km/h (4 Bft) 95,83 %
19.01.2018 10:30 2,9 C 3,3 C 93 % 1009,6 hPa 0,0 l/m 19,8 km/h (3 Bft) SW 215 0 min 0,000 mm 0,0 UV-I 91 W/m 1,9 C -5,8 C 32,2 km/h (5 Bft) 97,87 %
19.01.2018 10:32 2,9 C 3,9 C 93 % 1009,7 hPa 0,0 l/m 19,9 km/h (4 Bft) SW 229 0 min 0,000 mm 0,0 UV-I 101 W/m 1,9 C -5,8 C 25,7 km/h (4 Bft) 97,87 %
19.01.2018 10:34 2,9 C 3,3 C 93 % 1009,5 hPa 0,0 l/m 21,0 km/h (4 Bft) W 277 0 min 0,000 mm 0,0 UV-I 118 W/m 1,9 C -6,3 C 45,1 km/h (6 Bft) 97,87 %
19.01.2018 10:36 3,0 C 3,3 C 93 % 1009,7 hPa 0,0 l/m 18,6 km/h (3 Bft) W 261 0 min 0,000 mm 0,0 UV-I 120 W/m 2,0 C -5,1 C 24,1 km/h (4 Bft) 95,74 %
19.01.2018 10:38 3,0 C 3,3 C 93 % 1009,7 hPa 0,0 l/m 19,3 km/h (3 Bft) W-SW 237 0 min 0,000 mm 0,0 UV-I 117 W/m 2,0 C -5,5 C 35,4 km/h (5 Bft) 91,49 %
19.01.2018 10:40 3,1 C 3,3 C 92 % 1009,8 hPa 0,0 l/m 19,7 km/h (3 Bft) SW 236 0 min 0,000 mm 0,0 UV-I 120 W/m 1,9 C -5,5 C 25,7 km/h (4 Bft) 98,00 %
19.01.2018 10:42 3,1 C 3,3 C 92 % 1009,9 hPa 0,0 l/m 22,5 km/h (4 Bft) SW 216 0 min 0,000 mm 0,0 UV-I 120 W/m 1,9 C -6,6 C 33,8 km/h (5 Bft) 94,74 %
19.01.2018 10:44 3,1 C 3,9 C 92 % 1009,9 hPa 0,0 l/m 25,1 km/h (4 Bft) S-SW 210 0 min 0,000 mm 0,0 UV-I 125 W/m 1,9 C -7,6 C 38,6 km/h (5 Bft) 97,87 %
19.01.2018 10:46 3,2 C 3,3 C 92 % 1009,9 hPa 0,0 l/m 19,2 km/h (3 Bft) W-SW 245 0 min 0,000 mm 0,0 UV-I 119 W/m 2,0 C -5,2 C 27,4 km/h (4 Bft) 96,00 %
19.01.2018 10:48 3,2 C 3,3 C 92 % 1010,0 hPa 0,0 l/m 17,7 km/h (3 Bft) SW 234 0 min 0,000 mm 0,0 UV-I 104 W/m 2,0 C -4,5 C 25,7 km/h (4 Bft) 97,87 %
19.01.2018 10:50 3,2 C 3,3 C 92 % 1010,1 hPa 0,0 l/m 20,4 km/h (4 Bft) W-SW 245 0 min 0,000 mm 0,0 UV-I 92 W/m 2,0 C -5,7 C 29,0 km/h (5 Bft) 97,87 %
19.01.2018 10:52 3,2 C 3,3 C 92 % 1010,1 hPa 0,0 l/m 22,1 km/h (4 Bft) SW 236 0 min 0,000 mm 0,0 UV-I 91 W/m 2,0 C -6,3 C 32,2 km/h (5 Bft) 95,74 %
19.01.2018 10:54 3,1 C 3,3 C 92 % 1010,2 hPa 0,0 l/m 22,2 km/h (4 Bft) SW 234 0 min 0,000 mm 0,0 UV-I 96 W/m 1,9 C -6,5 C 30,6 km/h (5 Bft) 97,87 %
19.01.2018 10:56 3,1 C 3,3 C 92 % 1010,2 hPa 0,0 l/m 20,6 km/h (4 Bft) W-SW 241 0 min 0,000 mm 0,0 UV-I 105 W/m 1,9 C -5,9 C 30,6 km/h (5 Bft) 94,00 %
19.01.2018 10:58 3,1 C 3,3 C 92 % 1010,3 hPa 0,0 l/m 20,0 km/h (4 Bft) SW 232 0 min 0,000 mm 0,0 UV-I 110 W/m 1,9 C -5,6 C 29,0 km/h (5 Bft) 100,00 %
19.01.2018 11:00 3,1 C 3,3 C 92 % 1010,2 hPa 0,0 l/m 19,7 km/h (3 Bft) S-SW 207 0 min 0,000 mm 0,0 UV-I 109 W/m 1,9 C -5,5 C 27,4 km/h (4 Bft) 91,49 %
19.01.2018 11:02 3,1 C 3,3 C 92 % 1010,2 hPa 0,0 l/m 22,0 km/h (4 Bft) SW 225 0 min 0,051 mm 0,0 UV-I 112 W/m 1,9 C -6,4 C 33,8 km/h (5 Bft) 93,75 %
19.01.2018 11:04 3,0 C 3,3 C 92 % 1010,2 hPa 0,0 l/m 19,7 km/h (3 Bft) W-SW 242 0 min 0,000 mm 0,0 UV-I 123 W/m 1,8 C -5,6 C 30,6 km/h (5 Bft) 95,74 %
19.01.2018 11:06 3,0 C 3,3 C 92 % 1010,2 hPa 0,0 l/m 16,8 km/h (3 Bft) SW 217 0 min 0,000 mm 0,0 UV-I 124 W/m 1,8 C -4,3 C 24,1 km/h (4 Bft) 100,00 %
19.01.2018 11:08 3,0 C 3,3 C 92 % 1010,2 hPa 0,0 l/m 19,6 km/h (3 Bft) S 189 0 min 0,000 mm 0,0 UV-I 117 W/m 1,8 C -5,6 C 29,0 km/h (5 Bft) 100,00 %
19.01.2018 11:10 2,9 C 3,9 C 92 % 1010,2 hPa 0,0 l/m 18,9 km/h (3 Bft) W-SW 246 0 min 0,000 mm 0,0 UV-I 121 W/m 1,7 C -5,4 C 33,8 km/h (5 Bft) 97,87 %
19.01.2018 11:12 2,9 C 3,9 C 92 % 1010,3 hPa 0,0 l/m 17,1 km/h (3 Bft) S-SW 207 0 min 0,000 mm 0,0 UV-I 134 W/m 1,7 C -4,6 C 24,1 km/h (4 Bft) 100,00 %
19.01.2018 11:14 2,9 C 3,3 C 92 % 1010,4 hPa 0,0 l/m 17,2 km/h (3 Bft) S-SW 201 0 min 0,000 mm 0,0 UV-I 133 W/m 1,7 C -4,6 C 30,6 km/h (5 Bft) 97,87 %
19.01.2018 11:16 3,0 C 3,3 C 92 % 1010,4 hPa 0,0 l/m 19,8 km/h (3 Bft) S-SW 196 0 min 0,000 mm 0,0 UV-I 138 W/m 1,8 C -5,7 C 27,4 km/h (4 Bft) 100,00 %
19.01.2018 11:18 3,0 C 3,3 C 92 % 1010,4 hPa 0,0 l/m 18,0 km/h (3 Bft) S-SW 199 0 min 0,000 mm 0,0 UV-I 142 W/m 1,8 C -4,9 C 29,0 km/h (5 Bft) 100,00 %
19.01.2018 11:20 3,0 C 3,3 C 92 % 1010,5 hPa 0,0 l/m 16,9 km/h (3 Bft) S-SW 201 0 min 0,000 mm 0,0 UV-I 162 W/m 1,8 C -4,3 C 32,2 km/h (5 Bft) 97,87 %
19.01.2018 11:22 3,1 C 3,3 C 93 % 1010,5 hPa 0,0 l/m 20,0 km/h (4 Bft) SW 234 0 min 0,000 mm 0,0 UV-I 181 W/m 2,1 C -5,6 C 30,6 km/h (5 Bft) 97,87 %
19.01.2018 11:24 3,1 C 3,3 C 92 % 1010,5 hPa 0,0 l/m 21,7 km/h (4 Bft) W-SW 244 0 min 0,000 mm 0,0 UV-I 194 W/m 1,9 C -6,3 C 33,8 km/h (5 Bft) 100,00 %
19.01.2018 11:26 3,2 C 3,3 C 92 % 1010,6 hPa 0,0 l/m 16,2 km/h (3 Bft) W-SW 252 0 min 0,000 mm 0,0 UV-I 182 W/m 2,0 C -3,7 C 24,1 km/h (4 Bft) 97,87 %
19.01.2018 11:28 3,3 C 3,3 C 92 % 1010,6 hPa 0,0 l/m 20,7 km/h (4 Bft) W-SW 242 0 min 0,000 mm 0,0 UV-I 179 W/m 2,1 C -5,7 C 29,0 km/h (5 Bft) 97,87 %
19.01.2018 11:30 3,3 C 3,3 C 92 % 1010,5 hPa 0,0 l/m 18,3 km/h (3 Bft) W-SW 250 0 min 0,000 mm 0,0 UV-I 177 W/m 2,1 C -4,6 C 29,0 km/h (5 Bft) 97,87 %
19.01.2018 11:32 3,4 C 3,3 C 92 % 1010,5 hPa 0,0 l/m 17,8 km/h (3 Bft) W-SW 237 0 min 0,000 mm 0,0 UV-I 167 W/m 2,2 C -4,3 C 27,4 km/h (4 Bft) 97,87 %
19.01.2018 11:34 3,4 C 3,3 C 92 % 1010,5 hPa 0,0 l/m 16,5 km/h (3 Bft) SW 231 0 min 0,000 mm 0,0 UV-I 189 W/m 2,2 C -3,6 C 25,7 km/h (4 Bft) 100,00 %
19.01.2018 11:36 3,5 C 3,3 C 91 % 1010,5 hPa 0,0 l/m 19,9 km/h (4 Bft) SW 229 0 min 0,000 mm 0,0 UV-I 194 W/m 2,2 C -5,1 C 33,8 km/h (5 Bft) 97,87 %
19.01.2018 11:38 3,6 C 3,3 C 91 % 1010,5 hPa 0,0 l/m 22,6 km/h (4 Bft) SW 223 2 min 0,000 mm 0,0 UV-I 204 W/m 2,3 C -6,0 C 30,6 km/h (5 Bft) 100,00 %
19.01.2018 11:40 3,6 C 3,3 C 91 % 1010,5 hPa 0,0 l/m 21,0 km/h (4 Bft) W 279 0 min 0,000 mm 0,0 UV-I 153 W/m 2,3 C -5,4 C 33,8 km/h (5 Bft) 100,00 %
19.01.2018 11:42 3,7 C 3,3 C 90 % 1010,6 hPa 0,0 l/m 22,7 km/h (4 Bft) SW 230 0 min 0,000 mm 0,0 UV-I 158 W/m 2,2 C -5,9 C 33,8 km/h (5 Bft) 100,00 %
19.01.2018 11:44 3,7 C 3,9 C 90 % 1010,6 hPa 0,0 l/m 18,6 km/h (3 Bft) S-SW 210 0 min 0,000 mm 0,0 UV-I 163 W/m 2,2 C -4,3 C 29,0 km/h (5 Bft) 100,00 %
19.01.2018 11:46 3,8 C 3,9 C 89 % 1010,7 hPa 0,0 l/m 22,2 km/h (4 Bft) SW 231 0 min 0,000 mm 0,0 UV-I 161 W/m 2,2 C -5,6 C 38,6 km/h (5 Bft) 100,00 %
19.01.2018 11:48 3,8 C 3,9 C 88 % 1010,7 hPa 0,0 l/m 18,5 km/h (3 Bft) W 263 0 min 0,000 mm 0,0 UV-I 141 W/m 2,0 C -4,1 C 29,0 km/h (5 Bft) 100,00 %
19.01.2018 11:50 3,8 C 3,9 C 88 % 1010,8 hPa 0,0 l/m 22,3 km/h (4 Bft) W-SW 247 0 min 0,000 mm 0,0 UV-I 135 W/m 2,0 C -5,6 C 30,6 km/h (5 Bft) 100,00 %
19.01.2018 11:52 3,8 C 3,9 C 88 % 1010,6 hPa 0,0 l/m 20,4 km/h (4 Bft) W-SW 238 0 min 0,000 mm 0,0 UV-I 144 W/m 2,0 C -4,9 C 33,8 km/h (5 Bft) 100,00 %
19.01.2018 11:54 3,8 C 3,9 C 87 % 1010,6 hPa 0,2 l/m 26,6 km/h (4 Bft) W-SW 241 0 min 0,000 mm 0,0 UV-I 161 W/m 1,8 C -7,1 C 41,8 km/h (6 Bft) 97,87 %
19.01.2018 11:56 3,9 C 3,9 C 86 % 1010,7 hPa 0,0 l/m 20,0 km/h (4 Bft) SW 232 0 min 0,000 mm 0,0 UV-I 162 W/m 1,8 C -4,6 C 33,8 km/h (5 Bft) 100,00 %
19.01.2018 11:58 3,9 C 3,3 C 85 % 1010,7 hPa 0,0 l/m 22,2 km/h (4 Bft) W 267 0 min 0,000 mm 0,0 UV-I 128 W/m 1,6 C -5,5 C 41,8 km/h (6 Bft) 100,00 %
19.01.2018 12:00 3,9 C 3,3 C 84 % 1010,6 hPa 0,0 l/m 24,1 km/h (4 Bft) W 259 0 min 0,076 mm 0,0 UV-I 109 W/m 1,4 C -6,1 C 38,6 km/h (5 Bft) 100,00 %
19.01.2018 12:02 3,9 C 3,9 C 83 % 1010,6 hPa 0,0 l/m 26,0 km/h (4 Bft) W 277 0 min 0,000 mm 0,0 UV-I 111 W/m 1,3 C -6,8 C 45,1 km/h (6 Bft) 100,00 %
19.01.2018 12:04 3,8 C 3,9 C 84 % 1010,7 hPa 0,0 l/m 16,3 km/h (3 Bft) W 261 0 min 0,000 mm 0,0 UV-I 110 W/m 1,4 C -3,0 C 24,1 km/h (4 Bft) 100,00 %
19.01.2018 12:06 3,8 C 3,3 C 84 % 1010,7 hPa 0,0 l/m 20,7 km/h (4 Bft) W-NW 286 0 min 0,000 mm 0,0 UV-I 108 W/m 1,4 C -5,0 C 33,8 km/h (5 Bft) 97,87 %
19.01.2018 12:08 3,8 C 3,3 C 84 % 1010,7 hPa 0,0 l/m 21,8 km/h (4 Bft) SW 226 0 min 0,000 mm 0,5 UV-I 127 W/m 1,4 C -5,4 C 40,2 km/h (6 Bft) 97,87 %
19.01.2018 12:10 3,8 C 3,3 C 83 % 1010,7 hPa 0,0 l/m 21,5 km/h (4 Bft) W-SW 240 0 min 0,000 mm 0,5 UV-I 154 W/m 1,2 C -5,3 C 29,0 km/h (5 Bft) 97,87 %
19.01.2018 12:12 3,8 C 3,3 C 84 % 1010,7 hPa 0,0 l/m 22,7 km/h (4 Bft) W-SW 248 0 min 0,000 mm 0,3 UV-I 128 W/m 1,4 C -5,8 C 32,2 km/h (5 Bft) 95,83 %
19.01.2018 12:14 3,8 C 3,3 C 84 % 1010,9 hPa 0,0 l/m 19,7 km/h (3 Bft) W-SW 244 0 min 0,000 mm 0,0 UV-I 113 W/m 1,4 C -4,6 C 27,4 km/h (4 Bft) 97,87 %
19.01.2018 12:16 3,8 C 3,9 C 83 % 1010,8 hPa 0,0 l/m 22,2 km/h (4 Bft) W-SW 252 0 min 0,000 mm 0,0 UV-I 116 W/m 1,2 C -5,6 C 30,6 km/h (5 Bft) 100,00 %
19.01.2018 12:18 3,8 C 3,9 C 83 % 1010,8 hPa 0,0 l/m 25,9 km/h (4 Bft) W 280 0 min 0,000 mm 0,0 UV-I 114 W/m 1,2 C -6,9 C 38,6 km/h (5 Bft) 93,62 %
19.01.2018 12:20 3,8 C 3,3 C 83 % 1010,9 hPa 0,0 l/m 26,4 km/h (4 Bft) W-SW 254 0 min 0,000 mm 0,0 UV-I 112 W/m 1,2 C -7,0 C 38,6 km/h (5 Bft) 96,23 %
19.01.2018 12:22 3,7 C 3,3 C 83 % 1010,9 hPa 0,0 l/m 17,1 km/h (3 Bft) W-SW 257 0 min 0,000 mm 0,0 UV-I 115 W/m 1,1 C -3,6 C 25,7 km/h (4 Bft) 95,83 %
19.01.2018 12:24 3,7 C 3,3 C 84 % 1010,9 hPa 0,0 l/m 17,1 km/h (3 Bft) SW 225 0 min 0,000 mm 0,0 UV-I 127 W/m 1,3 C -3,6 C 24,1 km/h (4 Bft) 95,74 %
19.01.2018 12:26 3,7 C 3,3 C 84 % 1010,9 hPa 0,0 l/m 16,0 km/h (3 Bft) SW 223 0 min 0,000 mm 0,1 UV-I 124 W/m 1,3 C -3,0 C 22,5 km/h (4 Bft) 95,74 %
19.01.2018 12:28 3,7 C 3,3 C 84 % 1010,8 hPa 0,0 l/m 20,2 km/h (4 Bft) W-SW 252 0 min 0,000 mm 0,5 UV-I 146 W/m 1,3 C -4,9 C 30,6 km/h (5 Bft) 94,44 %
19.01.2018 12:30 3,8 C 3,3 C 84 % 1010,9 hPa 0,0 l/m 18,2 km/h (3 Bft) SW 227 0 min 0,000 mm 0,5 UV-I 184 W/m 1,4 C -3,9 C 27,4 km/h (4 Bft) 98,15 %
19.01.2018 12:32 3,9 C 3,3 C 83 % 1010,9 hPa 0,0 l/m 22,5 km/h (4 Bft) W 260 2 min 0,000 mm 0,5 UV-I 262 W/m 1,3 C -5,6 C 30,6 km/h (5 Bft) 93,62 %
19.01.2018 12:34 4,0 C 3,9 C 83 % 1010,9 hPa 0,0 l/m 19,5 km/h (3 Bft) SW 223 2 min 0,000 mm 0,6 UV-I 288 W/m 1,4 C -4,3 C 32,2 km/h (5 Bft) 94,00 %
19.01.2018 12:36 4,2 C 3,9 C 84 % 1010,9 hPa 0,0 l/m 21,9 km/h (4 Bft) W 266 2 min 0,000 mm 0,5 UV-I 324 W/m 1,7 C -4,9 C 32,2 km/h (5 Bft) 94,00 %
19.01.2018 12:38 4,3 C 3,9 C 83 % 1010,9 hPa 0,0 l/m 15,1 km/h (3 Bft) SW 236 2 min 0,000 mm 0,6 UV-I 323 W/m 1,7 C -1,8 C 24,1 km/h (4 Bft) 93,62 %
19.01.2018 12:40 4,4 C 3,9 C 83 % 1011,0 hPa 0,0 l/m 20,3 km/h (4 Bft) W 273 2 min 0,000 mm 0,6 UV-I 396 W/m 1,8 C -4,1 C 32,2 km/h (5 Bft) 97,14 %
19.01.2018 12:42 4,6 C 3,9 C 82 % 1011,0 hPa 0,0 l/m 20,2 km/h (4 Bft) W-SW 257 2 min 0,000 mm 0,6 UV-I 395 W/m 1,8 C -3,8 C 30,6 km/h (5 Bft) 95,74 %
19.01.2018 12:44 4,6 C 3,9 C 81 % 1011,0 hPa 0,0 l/m 21,0 km/h (4 Bft) W-SW 252 2 min 0,000 mm 0,5 UV-I 389 W/m 1,6 C -4,1 C 29,0 km/h (5 Bft) 93,62 %
19.01.2018 12:46 4,6 C 3,9 C 82 % 1011,0 hPa 0,0 l/m 14,7 km/h (3 Bft) W 269 2 min 0,000 mm 0,5 UV-I 367 W/m 1,8 C -1,3 C 22,5 km/h (4 Bft) 94,00 %
19.01.2018 12:48 4,7 C 3,9 C 83 % 1011,0 hPa 0,0 l/m 12,6 km/h (3 Bft) W-SW 239 2 min 0,000 mm 0,5 UV-I 400 W/m 2,1 C 0,0 C 20,9 km/h (4 Bft) 95,74 %
19.01.2018 12:50 4,8 C 3,9 C 82 % 1011,0 hPa 0,0 l/m 19,3 km/h (3 Bft) S-SW 210 2 min 0,000 mm 0,5 UV-I 392 W/m 2,0 C -3,1 C 29,0 km/h (5 Bft) 96,00 %
19.01.2018 12:52 4,8 C 3,9 C 82 % 1010,9 hPa 0,0 l/m 18,1 km/h (3 Bft) W-SW 244 2 min 0,000 mm 0,3 UV-I 391 W/m 2,0 C -2,6 C 22,5 km/h (4 Bft) 93,62 %
19.01.2018 12:54 4,9 C 3,9 C 83 % 1010,9 hPa 0,0 l/m 16,2 km/h (3 Bft) S-SW 210 2 min 0,000 mm 0,0 UV-I 390 W/m 2,3 C -1,6 C 24,1 km/h (4 Bft) 97,87 %
19.01.2018 12:56 5,0 C 3,3 C 81 % 1010,9 hPa 0,0 l/m 21,2 km/h (4 Bft) W 267 2 min 0,000 mm 0,2 UV-I 412 W/m 2,0 C -3,6 C 30,6 km/h (5 Bft) 93,62 %
19.01.2018 12:58 4,9 C 3,3 C 81 % 1010,9 hPa 0,0 l/m 19,0 km/h (3 Bft) W-SW 247 0 min 0,000 mm 0,0 UV-I 184 W/m 1,9 C -2,9 C 29,0 km/h (5 Bft) 91,49 %
19.01.2018 13:00 4,8 C 3,9 C 82 % 1010,9 hPa 0,0 l/m 15,7 km/h (3 Bft) W 264 2 min 0,127 mm 0,0 UV-I 267 W/m 2,0 C -1,5 C 24,1 km/h (4 Bft) 98,00 %
19.01.2018 13:02 4,9 C 3,9 C 81 % 1010,8 hPa 0,0 l/m 16,9 km/h (3 Bft) SW 232 2 min 0,000 mm 0,0 UV-I 272 W/m 1,9 C -2,0 C 25,7 km/h (4 Bft) 97,87 %
19.01.2018 13:04 4,9 C 3,9 C 82 % 1010,8 hPa 0,0 l/m 18,6 km/h (3 Bft) SW 230 2 min 0,000 mm 0,0 UV-I 277 W/m 2,1 C -2,7 C 29,0 km/h (5 Bft) 93,75 %
19.01.2018 13:06 4,9 C 3,9 C 81 % 1010,9 hPa 0,0 l/m 20,4 km/h (4 Bft) W 268 0 min 0,000 mm 0,0 UV-I 196 W/m 1,9 C -3,5 C 32,2 km/h (5 Bft) 94,74 %
19.01.2018 13:08 4,8 C 3,9 C 80 % 1010,8 hPa 0,0 l/m 20,2 km/h (4 Bft) W-SW 250 0 min 0,000 mm 0,0 UV-I 142 W/m 1,6 C -3,5 C 29,0 km/h (5 Bft) 97,87 %
19.01.2018 13:10 4,7 C 3,9 C 80 % 1010,9 hPa 0,0 l/m 22,4 km/h (4 Bft) W-SW 238 0 min 0,000 mm 0,0 UV-I 147 W/m 1,6 C -4,5 C 35,4 km/h (5 Bft) 96,00 %
19.01.2018 13:12 4,6 C 3,9 C 79 % 1010,9 hPa 0,0 l/m 18,6 km/h (3 Bft) W-SW 254 0 min 0,000 mm 0,0 UV-I 151 W/m 1,3 C -3,1 C 30,6 km/h (5 Bft) 93,62 %
19.01.2018 13:14 4,6 C 3,9 C 81 % 1010,8 hPa 0,0 l/m 15,8 km/h (3 Bft) W-SW 238 0 min 0,000 mm 0,0 UV-I 152 W/m 1,6 C -1,8 C 22,5 km/h (4 Bft) 95,74 %
19.01.2018 13:16 4,6 C 3,9 C 81 % 1010,9 hPa 0,0 l/m 17,7 km/h (3 Bft) SW 228 0 min 0,000 mm 0,0 UV-I 160 W/m 1,6 C -2,7 C 24,1 km/h (4 Bft) 97,87 %
19.01.2018 13:18 4,5 C 3,9 C 81 % 1010,8 hPa 0,0 l/m 20,3 km/h (4 Bft) SW 225 0 min 0,000 mm 0,0 UV-I 154 W/m 1,5 C -3,9 C 27,4 km/h (4 Bft) 97,87 %
19.01.2018 13:20 4,5 C 3,9 C 81 % 1010,9 hPa 0,0 l/m 20,2 km/h (4 Bft) SW 220 2 min 0,000 mm 0,1 UV-I 202 W/m 1,5 C -3,9 C 30,6 km/h (5 Bft) 96,00 %
19.01.2018 13:22 4,5 C 3,9 C 80 % 1010,8 hPa 0,0 l/m 22,5 km/h (4 Bft) W 275 0 min 0,000 mm 0,1 UV-I 169 W/m 1,4 C -4,8 C 33,8 km/h (5 Bft) 97,87 %
19.01.2018 13:24 4,4 C 3,9 C 80 % 1010,8 hPa 0,0 l/m 17,9 km/h (3 Bft) W 271 0 min 0,000 mm 0,0 UV-I 75 W/m 1,3 C -3,1 C 27,4 km/h (4 Bft) 97,56 %
19.01.2018 13:26 4,3 C 3,9 C 78 % 1010,7 hPa 0,0 l/m 23,9 km/h (4 Bft) SW 234 0 min 0,000 mm 0,0 UV-I 75 W/m 0,8 C -5,5 C 32,2 km/h (5 Bft) 97,87 %
19.01.2018 13:28 4,3 C 3,9 C 79 % 1010,8 hPa 0,0 l/m 20,0 km/h (4 Bft) W-SW 249 0 min 0,000 mm 0,4 UV-I 134 W/m 1,0 C -4,1 C 29,0 km/h (5 Bft) 97,87 %
19.01.2018 13:30 4,3 C 3,9 C 78 % 1010,9 hPa 0,0 l/m 25,2 km/h (4 Bft) W-SW 255 0 min 0,000 mm 0,0 UV-I 124 W/m 0,8 C -6,0 C 38,6 km/h (5 Bft) 97,87 %
19.01.2018 13:32 4,2 C 3,3 C 77 % 1010,8 hPa 0,0 l/m 21,9 km/h (4 Bft) W-SW 254 0 min 0,000 mm 0,0 UV-I 102 W/m 0,5 C -4,9 C 29,0 km/h (5 Bft) 95,74 %
19.01.2018 13:34 4,2 C 3,3 C 77 % 1010,8 hPa 0,0 l/m 23,5 km/h (4 Bft) W-SW 243 0 min 0,000 mm 0,0 UV-I 115 W/m 0,5 C -5,5 C 33,8 km/h (5 Bft) 93,62 %
19.01.2018 13:36 4,2 C 3,9 C 76 % 1010,8 hPa 0,0 l/m 22,8 km/h (4 Bft) W-SW 237 0 min 0,000 mm 0,0 UV-I 96 W/m 0,4 C -5,3 C 33,8 km/h (5 Bft) 98,00 %
19.01.2018 13:38 4,1 C 3,9 C 76 % 1010,7 hPa 0,0 l/m 22,3 km/h (4 Bft) SW 229 0 min 0,000 mm 0,0 UV-I 78 W/m 0,3 C -5,2 C 32,2 km/h (5 Bft) 95,74 %
19.01.2018 13:40 4,1 C 3,9 C 76 % 1010,8 hPa 0,0 l/m 23,1 km/h (4 Bft) SW 214 0 min 0,000 mm 0,0 UV-I 62 W/m 0,3 C -5,5 C 32,2 km/h (5 Bft) 97,87 %
19.01.2018 13:42 4,0 C 3,9 C 76 % 1010,8 hPa 0,0 l/m 25,3 km/h (4 Bft) SW 219 0 min 0,000 mm 0,0 UV-I 59 W/m 0,2 C -6,4 C 41,8 km/h (6 Bft) 95,74 %
19.01.2018 13:44 3,9 C 3,9 C 76 % 1010,8 hPa 0,0 l/m 25,5 km/h (4 Bft) W 259 0 min 0,000 mm 0,0 UV-I 64 W/m 0,1 C -6,6 C 46,7 km/h (6 Bft) 97,44 %
19.01.2018 13:46 3,9 C 3,3 C 76 % 1010,8 hPa 0,0 l/m 24,1 km/h (4 Bft) SW 234 0 min 0,000 mm 0,0 UV-I 79 W/m 0,1 C -6,1 C 35,4 km/h (5 Bft) 93,62 %
19.01.2018 13:48 3,9 C 3,9 C 76 % 1010,9 hPa 0,0 l/m 20,0 km/h (4 Bft) W-SW 248 0 min 0,000 mm 0,1 UV-I 152 W/m 0,1 C -4,6 C 35,4 km/h (5 Bft) 93,62 %
19.01.2018 13:50 4,1 C 3,9 C 75 % 1010,8 hPa 0,0 l/m 23,4 km/h (4 Bft) W 260 2 min 0,000 mm 0,3 UV-I 262 W/m 0,1 C -5,6 C 38,6 km/h (5 Bft) 96,00 %
19.01.2018 13:52 4,2 C 3,9 C 74 % 1010,9 hPa 0,0 l/m 21,7 km/h (4 Bft) SW 217 2 min 0,000 mm 0,4 UV-I 290 W/m -0,0 C -4,9 C 37,0 km/h (5 Bft) 95,74 %
19.01.2018 13:54 4,2 C 3,9 C 74 % 1010,9 hPa 0,0 l/m 20,0 km/h (4 Bft) W-SW 250 0 min 0,000 mm 0,0 UV-I 138 W/m -0,0 C -4,2 C 27,4 km/h (4 Bft) 93,62 %
19.01.2018 13:56 4,2 C 3,9 C 74 % 1010,8 hPa 0,0 l/m 21,5 km/h (4 Bft) W-SW 255 0 min 0,000 mm 0,0 UV-I 94 W/m -0,0 C -4,8 C 35,4 km/h (5 Bft) 100,00 %
19.01.2018 13:58 4,1 C 3,9 C 73 % 1010,9 hPa 0,0 l/m 25,1 km/h (4 Bft) W-SW 250 0 min 0,000 mm 0,0 UV-I 113 W/m -0,3 C -6,2 C 40,2 km/h (6 Bft) 100,00 %
19.01.2018 14:00 4,1 C 3,9 C 74 % 1010,9 hPa 0,0 l/m 23,2 km/h (4 Bft) W-SW 257 0 min 0,101 mm 0,0 UV-I 82 W/m -0,1 C -5,6 C 33,8 km/h (5 Bft) 97,87 %
19.01.2018 14:02 4,0 C 3,9 C 74 % 1010,9 hPa 0,0 l/m 24,2 km/h (4 Bft) W-SW 245 0 min 0,000 mm 0,0 UV-I 81 W/m -0,2 C -6,0 C 35,4 km/h (5 Bft) 100,00 %
19.01.2018 14:04 3,9 C 3,9 C 74 % 1010,9 hPa 0,0 l/m 22,4 km/h (4 Bft) W-SW 242 0 min 0,000 mm 0,0 UV-I 61 W/m -0,3 C -5,5 C 32,2 km/h (5 Bft) 100,00 %
19.01.2018 14:06 3,9 C 3,9 C 75 % 1010,9 hPa 0,0 l/m 23,8 km/h (4 Bft) W 273 0 min 0,000 mm 0,0 UV-I 62 W/m -0,1 C -6,0 C 35,4 km/h (5 Bft) 100,00 %
19.01.2018 14:08 3,8 C 3,9 C 75 % 1010,9 hPa 0,0 l/m 19,9 km/h (4 Bft) W-SW 248 0 min 0,000 mm 0,0 UV-I 64 W/m -0,2 C -4,7 C 35,4 km/h (5 Bft) 100,00 %
19.01.2018 14:10 3,8 C 3,9 C 75 % 1010,9 hPa 0,0 l/m 16,9 km/h (3 Bft) W 279 0 min 0,000 mm 0,0 UV-I 50 W/m -0,2 C -3,3 C 24,1 km/h (4 Bft) 100,00 %
19.01.2018 14:12 3,8 C 3,9 C 75 % 1010,9 hPa 0,0 l/m 22,0 km/h (4 Bft) SW 236 0 min 0,000 mm 0,0 UV-I 93 W/m -0,2 C -5,5 C 30,6 km/h (5 Bft) 97,87 %
19.01.2018 14:14 3,8 C 3,9 C 75 % 1010,9 hPa 0,0 l/m 23,4 km/h (4 Bft) W-SW 254 2 min 0,000 mm 0,0 UV-I 261 W/m -0,2 C -6,0 C 33,8 km/h (5 Bft) 100,00 %
19.01.2018 14:16 4,0 C 3,9 C 75 % 1010,9 hPa 0,0 l/m 22,6 km/h (4 Bft) W-SW 249 2 min 0,000 mm 0,0 UV-I 283 W/m -0,0 C -5,5 C 32,2 km/h (5 Bft) 100,00 %
19.01.2018 14:18 4,2 C 3,9 C 74 % 1010,9 hPa 0,0 l/m 20,9 km/h (4 Bft) S-SW 213 2 min 0,000 mm 0,0 UV-I 273 W/m -0,0 C -4,6 C 30,6 km/h (5 Bft) 98,11 %
19.01.2018 14:20 4,2 C 3,9 C 74 % 1010,9 hPa 0,0 l/m 20,3 km/h (4 Bft) SW 225 2 min 0,000 mm 0,0 UV-I 267 W/m -0,0 C -4,3 C 25,7 km/h (4 Bft) 95,74 %
19.01.2018 14:22 4,2 C 3,9 C 74 % 1010,9 hPa 0,0 l/m 20,4 km/h (4 Bft) SW 221 2 min 0,000 mm 0,0 UV-I 262 W/m -0,0 C -4,4 C 33,8 km/h (5 Bft) 97,87 %
19.01.2018 14:24 4,3 C 3,9 C 74 % 1010,9 hPa 0,0 l/m 18,8 km/h (3 Bft) W-SW 254 2 min 0,000 mm 0,0 UV-I 258 W/m 0,1 C -3,6 C 25,7 km/h (4 Bft) 95,74 %
19.01.2018 14:26 4,3 C 3,9 C 75 % 1010,9 hPa 0,0 l/m 18,5 km/h (3 Bft) S-SW 213 2 min 0,000 mm 0,0 UV-I 256 W/m 0,3 C -3,4 C 27,4 km/h (4 Bft) 97,96 %
19.01.2018 14:28 4,3 C 3,9 C 77 % 1010,9 hPa 0,0 l/m 21,1 km/h (4 Bft) W-SW 245 2 min 0,000 mm 0,0 UV-I 252 W/m 0,6 C -4,5 C 30,6 km/h (5 Bft) 93,62 %
19.01.2018 14:30 4,1 C 3,9 C 79 % 1010,9 hPa 0,0 l/m 22,1 km/h (4 Bft) W-SW 238 2 min 0,000 mm 0,0 UV-I 248 W/m 0,8 C -5,2 C 33,8 km/h (5 Bft) 97,37 %
19.01.2018 14:32 3,9 C 3,9 C 80 % 1010,9 hPa 0,0 l/m 25,1 km/h (4 Bft) S-SW 207 2 min 0,000 mm 0,0 UV-I 245 W/m 0,8 C -6,5 C 33,8 km/h (5 Bft) 95,74 %
19.01.2018 14:34 3,8 C 3,9 C 81 % 1010,9 hPa 0,0 l/m 20,3 km/h (4 Bft) W-SW 251 2 min 0,000 mm 0,0 UV-I 242 W/m 0,8 C -4,8 C 32,2 km/h (5 Bft) 97,87 %
19.01.2018 14:36 3,8 C 3,9 C 81 % 1010,9 hPa 0,0 l/m 25,4 km/h (4 Bft) W-SW 257 2 min 0,000 mm 0,0 UV-I 239 W/m 0,8 C -6,7 C 35,4 km/h (5 Bft) 98,00 %
19.01.2018 14:38 3,7 C 3,9 C 81 % 1010,9 hPa 0,0 l/m 21,5 km/h (4 Bft) S-SW 208 2 min 0,000 mm 0,0 UV-I 235 W/m 0,7 C -5,5 C 32,2 km/h (5 Bft) 95,74 %
19.01.2018 14:40 3,7 C 3,9 C 81 % 1010,9 hPa 0,0 l/m 21,1 km/h (4 Bft) SW 236 2 min 0,000 mm 0,0 UV-I 230 W/m 0,7 C -5,3 C 30,6 km/h (5 Bft) 97,87 %
19.01.2018 14:42 3,7 C 3,9 C 82 % 1010,7 hPa 0,0 l/m 22,9 km/h (4 Bft) SW 232 2 min 0,000 mm 0,0 UV-I 227 W/m 0,9 C -6,0 C 30,6 km/h (5 Bft) 96,00 %
19.01.2018 14:44 3,7 C 3,9 C 81 % 1010,8 hPa 0,0 l/m 21,2 km/h (4 Bft) SW 234 2 min 0,000 mm 0,0 UV-I 223 W/m 0,7 C -5,3 C 35,4 km/h (5 Bft) 95,74 %
19.01.2018 14:46 3,7 C 3,9 C 81 % 1011,0 hPa 0,0 l/m 22,7 km/h (4 Bft) W-SW 239 2 min 0,000 mm 0,0 UV-I 222 W/m 0,7 C -5,9 C 29,0 km/h (5 Bft) 100,00 %
19.01.2018 14:48 3,7 C 3,9 C 81 % 1011,0 hPa 0,0 l/m 19,1 km/h (3 Bft) S-SW 212 2 min 0,000 mm 0,0 UV-I 221 W/m 0,7 C -4,5 C 30,6 km/h (5 Bft) 100,00 %
19.01.2018 14:50 3,7 C 3,9 C 81 % 1010,9 hPa 0,0 l/m 20,3 km/h (4 Bft) SW 233 2 min 0,000 mm 0,0 UV-I 224 W/m 0,7 C -5,0 C 32,2 km/h (5 Bft) 100,00 %
19.01.2018 14:52 3,7 C 3,9 C 81 % 1011,0 hPa 0,0 l/m 21,2 km/h (4 Bft) W-SW 248 2 min 0,000 mm 0,0 UV-I 131 W/m 0,7 C -5,3 C 32,2 km/h (5 Bft) 97,87 %
19.01.2018 14:54 3,7 C 3,9 C 80 % 1011,0 hPa 0,0 l/m 25,2 km/h (4 Bft) SW 231 2 min 0,000 mm 0,0 UV-I 132 W/m 0,6 C -6,8 C 33,8 km/h (5 Bft) 97,87 %
19.01.2018 14:56 3,7 C 3,9 C 80 % 1011,0 hPa 0,0 l/m 21,3 km/h (4 Bft) SW 225 2 min 0,000 mm 0,0 UV-I 179 W/m 0,6 C -5,4 C 29,0 km/h (5 Bft) 100,00 %
19.01.2018 14:58 3,6 C 3,9 C 80 % 1011,0 hPa 0,0 l/m 24,4 km/h (4 Bft) W-SW 238 0 min 0,000 mm 0,0 UV-I 107 W/m 0,5 C -6,6 C 32,2 km/h (5 Bft) 93,62 %
19.01.2018 15:00 3,6 C 3,9 C 80 % 1011,0 hPa 0,0 l/m 19,5 km/h (3 Bft) SW 215 0 min 0,102 mm 0,0 UV-I 108 W/m 0,5 C -4,8 C 30,6 km/h (5 Bft) 100,00 %
19.01.2018 15:02 3,6 C 3,9 C 81 % 1011,0 hPa 0,0 l/m 18,7 km/h (3 Bft) SW 229 0 min 0,000 mm 0,0 UV-I 77 W/m 0,7 C -4,4 C 27,4 km/h (4 Bft) 100,00 %
19.01.2018 15:04 3,6 C 3,9 C 80 % 1011,0 hPa 0,0 l/m 17,1 km/h (3 Bft) SW 225 0 min 0,000 mm 0,0 UV-I 105 W/m 0,5 C -3,7 C 27,4 km/h (4 Bft) 100,00 %
19.01.2018 15:06 3,6 C 3,9 C 80 % 1011,0 hPa 0,0 l/m 18,5 km/h (3 Bft) W-SW 241 0 min 0,000 mm 0,0 UV-I 109 W/m 0,5 C -4,3 C 27,4 km/h (4 Bft) 100,00 %
19.01.2018 15:08 3,7 C 3,9 C 80 % 1011,0 hPa 0,0 l/m 19,9 km/h (4 Bft) SW 232 2 min 0,000 mm 0,0 UV-I 208 W/m 0,6 C -4,8 C 30,6 km/h (5 Bft) 100,00 %
19.01.2018 15:10 3,7 C 3,9 C 80 % 1010,9 hPa 0,0 l/m 18,2 km/h (3 Bft) SW 233 2 min 0,000 mm 0,0 UV-I 201 W/m 0,6 C -4,1 C 27,4 km/h (4 Bft) 100,00 %
19.01.2018 15:12 3,8 C 3,9 C 80 % 1010,9 hPa 0,0 l/m 16,6 km/h (3 Bft) W-SW 246 2 min 0,000 mm 0,0 UV-I 204 W/m 0,7 C -3,2 C 24,1 km/h (4 Bft) 97,87 %
19.01.2018 15:14 3,8 C 3,9 C 80 % 1011,0 hPa 0,0 l/m 13,5 km/h (3 Bft) SW 229 2 min 0,000 mm 0,0 UV-I 213 W/m 0,7 C -1,5 C 20,9 km/h (4 Bft) 100,00 %
19.01.2018 15:16 3,9 C 3,9 C 79 % 1011,0 hPa 0,0 l/m 15,7 km/h (3 Bft) S-SW 192 2 min 0,000 mm 0,0 UV-I 203 W/m 0,6 C -2,6 C 25,7 km/h (4 Bft) 97,87 %
19.01.2018 15:18 4,0 C 3,9 C 79 % 1011,0 hPa 0,0 l/m 17,1 km/h (3 Bft) W-SW 246 2 min 0,000 mm 0,0 UV-I 177 W/m 0,7 C -3,2 C 27,4 km/h (4 Bft) 97,87 %
19.01.2018 15:20 4,0 C 3,9 C 79 % 1011,0 hPa 0,0 l/m 20,9 km/h (4 Bft) W-SW 244 2 min 0,000 mm 0,0 UV-I 153 W/m 0,7 C -4,8 C 30,6 km/h (5 Bft) 100,00 %
19.01.2018 15:22 4,0 C 3,9 C 79 % 1011,0 hPa 0,0 l/m 18,9 km/h (3 Bft) SW 232 2 min 0,000 mm 0,0 UV-I 175 W/m 0,7 C -4,0 C 24,1 km/h (4 Bft) 100,00 %
19.01.2018 15:24 4,1 C 3,9 C 80 % 1011,1 hPa 0,0 l/m 15,3 km/h (3 Bft) W 261 2 min 0,000 mm 0,0 UV-I 230 W/m 1,0 C -2,2 C 20,9 km/h (4 Bft) 97,87 %
19.01.2018 15:26 4,1 C 3,9 C 80 % 1011,1 hPa 0,0 l/m 17,0 km/h (3 Bft) W-SW 246 2 min 0,000 mm 0,0 UV-I 176 W/m 1,0 C -3,0 C 24,1 km/h (4 Bft) 100,00 %
19.01.2018 15:28 4,2 C 3,9 C 80 % 1011,2 hPa 0,0 l/m 15,2 km/h (3 Bft) W 259 2 min 0,000 mm 0,0 UV-I 191 W/m 1,1 C -2,0 C 20,9 km/h (4 Bft) 100,00 %
19.01.2018 15:30 4,2 C 3,9 C 79 % 1011,2 hPa 0,0 l/m 19,5 km/h (3 Bft) W-SW 242 2 min 0,000 mm 0,0 UV-I 125 W/m 0,9 C -4,0 C 30,6 km/h (5 Bft) 97,96 %
19.01.2018 15:32 4,3 C 3,9 C 77 % 1011,3 hPa 0,0 l/m 19,4 km/h (3 Bft) W 270 2 min 0,000 mm 0,0 UV-I 92 W/m 0,6 C -3,8 C 30,6 km/h (5 Bft) 97,92 %
19.01.2018 15:34 4,3 C 3,9 C 77 % 1011,3 hPa 0,0 l/m 17,5 km/h (3 Bft) N-NW 344 0 min 0,000 mm 0,0 UV-I 63 W/m 0,6 C -3,0 C 33,8 km/h (5 Bft) 100,00 %
19.01.2018 15:36 4,2 C 3,9 C 77 % 1011,4 hPa 0,0 l/m 14,8 km/h (3 Bft) W 273 0 min 0,000 mm 0,0 UV-I 48 W/m 0,5 C -1,8 C 29,0 km/h (5 Bft) 97,44 %
19.01.2018 15:38 3,9 C 3,9 C 78 % 1011,3 hPa 0,0 l/m 14,5 km/h (3 Bft) W 266 0 min 0,000 mm 0,0 UV-I 49 W/m 0,4 C -2,0 C 22,5 km/h (4 Bft) 97,87 %
19.01.2018 15:40 3,8 C 3,9 C 79 % 1011,3 hPa 0,0 l/m 18,7 km/h (3 Bft) W-SW 257 0 min 0,000 mm 0,0 UV-I 58 W/m 0,5 C -4,2 C 29,0 km/h (5 Bft) 100,00 %
19.01.2018 15:42 3,7 C 3,9 C 79 % 1011,1 hPa 0,0 l/m 19,6 km/h (3 Bft) W 266 0 min 0,000 mm 0,0 UV-I 65 W/m 0,4 C -4,7 C 30,6 km/h (5 Bft) 100,00 %
19.01.2018 15:44 3,7 C 3,9 C 79 % 1011,0 hPa 0,0 l/m 15,4 km/h (3 Bft) W 259 0 min 0,000 mm 0,0 UV-I 45 W/m 0,4 C -2,7 C 24,1 km/h (4 Bft) 100,00 %
19.01.2018 15:46 3,6 C 3,9 C 79 % 1011,1 hPa 0,0 l/m 14,9 km/h (3 Bft) W-SW 244 0 min 0,000 mm 0,0 UV-I 31 W/m 0,3 C -2,6 C 22,5 km/h (4 Bft) 100,00 %
19.01.2018 15:48 3,6 C 3,9 C 79 % 1011,2 hPa 0,0 l/m 15,7 km/h (3 Bft) W-SW 242 0 min 0,000 mm 0,0 UV-I 26 W/m 0,3 C -3,0 C 25,7 km/h (4 Bft) 100,00 %
19.01.2018 15:50 3,5 C 3,9 C 79 % 1011,2 hPa 0,0 l/m 12,7 km/h (3 Bft) W 269 0 min 0,000 mm 0,0 UV-I 29 W/m 0,2 C -1,4 C 17,7 km/h (3 Bft) 100,00 %
19.01.2018 15:52 3,5 C 3,9 C 80 % 1011,2 hPa 0,0 l/m 14,8 km/h (3 Bft) W 263 0 min 0,000 mm 0,0 UV-I 35 W/m 0,4 C -2,6 C 19,3 km/h (3 Bft) 97,87 %
19.01.2018 15:54 3,5 C 3,9 C 80 % 1011,2 hPa 0,0 l/m 15,4 km/h (3 Bft) W-SW 246 0 min 0,000 mm 0,0 UV-I 34 W/m 0,4 C -3,0 C 22,5 km/h (4 Bft) 100,00 %
19.01.2018 15:56 3,6 C 3,9 C 79 % 1011,2 hPa 0,0 l/m 13,4 km/h (3 Bft) W-SW 241 0 min 0,000 mm 0,0 UV-I 28 W/m 0,3 C -1,7 C 17,7 km/h (3 Bft) 97,14 %
19.01.2018 15:58 3,6 C 3,9 C 79 % 1011,2 hPa 0,0 l/m 15,2 km/h (3 Bft) W-SW 239 0 min 0,000 mm 0,0 UV-I 23 W/m 0,3 C -2,7 C 20,9 km/h (4 Bft) 100,00 %
19.01.2018 16:00 3,7 C 3,9 C 79 % 1011,3 hPa 0,0 l/m 15,0 km/h (3 Bft) W-SW 249 0 min 0,000 mm 0,0 UV-I 20 W/m 0,4 C -2,5 C 24,1 km/h (4 Bft) 100,00 %
19.01.2018 16:02 3,7 C 3,9 C 78 % 1011,3 hPa 0,0 l/m 14,2 km/h (3 Bft) SW 227 0 min 0,076 mm 0,0 UV-I 18 W/m 0,2 C -2,1 C 24,1 km/h (4 Bft) 96,00 %
19.01.2018 16:04 3,7 C 3,9 C 79 % 1011,3 hPa 0,0 l/m 12,0 km/h (2 Bft) W-SW 242 0 min 0,000 mm 0,0 UV-I 18 W/m 0,4 C -0,7 C 19,3 km/h (3 Bft) 100,00 %
19.01.2018 16:06 3,7 C 3,9 C 79 % 1011,3 hPa 0,0 l/m 16,2 km/h (3 Bft) W-SW 248 0 min 0,000 mm 0,0 UV-I 18 W/m 0,4 C -3,1 C 22,5 km/h (4 Bft) 100,00 %
19.01.2018 16:08 3,8 C 3,9 C 78 % 1011,2 hPa 0,0 l/m 20,5 km/h (4 Bft) W-SW 241 0 min 0,000 mm 0,0 UV-I 18 W/m 0,3 C -4,9 C 33,8 km/h (5 Bft) 97,87 %
19.01.2018 16:10 3,9 C 3,9 C 77 % 1011,3 hPa 0,0 l/m 17,9 km/h (3 Bft) W-SW 258 0 min 0,000 mm 0,0 UV-I 14 W/m 0,2 C -3,7 C 29,0 km/h (5 Bft) 97,87 %
19.01.2018 16:12 3,9 C 3,9 C 76 % 1011,3 hPa 0,0 l/m 20,9 km/h (4 Bft) W-SW 254 0 min 0,000 mm 0,0 UV-I 14 W/m 0,1 C -5,0 C 33,8 km/h (5 Bft) 95,74 %
19.01.2018 16:14 3,9 C 3,9 C 76 % 1011,3 hPa 0,0 l/m 22,5 km/h (4 Bft) W 271 0 min 0,000 mm 0,0 UV-I 13 W/m 0,1 C -5,6 C 30,6 km/h (5 Bft) 97,92 %
19.01.2018 16:16 3,8 C 3,9 C 76 % 1011,4 hPa 0,0 l/m 17,0 km/h (3 Bft) SW 233 0 min 0,000 mm 0,0 UV-I 13 W/m -0,0 C -3,4 C 30,6 km/h (5 Bft) 97,96 %
19.01.2018 16:18 3,8 C 3,9 C 76 % 1011,4 hPa 0,0 l/m 17,8 km/h (3 Bft) W-NW 285 0 min 0,000 mm 0,0 UV-I 12 W/m -0,0 C -3,8 C 27,4 km/h (4 Bft) 97,87 %
19.01.2018 16:20 3,8 C 3,9 C 76 % 1011,3 hPa 0,0 l/m 14,6 km/h (3 Bft) W-SW 249 0 min 0,000 mm 0,0 UV-I 12 W/m -0,0 C -2,2 C 24,1 km/h (4 Bft) 95,74 %
19.01.2018 16:22 3,7 C 3,9 C 77 % 1011,3 hPa 0,0 l/m 12,7 km/h (3 Bft) W 262 0 min 0,000 mm 0,0 UV-I 12 W/m 0,1 C -1,2 C 17,7 km/h (3 Bft) 97,37 %
19.01.2018 16:24 3,7 C 3,9 C 77 % 1011,3 hPa 0,0 l/m 16,1 km/h (3 Bft) W-SW 254 0 min 0,000 mm 0,0 UV-I 12 W/m 0,1 C -3,1 C 24,1 km/h (4 Bft) 97,87 %
19.01.2018 16:26 3,6 C 3,9 C 77 % 1011,3 hPa 0,0 l/m 17,5 km/h (3 Bft) W 259 0 min 0,000 mm 0,0 UV-I 11 W/m -0,0 C -3,9 C 25,7 km/h (4 Bft) 96,23 %
19.01.2018 16:28 3,6 C 3,9 C 77 % 1011,3 hPa 0,0 l/m 16,5 km/h (3 Bft) W 259 0 min 0,000 mm 0,0 UV-I 11 W/m -0,0 C -3,4 C 22,5 km/h (4 Bft) 95,74 %
19.01.2018 16:30 3,6 C 3,9 C 77 % 1011,3 hPa 0,0 l/m 15,3 km/h (3 Bft) W-SW 250 2 min 0,000 mm 0,0 UV-I 11 W/m -0,0 C -2,8 C 22,5 km/h (4 Bft) 97,87 %
19.01.2018 16:32 3,6 C 3,9 C 77 % 1011,3 hPa 0,0 l/m 19,9 km/h (4 Bft) W-SW 240 0 min 0,000 mm 0,0 UV-I 11 W/m -0,0 C -4,9 C 25,7 km/h (4 Bft) 95,74 %
19.01.2018 16:34 3,5 C 3,9 C 77 % 1011,3 hPa 0,0 l/m 13,8 km/h (3 Bft) W-SW 256 0 min 0,000 mm 0,0 UV-I 11 W/m -0,1 C -2,1 C 19,3 km/h (3 Bft) 94,29 %
19.01.2018 16:36 3,5 C 3,9 C 77 % 1011,2 hPa 0,0 l/m 15,0 km/h (3 Bft) W 279 0 min 0,000 mm 0,0 UV-I 11 W/m -0,1 C -2,7 C 19,3 km/h (3 Bft) 94,00 %
19.01.2018 16:38 3,5 C 3,9 C 77 % 1011,3 hPa 0,0 l/m 12,8 km/h (3 Bft) W 274 0 min 0,000 mm 0,0 UV-I 9 W/m -0,1 C -1,5 C 19,3 km/h (3 Bft) 97,87 %
19.01.2018 16:40 3,4 C 3,9 C 77 % 1011,2 hPa 0,0 l/m 11,5 km/h (2 Bft) W-SW 247 0 min 0,000 mm 0,0 UV-I 9 W/m -0,2 C -0,8 C 19,3 km/h (3 Bft) 97,87 %
19.01.2018 16:42 3,3 C 3,9 C 78 % 1011,2 hPa 0,0 l/m 10,5 km/h (2 Bft) W 277 0 min 0,000 mm 0,0 UV-I 9 W/m -0,2 C -0,2 C 16,1 km/h (3 Bft) 97,87 %
19.01.2018 16:44 3,3 C 3,9 C 78 % 1011,3 hPa 0,0 l/m 11,7 km/h (2 Bft) W-NW 284 0 min 0,000 mm 0,0 UV-I 8 W/m -0,2 C -1,0 C 19,3 km/h (3 Bft) 95,83 %
19.01.2018 16:46 3,3 C 3,9 C 78 % 1011,3 hPa 0,0 l/m 12,8 km/h (3 Bft) W 261 0 min 0,000 mm 0,0 UV-I 7 W/m -0,2 C -1,7 C 16,1 km/h (3 Bft) 100,00 %
19.01.2018 16:48 3,2 C 3,9 C 78 % 1011,3 hPa 0,0 l/m 11,0 km/h (2 Bft) W-SW 246 0 min 0,000 mm 0,0 UV-I 7 W/m -0,3 C -0,6 C 16,1 km/h (3 Bft) 97,87 %
19.01.2018 16:50 3,2 C 3,9 C 78 % 1011,2 hPa 0,0 l/m 14,6 km/h (3 Bft) W-SW 245 0 min 0,000 mm 0,0 UV-I 7 W/m -0,3 C -2,9 C 17,7 km/h (3 Bft) 95,74 %
19.01.2018 16:52 3,1 C 3,9 C 78 % 1011,3 hPa 0,0 l/m 11,7 km/h (2 Bft) W 263 0 min 0,000 mm 0,0 UV-I 5 W/m -0,4 C -1,2 C 17,7 km/h (3 Bft) 97,87 %
19.01.2018 16:54 3,1 C 3,9 C 79 % 1011,3 hPa 0,0 l/m 12,3 km/h (3 Bft) W 279 0 min 0,000 mm 0,0 UV-I 5 W/m -0,2 C -1,6 C 16,1 km/h (3 Bft) 100,00 %
19.01.2018 16:56 3,0 C 3,9 C 79 % 1011,3 hPa 0,0 l/m 12,4 km/h (3 Bft) W-SW 244 0 min 0,000 mm 0,0 UV-I 5 W/m -0,3 C -1,8 C 19,3 km/h (3 Bft) 95,74 %
19.01.2018 16:58 3,0 C 3,9 C 79 % 1011,3 hPa 0,0 l/m 10,6 km/h (2 Bft) W-SW 254 0 min 0,000 mm 0,0 UV-I 5 W/m -0,3 C -0,6 C 14,5 km/h (3 Bft) 100,00 %
19.01.2018 17:00 3,0 C 3,9 C 79 % 1011,3 hPa 0,0 l/m 12,1 km/h (2 Bft) W-SW 241 0 min 0,000 mm 0,0 UV-I 4 W/m -0,3 C -1,6 C 16,1 km/h (3 Bft) 100,00 %
19.01.2018 17:02 3,1 C 3,9 C 79 % 1011,3 hPa 0,0 l/m 10,5 km/h (2 Bft) SW 234 0 min 0,026 mm 0,0 UV-I 0 W/m -0,2 C -0,4 C 16,1 km/h (3 Bft) 100,00 %
19.01.2018 17:04 2,9 C 3,9 C 79 % 1011,3 hPa 0,0 l/m 10,7 km/h (2 Bft) W-SW 244 0 min 0,000 mm 0,0 UV-I 0 W/m -0,4 C -0,8 C 16,1 km/h (3 Bft) 100,00 %
19.01.2018 17:06 2,9 C 3,9 C 80 % 1011,3 hPa 0,0 l/m 9,6 km/h (2 Bft) SW 222 0 min 0,000 mm 0,0 UV-I 0 W/m -0,2 C 0,1 C 14,5 km/h (3 Bft) 100,00 %
19.01.2018 17:08 2,8 C 3,9 C 81 % 1011,4 hPa 0,0 l/m 8,0 km/h (2 Bft) W-SW 239 0 min 0,000 mm 0,0 UV-I 0 W/m -0,1 C 1,3 C 12,9 km/h (3 Bft) 100,00 %
19.01.2018 17:10 2,7 C 3,9 C 81 % 1011,4 hPa 0,0 l/m 7,3 km/h (2 Bft) SW 223 0 min 0,000 mm 0,0 UV-I 0 W/m -0,2 C 1,8 C 11,3 km/h (2 Bft) 100,00 %
19.01.2018 17:12 2,6 C 3,9 C 82 % 1011,4 hPa 0,0 l/m 7,4 km/h (2 Bft) W-SW 238 0 min 0,000 mm 0,0 UV-I 0 W/m -0,2 C 1,6 C 11,3 km/h (2 Bft) 97,37 %
19.01.2018 17:14 2,6 C 3,9 C 82 % 1011,5 hPa 0,0 l/m 9,6 km/h (2 Bft) SW 235 0 min 0,000 mm 0,0 UV-I 0 W/m -0,2 C -0,3 C 14,5 km/h (3 Bft) 100,00 %
19.01.2018 17:16 2,6 C 3,9 C 82 % 1011,5 hPa 0,0 l/m 9,6 km/h (2 Bft) W-SW 244 0 min 0,000 mm 0,0 UV-I 0 W/m -0,2 C -0,3 C 14,5 km/h (3 Bft) 100,00 %
19.01.2018 17:18 2,6 C 3,9 C 82 % 1011,5 hPa 0,0 l/m 9,9 km/h (2 Bft) W-SW 248 0 min 0,000 mm 0,0 UV-I 0 W/m -0,2 C -0,5 C 16,1 km/h (3 Bft) 100,00 %
19.01.2018 17:20 2,6 C 3,9 C 83 % 1011,4 hPa 0,0 l/m 11,5 km/h (2 Bft) W-SW 252 0 min 0,000 mm 0,0 UV-I 0 W/m 0,0 C -1,7 C 14,5 km/h (3 Bft) 100,00 %
19.01.2018 17:22 2,6 C 3,9 C 83 % 1011,5 hPa 0,0 l/m 15,8 km/h (3 Bft) W-SW 240 0 min 0,000 mm 0,0 UV-I 0 W/m 0,0 C -4,3 C 22,5 km/h (4 Bft) 98,00 %
19.01.2018 17:24 2,6 C 3,9 C 83 % 1011,6 hPa 0,0 l/m 11,2 km/h (2 Bft) W-SW 244 0 min 0,000 mm 0,0 UV-I 0 W/m 0,0 C -1,5 C 16,1 km/h (3 Bft) 100,00 %
19.01.2018 17:26 2,5 C 3,9 C 83 % 1011,5 hPa 0,0 l/m 13,5 km/h (3 Bft) SW 232 0 min 0,000 mm 0,0 UV-I 0 W/m -0,1 C -3,1 C 17,7 km/h (3 Bft) 97,22 %
19.01.2018 17:28 2,4 C 3,9 C 83 % 1011,4 hPa 0,0 l/m 14,0 km/h (3 Bft) SW 232 0 min 0,000 mm 0,0 UV-I 0 W/m -0,2 C -3,5 C 17,7 km/h (3 Bft) 100,00 %
19.01.2018 17:30 2,4 C 3,9 C 83 % 1011,4 hPa 0,0 l/m 11,6 km/h (2 Bft) W-SW 247 0 min 0,000 mm 0,0 UV-I 0 W/m -0,2 C -2,0 C 16,1 km/h (3 Bft) 100,00 %
19.01.2018 17:32 2,3 C 3,9 C 83 % 1011,4 hPa 0,0 l/m 11,0 km/h (2 Bft) W 259 0 min 0,000 mm 0,0 UV-I 0 W/m -0,3 C -1,7 C 20,9 km/h (4 Bft) 100,00 %
19.01.2018 17:34 2,4 C 3,9 C 83 % 1011,5 hPa 0,0 l/m 11,8 km/h (2 Bft) W-SW 248 0 min 0,000 mm 0,0 UV-I 0 W/m -0,2 C -2,1 C 17,7 km/h (3 Bft) 98,00 %
19.01.2018 17:36 2,3 C 3,9 C 83 % 1011,5 hPa 0,0 l/m 9,0 km/h (2 Bft) W 266 0 min 0,000 mm 0,0 UV-I 0 W/m -0,3 C -0,1 C 12,9 km/h (3 Bft) 97,87 %
19.01.2018 17:38 2,2 C 3,9 C 83 % 1011,5 hPa 0,0 l/m 9,5 km/h (2 Bft) W-SW 240 0 min 0,000 mm 0,0 UV-I 0 W/m -0,4 C -0,6 C 12,9 km/h (3 Bft) 100,00 %
19.01.2018 17:40 2,3 C 3,9 C 83 % 1011,5 hPa 0,0 l/m 9,5 km/h (2 Bft) W-SW 257 0 min 0,000 mm 0,0 UV-I 0 W/m -0,3 C -0,5 C 12,9 km/h (3 Bft) 95,74 %
19.01.2018 17:42 2,2 C 3,9 C 83 % 1011,4 hPa 0,0 l/m 10,5 km/h (2 Bft) SW 232 0 min 0,000 mm 0,0 UV-I 0 W/m -0,4 C -1,4 C 16,1 km/h (3 Bft) 97,87 %
19.01.2018 17:44 2,2 C 3,9 C 84 % 1011,4 hPa 0,0 l/m 11,0 km/h (2 Bft) W-SW 258 0 min 0,000 mm 0,0 UV-I 0 W/m -0,2 C -1,8 C 17,7 km/h (3 Bft) 98,00 %
19.01.2018 17:46 2,1 C 3,9 C 84 % 1011,5 hPa 0,0 l/m 11,8 km/h (2 Bft) W 271 0 min 0,000 mm 0,0 UV-I 0 W/m -0,3 C -2,4 C 17,7 km/h (3 Bft) 95,74 %
19.01.2018 17:48 2,1 C 3,9 C 84 % 1011,5 hPa 0,0 l/m 10,9 km/h (2 Bft) W-SW 238 0 min 0,000 mm 0,0 UV-I 0 W/m -0,3 C -1,8 C 14,5 km/h (3 Bft) 97,37 %
19.01.2018 17:50 2,0 C 3,9 C 85 % 1011,6 hPa 0,0 l/m 8,2 km/h (2 Bft) W-SW 255 0 min 0,000 mm 0,0 UV-I 0 W/m -0,3 C 0,3 C 14,5 km/h (3 Bft) 98,00 %
19.01.2018 17:52 1,9 C 3,9 C 85 % 1011,5 hPa 0,0 l/m 6,3 km/h (2 Bft) W 260 0 min 0,000 mm 0,0 UV-I 0 W/m -0,3 C 1,9 C 9,7 km/h (2 Bft) 98,11 %
19.01.2018 17:54 2,0 C 3,9 C 85 % 1011,5 hPa 0,0 l/m 8,9 km/h (2 Bft) W-SW 246 0 min 0,000 mm 0,0 UV-I 0 W/m -0,3 C -0,3 C 12,9 km/h (3 Bft) 97,87 %
19.01.2018 17:56 2,0 C 3,9 C 85 % 1011,6 hPa 0,0 l/m 10,5 km/h (2 Bft) W-SW 252 0 min 0,000 mm 0,0 UV-I 0 W/m -0,3 C -1,6 C 19,3 km/h (3 Bft) 95,74 %
19.01.2018 17:58 2,0 C 3,9 C 85 % 1011,6 hPa 0,0 l/m 9,5 km/h (2 Bft) W-SW 252 0 min 0,000 mm 0,0 UV-I 0 W/m -0,3 C -0,8 C 12,9 km/h (3 Bft) 97,87 %
19.01.2018 18:00 1,9 C 3,9 C 85 % 1011,7 hPa 0,0 l/m 10,9 km/h (2 Bft) W 259 0 min 0,025 mm 0,0 UV-I 0 W/m -0,3 C -2,0 C 17,7 km/h (3 Bft) 95,74 %
19.01.2018 18:02 1,9 C 3,9 C 85 % 1011,8 hPa 0,0 l/m 11,3 km/h (2 Bft) W-SW 255 0 min 0,000 mm 0,0 UV-I 0 W/m -0,3 C -2,3 C 16,1 km/h (3 Bft) 95,74 %
19.01.2018 18:04 2,0 C 3,9 C 84 % 1011,7 hPa 0,0 l/m 9,9 km/h (2 Bft) W-SW 256 0 min 0,000 mm 0,0 UV-I 0 W/m -0,4 C -1,2 C 16,1 km/h (3 Bft) 97,87 %
19.01.2018 18:06 2,0 C 3,9 C 84 % 1011,7 hPa 0,0 l/m 10,4 km/h (2 Bft) W-SW 255 0 min 0,000 mm 0,0 UV-I 0 W/m -0,4 C -1,5 C 16,1 km/h (3 Bft) 97,22 %
19.01.2018 18:08 1,9 C 3,9 C 84 % 1011,7 hPa 0,0 l/m 10,0 km/h (2 Bft) W-SW 245 0 min 0,000 mm 0,0 UV-I 0 W/m -0,5 C -1,4 C 14,5 km/h (3 Bft) 96,00 %
19.01.2018 18:10 1,9 C 3,9 C 84 % 1011,8 hPa 0,0 l/m 11,1 km/h (2 Bft) W-SW 237 0 min 0,000 mm 0,0 UV-I 0 W/m -0,5 C -2,2 C 14,5 km/h (3 Bft) 95,74 %
19.01.2018 18:12 1,9 C 3,9 C 84 % 1011,7 hPa 0,0 l/m 8,3 km/h (2 Bft) SW 235 0 min 0,000 mm 0,0 UV-I 0 W/m -0,5 C 0,1 C 12,9 km/h (3 Bft) 97,87 %
19.01.2018 18:14 1,9 C 3,9 C 84 % 1011,7 hPa 0,0 l/m 10,2 km/h (2 Bft) SW 234 0 min 0,000 mm 0,0 UV-I 0 W/m -0,5 C -1,5 C 14,5 km/h (3 Bft) 98,00 %
19.01.2018 18:16 1,9 C 3,9 C 84 % 1011,7 hPa 0,0 l/m 9,4 km/h (2 Bft) SW 230 0 min 0,000 mm 0,0 UV-I 0 W/m -0,5 C -0,9 C 16,1 km/h (3 Bft) 95,74 %
19.01.2018 18:18 1,9 C 3,9 C 84 % 1011,7 hPa 0,0 l/m 8,5 km/h (2 Bft) SW 233 0 min 0,000 mm 0,0 UV-I 0 W/m -0,5 C -0,1 C 12,9 km/h (3 Bft) 97,87 %
19.01.2018 18:20 1,9 C 3,9 C 84 % 1011,7 hPa 0,0 l/m 7,7 km/h (2 Bft) S-SW 207 0 min 0,000 mm 0,0 UV-I 0 W/m -0,5 C 0,6 C 12,9 km/h (3 Bft) 95,74 %
19.01.2018 18:22 1,9 C 3,9 C 84 % 1011,8 hPa 0,0 l/m 9,6 km/h (2 Bft) S-SW 212 0 min 0,000 mm 0,0 UV-I 0 W/m -0,5 C -1,0 C 14,5 km/h (3 Bft) 94,00 %
19.01.2018 18:24 1,9 C 3,9 C 84 % 1011,8 hPa 0,0 l/m 10,0 km/h (2 Bft) S-SW 210 0 min 0,000 mm 0,0 UV-I 0 W/m -0,5 C -1,4 C 14,5 km/h (3 Bft) 93,62 %
19.01.2018 18:26 1,8 C 3,9 C 84 % 1011,8 hPa 0,0 l/m 7,9 km/h (2 Bft) S-SW 193 0 min 0,000 mm 0,0 UV-I 0 W/m -0,6 C 0,3 C 11,3 km/h (2 Bft) 93,62 %
19.01.2018 18:28 1,8 C 3,9 C 85 % 1011,8 hPa 0,0 l/m 9,1 km/h (2 Bft) SW 227 0 min 0,000 mm 0,0 UV-I 0 W/m -0,4 C -0,7 C 14,5 km/h (3 Bft) 93,62 %
19.01.2018 18:30 1,7 C 3,9 C 85 % 1011,8 hPa 0,0 l/m 8,5 km/h (2 Bft) S-SW 211 0 min 0,000 mm 0,0 UV-I 0 W/m -0,5 C -0,3 C 12,9 km/h (3 Bft) 93,62 %
19.01.2018 18:32 1,7 C 3,9 C 86 % 1011,8 hPa 0,0 l/m 9,6 km/h (2 Bft) SW 223 0 min 0,000 mm 0,0 UV-I 0 W/m -0,4 C -1,3 C 14,5 km/h (3 Bft) 95,74 %
19.01.2018 18:34 1,7 C 3,9 C 86 % 1011,8 hPa 0,0 l/m 9,2 km/h (2 Bft) S-SW 206 0 min 0,000 mm 0,0 UV-I 0 W/m -0,4 C -0,9 C 12,9 km/h (3 Bft) 95,74 %
19.01.2018 18:36 1,7 C 3,9 C 86 % 1011,8 hPa 0,0 l/m 9,5 km/h (2 Bft) S-SW 197 0 min 0,000 mm 0,0 UV-I 0 W/m -0,4 C -1,2 C 14,5 km/h (3 Bft) 95,74 %
19.01.2018 18:38 1,6 C 3,9 C 86 % 1011,9 hPa 0,0 l/m 9,7 km/h (2 Bft) S-SW 200 0 min 0,000 mm 0,0 UV-I 0 W/m -0,5 C -1,4 C 14,5 km/h (3 Bft) 94,59 %
19.01.2018 18:40 1,6 C 3,9 C 87 % 1011,9 hPa 0,0 l/m 7,9 km/h (2 Bft) S-SW 206 0 min 0,000 mm 0,0 UV-I 0 W/m -0,3 C 0,1 C 12,9 km/h (3 Bft) 96,00 %
19.01.2018 18:42 1,6 C 3,9 C 87 % 1011,9 hPa 0,0 l/m 9,8 km/h (2 Bft) S 171 0 min 0,000 mm 0,0 UV-I 0 W/m -0,3 C -1,5 C 12,9 km/h (3 Bft) 95,74 %
19.01.2018 18:44 1,6 C 3,9 C 87 % 1011,9 hPa 0,0 l/m 7,4 km/h (2 Bft) SW 217 0 min 0,000 mm 0,0 UV-I 0 W/m -0,3 C 0,6 C 12,9 km/h (3 Bft) 94,00 %
19.01.2018 18:46 1,6 C 3,9 C 87 % 1012,0 hPa 0,0 l/m 7,5 km/h (2 Bft) S-SW 209 0 min 0,000 mm 0,0 UV-I 0 W/m -0,3 C 0,5 C 11,3 km/h (2 Bft) 93,75 %
19.01.2018 18:48 1,7 C 3,9 C 87 % 1012,0 hPa 0,0 l/m 8,2 km/h (2 Bft) S-SW 198 0 min 0,000 mm 0,0 UV-I 0 W/m -0,2 C -0,0 C 12,9 km/h (3 Bft) 95,74 %
19.01.2018 18:50 1,7 C 3,9 C 87 % 1012,0 hPa 0,0 l/m 9,0 km/h (2 Bft) SW 223 0 min 0,000 mm 0,0 UV-I 0 W/m -0,2 C -0,8 C 12,9 km/h (3 Bft) 95,74 %
19.01.2018 18:52 1,7 C 3,9 C 87 % 1012,0 hPa 0,0 l/m 7,2 km/h (2 Bft) SW 227 0 min 0,000 mm 0,0 UV-I 0 W/m -0,2 C 0,9 C 12,9 km/h (3 Bft) 95,74 %
19.01.2018 18:54 1,7 C 3,9 C 87 % 1012,0 hPa 0,0 l/m 6,8 km/h (2 Bft) S-SW 213 0 min 0,000 mm 0,0 UV-I 0 W/m -0,2 C 1,3 C 11,3 km/h (2 Bft) 97,87 %
19.01.2018 18:56 1,7 C 3,9 C 87 % 1012,0 hPa 0,0 l/m 7,4 km/h (2 Bft) S-SW 213 0 min 0,000 mm 0,0 UV-I 0 W/m -0,2 C 0,7 C 14,5 km/h (3 Bft) 97,87 %
19.01.2018 18:58 1,7 C 3,9 C 87 % 1012,0 hPa 0,0 l/m 7,8 km/h (2 Bft) S-SW 212 0 min 0,000 mm 0,0 UV-I 0 W/m -0,2 C 0,3 C 12,9 km/h (3 Bft) 97,37 %
19.01.2018 19:00 1,8 C 3,9 C 87 % 1012,0 hPa 0,0 l/m 8,7 km/h (2 Bft) SW 220 0 min 0,000 mm 0,0 UV-I 0 W/m -0,1 C -0,4 C 12,9 km/h (3 Bft) 100,00 %
19.01.2018 19:02 1,9 C 3,9 C 87 % 1011,9 hPa 0,0 l/m 9,4 km/h (2 Bft) SW 231 0 min 0,000 mm 0,0 UV-I 0 W/m -0,0 C -0,9 C 16,1 km/h (3 Bft) 97,87 %
19.01.2018 19:04 1,9 C 3,9 C 87 % 1011,9 hPa 0,0 l/m 9,5 km/h (2 Bft) S-SW 212 0 min 0,000 mm 0,0 UV-I 0 W/m -0,0 C -1,0 C 14,5 km/h (3 Bft) 96,00 %
19.01.2018 19:06 2,0 C 3,9 C 87 % 1011,9 hPa 0,0 l/m 10,2 km/h (2 Bft) SW 232 0 min 0,000 mm 0,0 UV-I 0 W/m 0,1 C -1,4 C 17,7 km/h (3 Bft) 100,00 %
19.01.2018 19:08 2,0 C 3,9 C 87 % 1012,0 hPa 0,0 l/m 13,2 km/h (3 Bft) W-SW 241 0 min 0,000 mm 0,0 UV-I 0 W/m 0,1 C -3,5 C 19,3 km/h (3 Bft) 100,00 %
19.01.2018 19:10 2,1 C 3,9 C 87 % 1012,0 hPa 0,0 l/m 11,9 km/h (2 Bft) SW 234 0 min 0,000 mm 0,0 UV-I 0 W/m 0,2 C -2,5 C 19,3 km/h (3 Bft) 100,00 %
19.01.2018 19:12 2,1 C 3,9 C 87 % 1012,0 hPa 0,0 l/m 15,0 km/h (3 Bft) W-SW 238 0 min 0,000 mm 0,0 UV-I 0 W/m 0,2 C -4,4 C 20,9 km/h (4 Bft) 98,00 %
19.01.2018 19:14 2,1 C 3,9 C 86 % 1012,0 hPa 0,0 l/m 12,5 km/h (3 Bft) W-SW 248 0 min 0,000 mm 0,0 UV-I 0 W/m 0,0 C -2,9 C 19,3 km/h (3 Bft) 97,87 %
19.01.2018 19:16 2,1 C 3,9 C 86 % 1012,0 hPa 0,0 l/m 13,9 km/h (3 Bft) W-SW 258 0 min 0,000 mm 0,0 UV-I 0 W/m 0,0 C -3,8 C 22,5 km/h (4 Bft) 95,74 %
19.01.2018 19:18 2,1 C 3,9 C 86 % 1012,0 hPa 0,0 l/m 14,4 km/h (3 Bft) W-SW 250 0 min 0,000 mm 0,0 UV-I 0 W/m 0,0 C -4,1 C 17,7 km/h (3 Bft) 97,87 %
19.01.2018 19:20 2,2 C 3,9 C 86 % 1012,0 hPa 0,0 l/m 14,0 km/h (3 Bft) W-SW 238 0 min 0,000 mm 0,0 UV-I 0 W/m 0,1 C -3,7 C 19,3 km/h (3 Bft) 98,00 %
19.01.2018 19:22 2,2 C 3,9 C 86 % 1012,0 hPa 0,0 l/m 12,5 km/h (3 Bft) SW 236 0 min 0,000 mm 0,0 UV-I 0 W/m 0,1 C -2,8 C 24,1 km/h (4 Bft) 100,00 %
19.01.2018 19:24 2,2 C 3,9 C 86 % 1012,0 hPa 0,0 l/m 12,2 km/h (2 Bft) SW 236 0 min 0,000 mm 0,0 UV-I 0 W/m 0,1 C -2,6 C 20,9 km/h (4 Bft) 97,87 %
19.01.2018 19:26 2,2 C 3,9 C 86 % 1012,0 hPa 0,0 l/m 11,7 km/h (2 Bft) W-SW 238 0 min 0,000 mm 0,0 UV-I 0 W/m 0,1 C -2,3 C 19,3 km/h (3 Bft) 95,83 %
19.01.2018 19:28 2,2 C 3,9 C 86 % 1012,0 hPa 0,0 l/m 13,0 km/h (3 Bft) SW 222 0 min 0,000 mm 0,0 UV-I 0 W/m 0,1 C -3,1 C 19,3 km/h (3 Bft) 97,87 %
19.01.2018 19:30 2,2 C 3,9 C 86 % 1012,0 hPa 0,0 l/m 11,0 km/h (2 Bft) W-SW 242 0 min 0,000 mm 0,0 UV-I 0 W/m 0,1 C -1,8 C 16,1 km/h (3 Bft) 100,00 %
19.01.2018 19:32 2,2 C 3,9 C 86 % 1011,9 hPa 0,0 l/m 11,1 km/h (2 Bft) SW 231 0 min 0,000 mm 0,0 UV-I 0 W/m 0,1 C -1,8 C 16,1 km/h (3 Bft) 97,87 %
19.01.2018 19:34 2,2 C 3,9 C 86 % 1011,9 hPa 0,0 l/m 11,7 km/h (2 Bft) W-SW 256 0 min 0,000 mm 0,0 UV-I 0 W/m 0,1 C -2,3 C 16,1 km/h (3 Bft) 100,00 %
19.01.2018 19:36 2,2 C 3,9 C 86 % 1011,9 hPa 0,0 l/m 14,0 km/h (3 Bft) SW 232 0 min 0,000 mm 0,0 UV-I 0 W/m 0,1 C -3,7 C 19,3 km/h (3 Bft) 100,00 %
19.01.2018 19:38 2,2 C 3,9 C 86 % 1011,9 hPa 0,0 l/m 14,3 km/h (3 Bft) SW 234 0 min 0,000 mm 0,0 UV-I 0 W/m 0,1 C -3,9 C 19,3 km/h (3 Bft) 93,62 %
19.01.2018 19:40 2,1 C 3,9 C 86 % 1012,0 hPa 0,0 l/m 13,8 km/h (3 Bft) SW 227 0 min 0,000 mm 0,0 UV-I 0 W/m 0,0 C -3,7 C 20,9 km/h (4 Bft) 100,00 %
19.01.2018 19:42 2,1 C 3,9 C 87 % 1012,0 hPa 0,0 l/m 14,1 km/h (3 Bft) S-SW 211 0 min 0,000 mm 0,0 UV-I 0 W/m 0,2 C -3,9 C 19,3 km/h (3 Bft) 100,00 %
19.01.2018 19:44 2,1 C 3,9 C 87 % 1011,9 hPa 0,0 l/m 14,9 km/h (3 Bft) SW 233 0 min 0,000 mm 0,0 UV-I 0 W/m 0,2 C -4,4 C 19,3 km/h (3 Bft) 100,00 %
19.01.2018 19:46 2,0 C 3,9 C 87 % 1011,9 hPa 0,0 l/m 14,2 km/h (3 Bft) W 261 0 min 0,000 mm 0,0 UV-I 0 W/m 0,1 C -4,1 C 20,9 km/h (4 Bft) 98,00 %
19.01.2018 19:48 2,1 C 3,9 C 87 % 1011,9 hPa 0,0 l/m 12,9 km/h (3 Bft) SW 228 0 min 0,000 mm 0,0 UV-I 0 W/m 0,2 C -3,2 C 19,3 km/h (3 Bft) 97,87 %
19.01.2018 19:50 2,0 C 3,9 C 87 % 1011,9 hPa 0,0 l/m 12,4 km/h (3 Bft) S-SW 204 0 min 0,000 mm 0,0 UV-I 0 W/m 0,1 C -3,0 C 16,1 km/h (3 Bft) 100,00 %
19.01.2018 19:52 2,0 C 3,9 C 87 % 1011,8 hPa 0,0 l/m 12,7 km/h (3 Bft) SW 234 0 min 0,000 mm 0,0 UV-I 0 W/m 0,1 C -3,2 C 17,7 km/h (3 Bft) 97,87 %
19.01.2018 19:54 2,0 C 3,9 C 87 % 1011,8 hPa 0,0 l/m 16,2 km/h (3 Bft) W-SW 241 0 min 0,000 mm 0,0 UV-I 0 W/m 0,1 C -5,2 C 20,9 km/h (4 Bft) 100,00 %
19.01.2018 19:56 2,1 C 3,9 C 87 % 1011,9 hPa 0,0 l/m 14,0 km/h (3 Bft) SW 224 0 min 0,000 mm 0,0 UV-I 0 W/m 0,2 C -3,9 C 20,9 km/h (4 Bft) 97,44 %
19.01.2018 19:58 2,1 C 3,9 C 87 % 1011,9 hPa 0,0 l/m 18,2 km/h (3 Bft) W-SW 252 0 min 0,000 mm 0,0 UV-I 0 W/m 0,2 C -6,1 C 25,7 km/h (4 Bft) 100,00 %
19.01.2018 20:00 2,1 C 3,9 C 87 % 1011,9 hPa 0,0 l/m 16,3 km/h (3 Bft) W-SW 254 0 min 0,000 mm 0,0 UV-I 0 W/m 0,2 C -5,1 C 22,5 km/h (4 Bft) 97,87 %
19.01.2018 20:02 2,2 C 3,9 C 86 % 1011,8 hPa 0,0 l/m 14,7 km/h (3 Bft) W-SW 245 0 min 0,025 mm 0,0 UV-I 0 W/m 0,1 C -4,1 C 20,9 km/h (4 Bft) 100,00 %
19.01.2018 20:04 2,2 C 3,9 C 86 % 1011,9 hPa 0,0 l/m 16,9 km/h (3 Bft) W-SW 237 0 min 0,000 mm 0,0 UV-I 0 W/m 0,1 C -5,3 C 22,5 km/h (4 Bft) 97,87 %
19.01.2018 20:06 2,2 C 3,9 C 86 % 1011,8 hPa 0,0 l/m 12,7 km/h (3 Bft) SW 225 0 min 0,000 mm 0,0 UV-I 0 W/m 0,1 C -2,9 C 19,3 km/h (3 Bft) 100,00 %
19.01.2018 20:08 2,2 C 3,9 C 86 % 1011,9 hPa 0,0 l/m 14,7 km/h (3 Bft) W-SW 247 0 min 0,000 mm 0,0 UV-I 0 W/m 0,1 C -4,1 C 20,9 km/h (4 Bft) 100,00 %
19.01.2018 20:10 2,2 C 3,9 C 86 % 1011,8 hPa 0,0 l/m 15,4 km/h (3 Bft) SW 234 0 min 0,000 mm 0,0 UV-I 0 W/m 0,1 C -4,5 C 25,7 km/h (4 Bft) 97,87 %
19.01.2018 20:12 2,2 C 3,9 C 86 % 1011,9 hPa 0,0 l/m 14,3 km/h (3 Bft) SW 232 0 min 0,000 mm 0,0 UV-I 0 W/m 0,1 C -3,9 C 24,1 km/h (4 Bft) 100,00 %
19.01.2018 20:14 2,2 C 3,9 C 86 % 1011,9 hPa 0,0 l/m 13,2 km/h (3 Bft) SW 227 0 min 0,000 mm 0,0 UV-I 0 W/m 0,1 C -3,2 C 20,9 km/h (4 Bft) 96,00 %
19.01.2018 20:16 2,2 C 3,9 C 86 % 1012,0 hPa 0,0 l/m 11,2 km/h (2 Bft) SW 236 0 min 0,000 mm 0,0 UV-I 0 W/m 0,1 C -1,9 C 19,3 km/h (3 Bft) 97,87 %
19.01.2018 20:18 2,2 C 3,9 C 86 % 1012,0 hPa 0,0 l/m 15,1 km/h (3 Bft) W-SW 245 0 min 0,000 mm 0,0 UV-I 0 W/m 0,1 C -4,4 C 25,7 km/h (4 Bft) 95,74 %
19.01.2018 20:20 2,2 C 3,9 C 86 % 1011,9 hPa 0,0 l/m 13,3 km/h (3 Bft) SW 230 0 min 0,000 mm 0,0 UV-I 0 W/m 0,1 C -3,3 C 19,3 km/h (3 Bft) 100,00 %
19.01.2018 20:22 2,2 C 3,9 C 86 % 1011,9 hPa 0,0 l/m 11,2 km/h (2 Bft) SW 233 0 min 0,000 mm 0,0 UV-I 0 W/m 0,1 C -1,9 C 17,7 km/h (3 Bft) 96,00 %
19.01.2018 20:24 2,2 C 3,9 C 86 % 1012,0 hPa 0,0 l/m 10,5 km/h (2 Bft) SW 227 0 min 0,000 mm 0,0 UV-I 0 W/m 0,1 C -1,4 C 17,7 km/h (3 Bft) 100,00 %
19.01.2018 20:26 2,2 C 3,9 C 86 % 1012,0 hPa 0,0 l/m 11,5 km/h (2 Bft) S 174 0 min 0,000 mm 0,0 UV-I 0 W/m 0,1 C -2,1 C 19,3 km/h (3 Bft) 100,00 %
19.01.2018 20:28 2,1 C 3,9 C 86 % 1012,0 hPa 0,0 l/m 10,1 km/h (2 Bft) SW 214 0 min 0,000 mm 0,0 UV-I 0 W/m 0,0 C -1,2 C 16,1 km/h (3 Bft) 98,00 %
19.01.2018 20:30 2,1 C 3,9 C 86 % 1012,0 hPa 0,0 l/m 14,1 km/h (3 Bft) SW 229 0 min 0,000 mm 0,0 UV-I 0 W/m 0,0 C -3,9 C 20,9 km/h (4 Bft) 100,00 %
19.01.2018 20:32 2,1 C 3,9 C 86 % 1012,0 hPa 0,0 l/m 13,5 km/h (3 Bft) W-SW 240 0 min 0,000 mm 0,0 UV-I 0 W/m 0,0 C -3,6 C 19,3 km/h (3 Bft) 100,00 %
19.01.2018 20:34 2,2 C 3,9 C 87 % 1012,0 hPa 0,0 l/m 15,5 km/h (3 Bft) SW 235 0 min 0,000 mm 0,0 UV-I 0 W/m 0,3 C -4,6 C 25,7 km/h (4 Bft) 100,00 %
19.01.2018 20:36 2,2 C 3,9 C 87 % 1012,0 hPa 0,0 l/m 12,7 km/h (3 Bft) SW 232 0 min 0,000 mm 0,0 UV-I 0 W/m 0,3 C -2,9 C 19,3 km/h (3 Bft) 98,00 %
19.01.2018 20:38 2,2 C 3,9 C 87 % 1012,1 hPa 0,0 l/m 11,8 km/h (2 Bft) W-SW 240 0 min 0,000 mm 0,0 UV-I 0 W/m 0,3 C -2,3 C 20,9 km/h (4 Bft) 97,87 %
19.01.2018 20:40 2,2 C 3,9 C 87 % 1012,1 hPa 0,0 l/m 12,4 km/h (3 Bft) S-SW 212 0 min 0,000 mm 0,0 UV-I 0 W/m 0,3 C -2,7 C 20,9 km/h (4 Bft) 97,92 %
19.01.2018 20:42 2,2 C 3,9 C 87 % 1012,1 hPa 0,0 l/m 12,7 km/h (3 Bft) W-SW 242 0 min 0,000 mm 0,0 UV-I 0 W/m 0,3 C -2,9 C 19,3 km/h (3 Bft) 97,87 %
19.01.2018 20:44 2,2 C 3,9 C 86 % 1012,1 hPa 0,0 l/m 11,7 km/h (2 Bft) W-SW 253 0 min 0,000 mm 0,0 UV-I 0 W/m 0,1 C -2,3 C 19,3 km/h (3 Bft) 97,14 %
19.01.2018 20:46 2,2 C 3,9 C 86 % 1012,0 hPa 0,0 l/m 13,2 km/h (3 Bft) S-SW 213 0 min 0,000 mm 0,0 UV-I 0 W/m 0,1 C -3,2 C 22,5 km/h (4 Bft) 96,00 %
19.01.2018 20:48 2,2 C 3,9 C 87 % 1012,1 hPa 0,0 l/m 10,5 km/h (2 Bft) SW 234 0 min 0,000 mm 0,0 UV-I 0 W/m 0,3 C -1,4 C 16,1 km/h (3 Bft) 96,00 %
19.01.2018 20:50 2,2 C 3,9 C 86 % 1012,0 hPa 0,0 l/m 12,4 km/h (3 Bft) SW 229 0 min 0,000 mm 0,0 UV-I 0 W/m 0,1 C -2,7 C 20,9 km/h (4 Bft) 96,00 %
19.01.2018 20:52 2,3 C 3,9 C 86 % 1012,0 hPa 0,0 l/m 12,4 km/h (3 Bft) S-SW 192 0 min 0,000 mm 0,0 UV-I 0 W/m 0,2 C -2,6 C 17,7 km/h (3 Bft) 97,87 %
19.01.2018 20:54 2,3 C 3,9 C 86 % 1012,0 hPa 0,0 l/m 10,9 km/h (2 Bft) W-SW 237 0 min 0,000 mm 0,0 UV-I 0 W/m 0,2 C -1,6 C 17,7 km/h (3 Bft) 94,00 %
19.01.2018 20:56 2,3 C 3,9 C 86 % 1012,0 hPa 0,0 l/m 10,6 km/h (2 Bft) S-SW 208 0 min 0,000 mm 0,0 UV-I 0 W/m 0,2 C -1,4 C 20,9 km/h (4 Bft) 94,29 %
19.01.2018 20:58 2,3 C 3,9 C 86 % 1012,0 hPa 0,0 l/m 11,0 km/h (2 Bft) SW 225 0 min 0,000 mm 0,0 UV-I 0 W/m 0,2 C -1,7 C 16,1 km/h (3 Bft) 98,00 %
19.01.2018 21:00 2,3 C 3,9 C 86 % 1012,0 hPa 0,0 l/m 10,0 km/h (2 Bft) SW 225 0 min 0,026 mm 0,0 UV-I 0 W/m 0,2 C -0,9 C 16,1 km/h (3 Bft) 95,74 %
19.01.2018 21:02 2,3 C 3,9 C 86 % 1012,0 hPa 0,0 l/m 13,1 km/h (3 Bft) W-SW 254 0 min 0,000 mm 0,0 UV-I 0 W/m 0,2 C -3,1 C 20,9 km/h (4 Bft) 97,87 %
19.01.2018 21:04 2,2 C 3,9 C 86 % 1012,0 hPa 0,0 l/m 11,1 km/h (2 Bft) SW 226 0 min 0,000 mm 0,0 UV-I 0 W/m 0,1 C -1,8 C 19,3 km/h (3 Bft) 93,62 %
19.01.2018 21:06 2,2 C 3,9 C 86 % 1011,9 hPa 0,0 l/m 14,1 km/h (3 Bft) S-SW 209 0 min 0,000 mm 0,0 UV-I 0 W/m 0,1 C -3,8 C 22,5 km/h (4 Bft) 97,87 %
19.01.2018 21:08 2,2 C 3,9 C 86 % 1011,9 hPa 0,0 l/m 12,4 km/h (3 Bft) SW 223 0 min 0,000 mm 0,0 UV-I 0 W/m 0,1 C -2,7 C 19,3 km/h (3 Bft) 98,00 %
19.01.2018 21:10 2,2 C 3,9 C 86 % 1012,0 hPa 0,0 l/m 12,6 km/h (3 Bft) SW 225 0 min 0,000 mm 0,0 UV-I 0 W/m 0,1 C -2,9 C 17,7 km/h (3 Bft) 95,74 %
19.01.2018 21:12 2,1 C 3,9 C 87 % 1012,0 hPa 0,0 l/m 13,0 km/h (3 Bft) SW 235 0 min 0,000 mm 0,0 UV-I 0 W/m 0,2 C -3,2 C 19,3 km/h (3 Bft) 98,00 %
19.01.2018 21:14 2,1 C 3,9 C 87 % 1012,0 hPa 0,0 l/m 12,5 km/h (3 Bft) W-SW 245 0 min 0,000 mm 0,0 UV-I 0 W/m 0,2 C -2,9 C 17,7 km/h (3 Bft) 100,00 %
19.01.2018 21:16 2,0 C 3,9 C 87 % 1012,0 hPa 0,0 l/m 14,4 km/h (3 Bft) W-SW 243 0 min 0,000 mm 0,0 UV-I 0 W/m 0,1 C -4,2 C 20,9 km/h (4 Bft) 98,00 %
19.01.2018 21:18 1,9 C 3,9 C 87 % 1012,0 hPa 0,0 l/m 13,0 km/h (3 Bft) W-SW 240 0 min 0,000 mm 0,0 UV-I 0 W/m -0,0 C -3,5 C 17,7 km/h (3 Bft) 97,87 %
19.01.2018 21:20 1,9 C 3,9 C 87 % 1012,1 hPa 0,0 l/m 11,7 km/h (2 Bft) SW 232 0 min 0,000 mm 0,0 UV-I 0 W/m -0,0 C -2,6 C 20,9 km/h (4 Bft) 97,87 %
19.01.2018 21:22 1,9 C 3,9 C 87 % 1012,0 hPa 0,0 l/m 10,9 km/h (2 Bft) SW 223 0 min 0,000 mm 0,0 UV-I 0 W/m -0,0 C -2,0 C 14,5 km/h (3 Bft) 97,87 %
19.01.2018 21:24 1,8 C 3,9 C 87 % 1012,0 hPa 0,0 l/m 10,5 km/h (2 Bft) SW 215 0 min 0,000 mm 0,0 UV-I 0 W/m -0,1 C -1,8 C 16,1 km/h (3 Bft) 100,00 %
19.01.2018 21:26 1,8 C 3,9 C 87 % 1012,0 hPa 0,0 l/m 9,0 km/h (2 Bft) W-SW 247 0 min 0,000 mm 0,0 UV-I 0 W/m -0,1 C -0,6 C 16,1 km/h (3 Bft) 100,00 %
19.01.2018 21:28 1,8 C 3,9 C 88 % 1012,1 hPa 0,0 l/m 9,5 km/h (2 Bft) W-SW 238 0 min 0,000 mm 0,0 UV-I 0 W/m 0,0 C -1,1 C 12,9 km/h (3 Bft) 97,87 %
19.01.2018 21:30 1,8 C 3,9 C 88 % 1012,1 hPa 0,0 l/m 8,4 km/h (2 Bft) SW 230 0 min 0,000 mm 0,0 UV-I 0 W/m 0,0 C -0,1 C 16,1 km/h (3 Bft) 100,00 %
19.01.2018 21:32 1,8 C 3,9 C 88 % 1012,1 hPa 0,0 l/m 6,8 km/h (2 Bft) SW 234 0 min 0,000 mm 0,0 UV-I 0 W/m 0,0 C 1,4 C 11,3 km/h (2 Bft) 93,62 %
19.01.2018 21:34 1,8 C 3,9 C 88 % 1012,1 hPa 0,0 l/m 6,6 km/h (2 Bft) SW 234 0 min 0,000 mm 0,0 UV-I 0 W/m 0,0 C 1,6 C 11,3 km/h (2 Bft) 95,74 %
19.01.2018 21:36 1,8 C 3,9 C 88 % 1012,0 hPa 0,0 l/m 6,2 km/h (2 Bft) SW 236 0 min 0,000 mm 0,0 UV-I 0 W/m 0,0 C 1,8 C 9,7 km/h (2 Bft) 100,00 %
19.01.2018 21:38 1,9 C 3,9 C 87 % 1012,0 hPa 0,0 l/m 7,2 km/h (2 Bft) S-SW 212 0 min 0,000 mm 0,0 UV-I 0 W/m -0,0 C 1,1 C 11,3 km/h (2 Bft) 100,00 %
19.01.2018 21:40 1,9 C 3,9 C 87 % 1012,0 hPa 0,0 l/m 7,4 km/h (2 Bft) SW 222 0 min 0,000 mm 0,0 UV-I 0 W/m -0,0 C 0,9 C 11,3 km/h (2 Bft) 97,87 %
19.01.2018 21:42 1,9 C 3,9 C 87 % 1012,1 hPa 0,0 l/m 6,7 km/h (2 Bft) SW 230 0 min 0,000 mm 0,0 UV-I 0 W/m -0,0 C 1,6 C 9,7 km/h (2 Bft) 97,87 %
19.01.2018 21:44 1,9 C 3,9 C 87 % 1012,1 hPa 0,0 l/m 6,2 km/h (2 Bft) SW 232 0 min 0,000 mm 0,0 UV-I 0 W/m -0,0 C 1,9 C 9,7 km/h (2 Bft) 100,00 %
19.01.2018 21:46 1,9 C 3,9 C 87 % 1012,1 hPa 0,0 l/m 7,6 km/h (2 Bft) SW 232 0 min 0,000 mm 0,0 UV-I 0 W/m -0,0 C 0,7 C 9,7 km/h (2 Bft) 100,00 %
19.01.2018 21:48 1,8 C 3,9 C 87 % 1012,1 hPa 0,0 l/m 8,2 km/h (2 Bft) SW 235 0 min 0,000 mm 0,0 UV-I 0 W/m -0,1 C 0,1 C 12,9 km/h (3 Bft) 100,00 %
19.01.2018 21:50 1,8 C 3,9 C 88 % 1012,1 hPa 0,0 l/m 8,8 km/h (2 Bft) SW 235 0 min 0,000 mm 0,0 UV-I 0 W/m 0,0 C -0,5 C 12,9 km/h (3 Bft) 100,00 %
19.01.2018 21:52 1,8 C 3,9 C 88 % 1012,2 hPa 0,0 l/m 9,3 km/h (2 Bft) W-SW 242 0 min 0,000 mm 0,0 UV-I 0 W/m 0,0 C -0,9 C 12,9 km/h (3 Bft) 100,00 %
19.01.2018 21:54 1,8 C 3,9 C 88 % 1012,1 hPa 0,0 l/m 9,1 km/h (2 Bft) W-SW 238 0 min 0,000 mm 0,0 UV-I 0 W/m 0,0 C -0,7 C 12,9 km/h (3 Bft) 100,00 %
19.01.2018 21:56 1,8 C 3,9 C 88 % 1012,2 hPa 0,0 l/m 8,4 km/h (2 Bft) SW 229 0 min 0,000 mm 0,0 UV-I 0 W/m 0,0 C -0,1 C 12,9 km/h (3 Bft) 97,87 %
19.01.2018 21:58 1,8 C 3,9 C 88 % 1012,2 hPa 0,0 l/m 9,8 km/h (2 Bft) SW 229 0 min 0,000 mm 0,0 UV-I 0 W/m 0,0 C -1,3 C 14,5 km/h (3 Bft) 97,87 %
19.01.2018 22:00 1,8 C 3,9 C 88 % 1012,2 hPa 0,0 l/m 10,1 km/h (2 Bft) SW 233 0 min 0,000 mm 0,0 UV-I 0 W/m 0,0 C -1,5 C 16,1 km/h (3 Bft) 96,00 %
19.01.2018 22:02 1,8 C 3,9 C 88 % 1012,2 hPa 0,0 l/m 10,7 km/h (2 Bft) W-SW 246 0 min 0,000 mm 0,0 UV-I 0 W/m 0,0 C -2,0 C 14,5 km/h (3 Bft) 93,62 %
19.01.2018 22:04 1,8 C 3,9 C 88 % 1012,2 hPa 0,0 l/m 8,5 km/h (2 Bft) W-SW 237 0 min 0,000 mm 0,0 UV-I 0 W/m 0,0 C -0,2 C 12,9 km/h (3 Bft) 96,00 %
19.01.2018 22:06 1,8 C 3,9 C 88 % 1012,2 hPa 0,0 l/m 6,9 km/h (2 Bft) W-SW 240 0 min 0,000 mm 0,0 UV-I 0 W/m 0,0 C 1,3 C 11,3 km/h (2 Bft) 96,00 %
19.01.2018 22:08 1,8 C 3,9 C 88 % 1012,3 hPa 0,0 l/m 7,6 km/h (2 Bft) W-SW 245 0 min 0,000 mm 0,0 UV-I 0 W/m 0,0 C 0,6 C 12,9 km/h (3 Bft) 97,37 %
19.01.2018 22:10 1,8 C 3,9 C 88 % 1012,2 hPa 0,0 l/m 5,7 km/h (1 Bft) SW 230 0 min 0,000 mm 0,0 UV-I 0 W/m 0,0 C 1,8 C 8,0 km/h (2 Bft) 94,34 %
19.01.2018 22:12 1,8 C 3,9 C 88 % 1012,2 hPa 0,0 l/m 6,6 km/h (2 Bft) W-SW 238 0 min 0,000 mm 0,0 UV-I 0 W/m 0,0 C 1,6 C 11,3 km/h (2 Bft) 95,74 %
19.01.2018 22:14 1,8 C 3,9 C 88 % 1012,3 hPa 0,0 l/m 5,3 km/h (1 Bft) SW 218 0 min 0,000 mm 0,0 UV-I 0 W/m 0,0 C 1,8 C 9,7 km/h (2 Bft) 98,00 %
19.01.2018 22:16 1,8 C 3,9 C 88 % 1012,2 hPa 0,0 l/m 5,2 km/h (1 Bft) SW 234 0 min 0,000 mm 0,0 UV-I 0 W/m 0,0 C 1,8 C 11,3 km/h (2 Bft) 97,87 %
19.01.2018 22:18 1,8 C 3,9 C 88 % 1012,2 hPa 0,0 l/m 5,2 km/h (1 Bft) SW 229 0 min 0,000 mm 0,0 UV-I 0 W/m 0,0 C 1,8 C 8,0 km/h (2 Bft) 93,62 %
19.01.2018 22:20 1,8 C 3,9 C 88 % 1012,1 hPa 0,0 l/m 5,6 km/h (1 Bft) W-SW 240 0 min 0,000 mm 0,0 UV-I 0 W/m 0,0 C 1,8 C 11,3 km/h (2 Bft) 100,00 %
19.01.2018 22:22 1,8 C 3,3 C 88 % 1012,2 hPa 0,0 l/m 5,9 km/h (2 Bft) W-SW 240 0 min 0,000 mm 0,0 UV-I 0 W/m 0,0 C 1,8 C 8,0 km/h (2 Bft) 93,62 %
19.01.2018 22:24 1,8 C 3,9 C 88 % 1012,1 hPa 0,0 l/m 5,5 km/h (1 Bft) SW 232 0 min 0,000 mm 0,0 UV-I 0 W/m 0,0 C 1,8 C 8,0 km/h (2 Bft) 97,87 %
19.01.2018 22:26 1,8 C 3,9 C 88 % 1012,1 hPa 0,0 l/m 5,1 km/h (1 Bft) SW 232 0 min 0,000 mm 0,0 UV-I 0 W/m 0,0 C 1,8 C 8,0 km/h (2 Bft) 95,74 %
19.01.2018 22:28 1,8 C 3,9 C 88 % 1012,0 hPa 0,0 l/m 3,3 km/h (1 Bft) SW 233 0 min 0,000 mm 0,0 UV-I 0 W/m 0,0 C 1,8 C 4,8 km/h (1 Bft) 94,00 %
19.01.2018 22:30 1,8 C 3,9 C 88 % 1012,1 hPa 0,0 l/m 4,1 km/h (1 Bft) SW 234 0 min 0,000 mm 0,0 UV-I 0 W/m 0,0 C 1,8 C 6,4 km/h (2 Bft) 95,74 %
19.01.2018 22:32 1,8 C 3,9 C 88 % 1012,1 hPa 0,0 l/m 3,1 km/h (1 Bft) SW 234 0 min 0,000 mm 0,0 UV-I 0 W/m 0,0 C 1,8 C 4,8 km/h (1 Bft) 97,87 %
19.01.2018 22:34 1,7 C 3,9 C 88 % 1012,1 hPa 0,0 l/m 3,0 km/h (1 Bft) SW 233 0 min 0,000 mm 0,0 UV-I 0 W/m -0,1 C 1,7 C 4,8 km/h (1 Bft) 95,74 %
19.01.2018 22:36 1,7 C 3,9 C 88 % 1012,1 hPa 0,0 l/m 3,1 km/h (1 Bft) SW 233 0 min 0,000 mm 0,0 UV-I 0 W/m -0,1 C 1,7 C 4,8 km/h (1 Bft) 97,22 %
19.01.2018 22:38 1,7 C 3,9 C 88 % 1012,1 hPa 0,0 l/m 1,5 km/h (1 Bft) SW 233 0 min 0,000 mm 0,0 UV-I 0 W/m -0,1 C 1,7 C 3,2 km/h (1 Bft) 98,00 %
19.01.2018 22:40 1,7 C 3,9 C 89 % 1012,1 hPa 0,0 l/m 1,4 km/h (1 Bft) SW 233 0 min 0,000 mm 0,0 UV-I 0 W/m 0,1 C 1,7 C 3,2 km/h (1 Bft) 97,87 %
19.01.2018 22:42 1,7 C 3,9 C 88 % 1012,1 hPa 0,0 l/m 0,8 km/h (0 Bft) SW 233 0 min 0,000 mm 0,0 UV-I 0 W/m -0,1 C 1,7 C 3,2 km/h (1 Bft) 95,83 %
19.01.2018 22:44 1,7 C 3,3 C 88 % 1012,2 hPa 0,0 l/m 1,0 km/h (0 Bft) SW 233 0 min 0,000 mm 0,0 UV-I 0 W/m -0,1 C 1,7 C 1,6 km/h (1 Bft) 96,00 %
19.01.2018 22:46 1,7 C 3,9 C 88 % 1012,2 hPa 0,0 l/m 1,6 km/h (1 Bft) SW 233 0 min 0,000 mm 0,0 UV-I 0 W/m -0,1 C 1,7 C 3,2 km/h (1 Bft) 93,62 %
19.01.2018 22:48 1,7 C 3,9 C 88 % 1012,2 hPa 0,0 l/m 1,7 km/h (1 Bft) SW 234 0 min 0,000 mm 0,0 UV-I 0 W/m -0,1 C 1,7 C 3,2 km/h (1 Bft) 91,49 %
19.01.2018 22:50 1,7 C 3,9 C 88 % 1012,2 hPa 0,0 l/m 0,4 km/h (0 Bft) SW 234 0 min 0,000 mm 0,0 UV-I 0 W/m -0,1 C 1,7 C 1,6 km/h (1 Bft) 93,62 %
19.01.2018 22:52 1,7 C 3,3 C 88 % 1012,2 hPa 0,0 l/m 0,2 km/h (0 Bft) SW 233 0 min 0,000 mm 0,0 UV-I 0 W/m -0,1 C 1,7 C 1,6 km/h (1 Bft) 95,74 %
19.01.2018 22:54 1,7 C 3,3 C 88 % 1012,2 hPa 0,0 l/m 0,0 km/h (0 Bft) SW 233 0 min 0,000 mm 0,0 UV-I 0 W/m -0,1 C 1,7 C 0,0 km/h (0 Bft) 95,74 %
19.01.2018 22:56 1,7 C 3,3 C 88 % 1012,3 hPa 0,0 l/m 0,9 km/h (0 Bft) SW 234 0 min 0,000 mm 0,0 UV-I 0 W/m -0,1 C 1,7 C 3,2 km/h (1 Bft) 95,74 %
19.01.2018 22:58 1,5 C 3,3 C 88 % 1012,3 hPa 0,0 l/m 0,3 km/h (0 Bft) SW 233 0 min 0,000 mm 0,0 UV-I 0 W/m -0,3 C 1,5 C 1,6 km/h (1 Bft) 95,74 %
19.01.2018 23:00 1,4 C 3,9 C 89 % 1012,3 hPa 0,0 l/m 0,0 km/h (0 Bft) SW 233 0 min 0,000 mm 0,0 UV-I 0 W/m -0,2 C 1,4 C 0,0 km/h (0 Bft) 95,74 %
19.01.2018 23:02 1,3 C 3,9 C 89 % 1012,3 hPa 0,0 l/m 0,0 km/h (0 Bft) SW 233 0 min 0,000 mm 0,0 UV-I 0 W/m -0,3 C 1,3 C 0,0 km/h (0 Bft) 91,49 %
19.01.2018 23:04 1,1 C 3,9 C 90 % 1012,3 hPa 0,0 l/m 1,6 km/h (1 Bft) SW 233 0 min 0,000 mm 0,0 UV-I 0 W/m -0,4 C 1,1 C 3,2 km/h (1 Bft) 91,49 %
19.01.2018 23:06 1,1 C 3,9 C 91 % 1012,3 hPa 0,0 l/m 3,0 km/h (1 Bft) SW 233 0 min 0,000 mm 0,0 UV-I 0 W/m -0,2 C 1,1 C 3,2 km/h (1 Bft) 95,74 %
19.01.2018 23:08 1,1 C 3,9 C 91 % 1012,3 hPa 0,0 l/m 2,2 km/h (1 Bft) SW 233 0 min 0,000 mm 0,0 UV-I 0 W/m -0,2 C 1,1 C 3,2 km/h (1 Bft) 97,87 %
19.01.2018 23:10 0,9 C 3,9 C 91 % 1012,3 hPa 0,0 l/m 1,9 km/h (1 Bft) SW 233 0 min 0,000 mm 0,0 UV-I 0 W/m -0,4 C 0,9 C 3,2 km/h (1 Bft) 97,87 %
19.01.2018 23:12 0,8 C 3,9 C 91 % 1012,2 hPa 0,0 l/m 2,2 km/h (1 Bft) SW 233 0 min 0,000 mm 0,0 UV-I 0 W/m -0,5 C 0,8 C 3,2 km/h (1 Bft) 97,92 %
19.01.2018 23:14 0,7 C 3,9 C 92 % 1012,2 hPa 0,0 l/m 2,4 km/h (1 Bft) SW 233 0 min 0,000 mm 0,0 UV-I 0 W/m -0,4 C 0,7 C 3,2 km/h (1 Bft) 97,50 %
19.01.2018 23:16 0,7 C 3,9 C 92 % 1012,1 hPa 0,0 l/m 2,6 km/h (1 Bft) SW 233 0 min 0,000 mm 0,0 UV-I 0 W/m -0,4 C 0,7 C 3,2 km/h (1 Bft) 98,11 %
19.01.2018 23:18 0,7 C 3,9 C 93 % 1012,2 hPa 0,0 l/m 2,0 km/h (1 Bft) SW 233 0 min 0,000 mm 0,0 UV-I 0 W/m -0,3 C 0,7 C 3,2 km/h (1 Bft) 98,00 %
19.01.2018 23:20 0,8 C 3,9 C 93 % 1012,1 hPa 0,0 l/m 2,2 km/h (1 Bft) SW 233 0 min 0,000 mm 0,0 UV-I 0 W/m -0,2 C 0,8 C 3,2 km/h (1 Bft) 95,74 %
19.01.2018 23:22 0,8 C 3,9 C 92 % 1012,1 hPa 0,0 l/m 2,6 km/h (1 Bft) SW 233 0 min 0,000 mm 0,0 UV-I 0 W/m -0,3 C 0,8 C 3,2 km/h (1 Bft) 95,74 %
19.01.2018 23:24 0,7 C 3,9 C 92 % 1012,1 hPa 0,0 l/m 2,8 km/h (1 Bft) SW 233 0 min 0,000 mm 0,0 UV-I 0 W/m -0,4 C 0,7 C 3,2 km/h (1 Bft) 91,43 %
19.01.2018 23:26 0,7 C 3,9 C 93 % 1012,2 hPa 0,0 l/m 2,5 km/h (1 Bft) SW 233 0 min 0,000 mm 0,0 UV-I 0 W/m -0,3 C 0,7 C 3,2 km/h (1 Bft) 97,87 %
19.01.2018 23:28 0,7 C 3,9 C 93 % 1012,2 hPa 0,0 l/m 2,3 km/h (1 Bft) SW 233 0 min 0,000 mm 0,0 UV-I 0 W/m -0,3 C 0,7 C 3,2 km/h (1 Bft) 97,87 %
19.01.2018 23:30 0,7 C 3,9 C 93 % 1012,2 hPa 0,0 l/m 2,4 km/h (1 Bft) S 183 0 min 0,000 mm 0,0 UV-I 0 W/m -0,3 C 0,7 C 4,8 km/h (1 Bft) 100,00 %
19.01.2018 23:32 0,7 C 3,9 C 93 % 1012,2 hPa 0,0 l/m 2,3 km/h (1 Bft) S 183 0 min 0,000 mm 0,0 UV-I 0 W/m -0,3 C 0,7 C 4,8 km/h (1 Bft) 100,00 %
19.01.2018 23:34 0,7 C 3,9 C 93 % 1012,3 hPa 0,0 l/m 0,2 km/h (0 Bft) S 183 0 min 0,000 mm 0,0 UV-I 0 W/m -0,3 C 0,7 C 3,2 km/h (1 Bft) 97,87 %
19.01.2018 23:36 0,7 C 3,9 C 93 % 1012,2 hPa 0,0 l/m 0,0 km/h (0 Bft) S 183 0 min 0,000 mm 0,0 UV-I 0 W/m -0,3 C 0,7 C 0,0 km/h (0 Bft) 100,00 %
19.01.2018 23:38 0,6 C 3,9 C 93 % 1012,2 hPa 0,0 l/m 0,0 km/h (0 Bft) S 183 0 min 0,000 mm 0,0 UV-I 0 W/m -0,4 C 0,6 C 1,6 km/h (1 Bft) 100,00 %
19.01.2018 23:40 0,7 C 3,9 C 93 % 1012,1 hPa 0,0 l/m 2,3 km/h (1 Bft) S 183 0 min 0,000 mm 0,0 UV-I 0 W/m -0,3 C 0,7 C 3,2 km/h (1 Bft) 100,00 %
19.01.2018 23:42 0,9 C 3,9 C 93 % 1012,1 hPa 0,0 l/m 2,6 km/h (1 Bft) S 183 0 min 0,000 mm 0,0 UV-I 0 W/m -0,1 C 0,9 C 3,2 km/h (1 Bft) 97,87 %
19.01.2018 23:44 1,1 C 3,9 C 92 % 1012,0 hPa 0,0 l/m 4,1 km/h (1 Bft) O-SO 115 0 min 0,000 mm 0,0 UV-I 0 W/m -0,1 C 1,1 C 4,8 km/h (1 Bft) 97,87 %
19.01.2018 23:46 1,2 C 3,9 C 91 % 1012,0 hPa 0,0 l/m 5,0 km/h (1 Bft) O 90 0 min 0,000 mm 0,0 UV-I 0 W/m -0,1 C 1,2 C 6,4 km/h (2 Bft) 95,74 %
19.01.2018 23:48 1,2 C 3,9 C 91 % 1012,0 hPa 0,0 l/m 4,1 km/h (1 Bft) O 90 0 min 0,000 mm 0,0 UV-I 0 W/m -0,1 C 1,2 C 6,4 km/h (2 Bft) 100,00 %
19.01.2018 23:50 1,2 C 3,3 C 91 % 1012,0 hPa 0,0 l/m 5,9 km/h (2 Bft) O 80 0 min 0,000 mm 0,0 UV-I 0 W/m -0,1 C 1,2 C 9,7 km/h (2 Bft) 100,00 %
19.01.2018 23:52 1,1 C 3,3 C 91 % 1012,0 hPa 0,0 l/m 4,2 km/h (1 Bft) O 81 0 min 0,000 mm 0,0 UV-I 0 W/m -0,2 C 1,1 C 6,4 km/h (2 Bft) 100,00 %
19.01.2018 23:54 0,9 C 3,9 C 91 % 1012,0 hPa 0,0 l/m 0,7 km/h (0 Bft) O 81 0 min 0,000 mm 0,0 UV-I 0 W/m -0,4 C 0,9 C 3,2 km/h (1 Bft) 100,00 %
19.01.2018 23:56 0,8 C 3,9 C 91 % 1012,0 hPa 0,0 l/m 1,4 km/h (1 Bft) O 81 0 min 0,000 mm 0,0 UV-I 0 W/m -0,5 C 0,8 C 3,2 km/h (1 Bft) 100,00 %
19.01.2018 23:58 0,8 C 3,9 C 92 % 1011,9 hPa 0,0 l/m 3,3 km/h (1 Bft) O 81 0 min 0,000 mm 0,0 UV-I 0 W/m -0,3 C 0,8 C 4,8 km/h (1 Bft) 97,87 %
_ Min-Zeit 23:38 00:52 13:58 00:46 - 22:54 - - - - - - 18:26 08:34 22:54 23:24
Minimum _ 0,6 C 3,3 C 73 % 1004,1 hPa - 0,0 km/h (0 Bft) - - - - - - -0,6 C -9,3 C 0,0 km/h (0 Bft) 91,43 %
_ Max-Zeit 12:56 00:00 00:20 22:08 00:04 08:34 - - 11:38 13:00 12:34 12:56 01:24 01:28 13:44 00:42
Maximum _ 5,0 C 3,9 C 96 % 1012,3 hPa 0,2 l/m 29,3 km/h
W-SW (5 Bft)
- - 2 min 0,127 mm 0,6 UV-I 412 W/m 3,1 C 3,7 C 46,7 km/h
W-SW (6 Bft)
100,00 %
Durchschnitt _ 2,7 C 3,7 C 89 % 1008,9 hPa #12,8 l/m 13,6 km/h (3 Bft) W-SW - #1:52 h #0,686 mm 0,4 UV-I 104 W/m 1,1 C -2,5 C 20,9 km/h (4 Bft) 97,61 %